[[{"header":{"parameterUnit":"m.s-1","parameterCategory":1,"la1":30.6,"la2":29.2853,"lo1":-89.7004,"lo2":-87.6739,"dy":0.0162,"dx":0.0183,"nx":112,"ny":82,"refTime":"2024-08-13T18:00:00:Z","depth":0,"parameterNumber":2,"parameterNumberName":"U-component_of_WINDS"},"data":[0.0,0.0,0.0,0.0,0.0,0.0,0.0,0.0,0.0,0.0,0.0,0.0,0.0,0.0,0.0,0.0,0.0,0.0,0.0,0.0,0.0,0.0,0.0,0.0,0.0,0.0,0.0,0.0,0.0,0.0,0.0,0.0,0.0,0.0,0.0,0.0,0.0,0.0,0.0,0.0,0.0,0.0,0.0,0.0,0.0,0.0,0.0,0.0,0.0,0.0,0.0,0.0,0.0,0.0,0.0,0.0,0.0,0.0,0.0,0.0,0.0,0.0,0.0,0.0,0.0,0.0,0.0,0.0,0.0,0.0,0.0,0.0,0.0,0.0,0.0,0.0,0.0,0.0,0.0,0.0,0.0,0.0,0.0,0.0,0.0,0.0,0.0,0.0,0.0,0.0,2.105,2.2236,2.418,2.5301,2.5057,2.4924,2.3358,1.9863,0.0,0.0,0.0,0.0,0.0,0.0,0.0,0.0,0.0,0.0,0.0,0.0,0.0,0.0,0.0,0.0,0.0,0.0,0.0,0.0,0.0,0.0,0.0,0.0,0.0,0.0,0.0,0.0,0.0,0.0,0.0,0.0,0.0,0.0,0.0,0.0,0.0,0.0,0.0,0.0,0.0,0.0,0.0,0.0,0.0,0.0,0.0,0.0,0.0,0.0,0.0,0.0,0.0,0.0,0.0,0.0,0.0,0.0,0.0,0.0,0.0,0.0,0.0,0.0,0.0,0.0,0.0,0.0,0.0,0.0,0.0,0.0,0.0,0.0,0.0,0.0,0.0,0.0,0.0,0.0,0.0,0.0,0.0,0.0,0.0,0.0,0.0,0.0,0.0,0.0,0.0,0.0,0.0,0.0,0.0,0.0,0.0,0.0,0.0,0.0,0.0,0.0,0.0,0.0,2.1706,2.4627,2.5214,2.5365,2.5274,2.5118,2.3583,2.0066,0.0,0.0,0.0,0.0,0.0,0.0,0.0,0.0,0.0,0.0,0.0,0.0,0.0,0.0,0.0,0.0,0.0,0.0,0.0,0.0,0.0,0.0,0.0,0.0,0.0,0.0,0.0,0.0,0.0,0.0,0.0,0.0,0.0,0.0,0.0,0.0,0.0,0.0,0.0,0.0,0.0,0.0,0.0,0.0,0.0,0.0,0.0,0.0,0.0,0.0,0.0,0.0,0.0,0.0,0.0,0.0,0.0,0.0,0.0,0.0,0.0,0.0,0.0,0.0,0.0,0.0,0.0,0.0,0.0,0.0,0.0,0.0,0.0,0.0,0.0,0.0,0.0,0.0,0.0,0.0,0.0,0.0,0.0,0.0,0.0,0.0,0.0,0.0,0.0,0.0,0.0,0.0,0.0,0.0,0.0,0.0,0.0,0.0,0.0,0.0,0.0,0.0,0.0,2.0795,2.24,2.5258,2.5498,2.5434,2.5357,2.5194,2.364,2.0212,1.9738,0.0,0.0,0.0,0.0,0.0,0.0,0.0,0.0,0.0,0.0,0.0,0.0,0.0,0.0,0.0,0.0,0.0,0.0,0.0,0.0,0.0,0.0,0.0,0.0,0.0,0.0,0.0,0.0,0.0,0.0,0.0,0.0,0.0,0.0,0.0,0.0,0.0,0.0,0.0,0.0,0.0,0.0,0.0,0.0,0.0,0.0,0.0,0.0,0.0,0.0,0.0,0.0,0.0,0.0,0.0,0.0,0.0,0.0,0.0,0.0,0.0,0.0,0.0,0.0,0.0,0.0,0.0,0.0,0.0,0.0,0.0,0.0,0.0,0.0,0.0,0.0,0.0,0.0,0.0,0.0,0.0,0.0,0.0,0.0,0.0,0.0,0.0,0.0,0.0,0.0,0.0,0.0,0.0,0.0,0.0,0.0,0.0,0.0,0.0,0.0,0.0,0.0,2.2088,2.3288,2.5369,2.5527,2.5478,2.5382,2.486,2.3282,2.0288,1.9498,0.0,0.0,0.0,0.0,0.0,0.0,0.0,0.0,0.0,0.0,0.0,0.0,0.0,0.0,0.0,0.0,0.0,0.0,0.0,0.0,0.0,0.0,0.0,0.0,0.0,0.0,0.0,0.0,0.0,0.0,0.0,0.0,0.0,0.0,0.0,0.0,0.0,0.0,0.0,0.0,0.0,0.0,0.0,0.0,0.0,0.0,0.0,0.0,0.0,0.0,0.0,0.0,0.0,0.0,0.0,0.0,0.0,0.0,0.0,0.0,0.0,0.0,0.0,0.0,0.0,0.0,0.0,0.0,0.0,0.0,0.0,0.0,0.0,0.0,0.0,0.0,0.0,0.0,0.0,0.0,0.0,0.0,0.0,0.0,0.0,0.0,0.0,0.0,0.0,0.0,0.0,0.0,0.0,0.0,0.0,0.0,0.0,0.0,0.0,0.0,0.0,0.0,2.2715,2.4559,2.5414,2.5507,2.5453,2.5322,2.387,2.2142,2.0212,1.8507,0.0,0.0,0.0,0.0,0.0,0.0,0.0,0.0,0.0,0.0,0.0,0.0,0.0,0.0,0.0,0.0,0.0,0.0,0.0,0.0,0.0,0.0,0.0,0.0,0.0,0.0,0.0,0.0,0.0,0.0,0.0,0.0,0.0,0.0,0.0,0.0,0.0,0.0,0.0,0.0,0.0,0.0,0.0,0.0,0.0,0.0,0.0,0.0,0.0,0.0,0.0,0.0,0.0,0.0,0.0,0.0,0.0,0.0,0.0,0.0,0.0,0.0,0.0,0.0,0.0,0.0,0.0,0.0,0.0,0.0,0.0,0.0,0.0,0.0,0.0,0.0,0.0,0.0,0.0,0.0,0.0,0.0,0.0,0.0,0.0,0.0,0.0,0.0,0.0,0.0,0.0,0.0,0.0,0.0,0.0,0.0,0.0,0.0,0.0,0.0,0.0,0.0,2.2304,2.4117,2.5479,2.5586,2.5543,2.5486,2.4822,2.3232,2.046,0.0,0.0,0.0,0.0,0.0,0.0,0.0,0.0,0.0,0.0,0.0,0.0,0.0,0.0,0.0,0.0,0.0,0.0,0.0,0.0,0.0,0.0,0.0,0.0,0.0,0.0,0.0,0.0,0.0,0.0,0.0,0.0,0.0,0.0,0.0,0.0,0.0,0.0,0.0,0.0,0.0,0.0,0.0,0.0,0.0,0.0,0.0,0.0,0.0,0.0,0.0,0.0,0.0,0.0,0.0,0.0,0.0,0.0,0.0,0.0,0.0,0.0,0.0,0.0,0.0,0.0,0.0,0.0,0.0,0.0,0.0,0.0,0.0,0.0,0.0,0.0,0.0,0.0,0.0,0.0,0.0,0.0,0.0,0.0,0.0,0.0,0.0,0.0,0.0,0.0,0.0,0.0,0.0,0.0,0.0,0.0,0.0,0.0,0.0,0.0,0.0,0.0,2.034,2.2492,2.4374,2.5547,2.5632,2.5595,2.5562,2.4992,2.3431,2.0579,0.0,0.0,0.0,0.0,0.0,0.0,0.0,0.0,0.0,0.0,0.0,0.0,0.0,0.0,0.0,0.0,0.0,0.0,0.0,0.0,0.0,0.0,0.0,0.0,0.0,0.0,0.0,0.0,0.0,0.0,0.0,0.0,0.0,0.0,0.0,0.0,0.0,0.0,0.0,0.0,0.0,0.0,0.0,0.0,0.0,0.0,0.0,0.0,0.0,0.0,0.0,0.0,0.0,0.0,0.0,0.0,0.0,0.0,0.0,0.0,0.0,0.0,0.0,0.0,0.0,0.0,0.0,0.0,0.0,0.0,0.0,0.0,0.0,0.0,0.0,0.0,0.0,0.0,0.0,0.0,0.0,0.0,0.0,0.0,0.0,0.0,0.0,0.0,0.0,0.0,0.0,0.0,0.0,0.0,0.0,0.0,0.0,0.0,0.0,0.0,0.0,0.0,2.0482,2.3542,2.5664,2.5605,2.5605,2.5564,2.5506,2.3992,2.2282,0.0,0.0,0.0,0.0,0.0,0.0,0.0,0.0,0.0,0.0,0.0,0.0,0.0,0.0,0.0,0.0,0.0,0.0,0.0,0.0,0.0,0.0,0.0,0.0,0.0,0.0,0.0,0.0,0.0,0.0,0.0,0.0,0.0,0.0,0.0,0.0,0.0,0.0,0.0,0.0,0.0,0.0,0.0,0.0,0.0,0.0,0.0,0.0,0.0,0.0,0.0,0.0,0.0,0.0,0.0,0.0,0.0,0.0,0.0,0.0,0.0,0.0,0.0,0.0,0.0,0.0,0.0,0.0,0.0,0.0,0.0,0.0,0.0,0.0,0.0,0.0,0.0,0.0,0.0,0.0,0.0,0.0,0.0,0.0,0.0,0.0,0.0,0.0,0.0,0.0,0.0,0.0,0.0,0.0,0.0,0.0,0.0,0.0,0.0,0.0,0.0,0.0,0.0,2.0352,2.3474,2.5611,2.5603,2.5644,2.5657,2.564,2.5137,2.3592,2.0656,0.0,0.0,0.0,0.0,0.0,0.0,0.0,0.0,0.0,0.0,0.0,0.0,0.0,0.0,0.0,0.0,0.0,0.0,0.0,0.0,0.0,0.0,0.0,0.0,0.0,0.0,0.0,0.0,0.0,0.0,0.0,0.0,0.0,0.0,0.0,0.0,0.0,0.0,0.0,0.0,0.0,0.0,0.0,0.0,0.0,0.0,0.0,0.0,0.0,0.0,0.0,0.0,0.0,0.0,0.0,0.0,0.0,0.0,0.0,0.0,0.0,0.0,0.0,0.0,0.0,0.0,0.0,0.0,0.0,0.0,0.0,0.0,0.0,0.0,0.0,0.0,0.0,0.0,0.0,0.0,0.0,0.0,0.0,0.0,0.0,0.0,0.0,0.0,0.0,0.0,0.0,0.0,0.0,0.0,0.0,0.0,0.0,0.0,0.0,0.0,0.0,0.0,2.0327,2.3424,2.5561,2.5595,2.5643,2.5664,2.5701,2.5654,2.4327,2.1205,0.0,0.0,0.0,0.0,0.0,0.0,0.0,0.0,0.0,0.0,0.0,0.0,0.0,0.0,0.0,0.0,0.0,0.0,0.0,0.0,0.0,0.0,0.0,0.0,0.0,0.0,0.0,0.0,0.0,0.0,0.0,0.0,0.0,0.0,0.0,0.0,0.0,0.0,0.0,0.0,0.0,0.0,0.0,0.0,0.0,0.0,0.0,0.0,0.0,0.0,0.0,0.0,0.0,0.0,0.0,0.0,0.0,0.0,0.0,0.0,0.0,0.0,0.0,0.0,0.0,0.0,0.0,0.0,0.0,0.0,0.0,0.0,0.0,0.0,0.0,0.0,0.0,0.0,0.0,0.0,0.0,0.0,0.0,0.0,0.0,0.0,0.0,0.0,0.0,0.0,0.0,0.0,0.0,0.0,0.0,0.0,0.0,0.0,0.0,0.0,0.0,0.0,2.0469,2.3416,2.5503,2.557,2.5583,2.5627,2.5687,2.57,2.4629,2.2083,0.0,0.0,0.0,0.0,0.0,0.0,0.0,0.0,0.0,0.0,0.0,0.0,0.0,0.0,0.0,0.0,0.0,0.0,0.0,0.0,0.0,0.0,0.0,0.0,0.0,0.0,0.0,0.0,0.0,0.0,0.0,0.0,0.0,0.0,0.0,0.0,0.0,0.0,0.0,0.0,0.0,0.0,0.0,0.0,0.0,0.0,0.0,0.0,0.0,0.0,0.0,0.0,0.0,0.0,0.0,0.0,0.0,0.0,0.0,0.0,1.6686,1.5976,0.0,0.0,0.0,0.0,0.0,0.0,0.0,0.0,0.0,0.0,0.0,0.0,0.0,0.0,0.0,0.0,0.0,0.0,0.0,0.0,0.0,0.0,0.0,0.0,0.0,0.0,0.0,0.0,0.0,0.0,0.0,0.0,0.0,0.0,0.0,0.0,0.0,0.0,0.0,0.0,2.1092,2.3708,2.5434,2.5441,2.5532,2.5606,2.5627,2.5672,2.4878,2.2949,2.1074,0.0,0.0,0.0,0.0,0.0,0.0,0.0,0.0,0.0,0.0,0.0,0.0,0.0,0.0,0.0,0.0,0.0,0.0,0.0,0.0,0.0,0.0,0.0,0.0,0.0,0.0,0.0,0.0,0.0,0.0,0.0,0.0,0.0,0.0,0.0,0.0,0.0,0.0,0.0,0.0,0.0,0.0,0.0,0.0,0.0,0.0,0.0,0.0,0.0,0.0,0.0,0.0,0.0,0.0,0.0,0.0,0.0,0.0,0.0,1.9107,1.8473,0.0,0.0,0.0,0.0,0.0,0.0,0.0,0.0,0.0,0.0,0.0,0.0,0.0,0.0,0.0,0.0,0.0,0.0,0.0,0.0,0.0,0.0,0.0,0.0,0.0,0.0,0.0,0.0,0.0,0.0,0.0,0.0,0.0,0.0,0.0,0.0,0.0,0.0,0.0,0.0,2.1323,2.376,2.5365,2.5406,2.5467,2.5512,2.5539,2.5577,2.5052,2.3767,2.2108,0.0,0.0,0.0,0.0,0.0,0.0,0.0,0.0,0.0,0.0,0.0,0.0,0.0,0.0,0.0,0.0,0.0,0.0,0.0,0.0,0.0,0.0,0.0,0.0,0.0,0.0,0.0,0.0,0.0,0.0,0.0,0.0,0.0,0.0,0.0,0.0,0.0,0.0,0.0,0.0,0.0,0.0,0.0,0.0,0.0,0.0,0.0,0.0,0.0,0.0,0.0,0.0,0.0,2.1306,2.1954,2.2978,2.2424,2.2562,2.3165,2.1494,2.098,2.1213,1.9924,0.0,0.0,0.0,0.0,0.0,0.0,0.0,0.0,0.0,0.0,0.0,0.0,0.0,0.0,0.0,0.0,0.0,0.0,0.0,0.0,0.0,0.0,2.2295,2.2333,2.3899,2.4506,2.1222,0.0,0.0,0.0,0.0,0.0,0.0,0.0,0.0,0.0,0.0,0.0,2.1741,2.3861,2.5303,2.5365,2.539,2.541,2.5473,2.5502,2.5219,2.4544,2.3068,2.1531,0.0,0.0,0.0,0.0,0.0,0.0,0.0,0.0,0.0,0.0,0.0,0.0,0.0,0.0,0.0,0.0,0.0,0.0,0.0,0.0,0.0,0.0,0.0,0.0,0.0,0.0,0.0,0.0,0.0,0.0,0.0,0.0,1.3265,1.4834,0.0,0.0,0.0,0.0,0.0,0.0,0.0,0.0,0.0,0.0,0.0,0.0,0.0,2.2048,2.331,2.4122,2.4564,2.4656,2.5287,2.5672,2.5841,2.5749,2.5749,2.578,2.5546,0.0,2.2497,2.1739,0.0,0.0,0.0,0.0,0.0,0.0,0.0,0.0,0.0,0.0,0.0,0.0,0.0,0.0,0.0,0.0,0.0,0.0,0.0,0.0,0.0,0.0,2.5502,2.557,2.5869,2.6004,2.5477,2.3268,2.0941,1.9372,1.8996,1.866,0.0,0.0,0.0,0.0,0.0,0.0,2.3202,2.4468,2.5222,2.5224,2.5321,2.541,2.5398,2.5464,2.546,2.5357,2.4411,2.3474,2.2541,2.0886,0.0,0.0,0.0,0.0,0.0,0.0,0.0,0.0,0.0,0.0,0.0,0.0,0.0,0.0,0.0,0.0,0.0,0.0,0.0,0.0,0.0,0.0,0.0,0.0,0.0,0.0,0.0,0.0,0.0,1.3247,1.5203,1.6082,1.6466,1.6417,0.0,0.0,0.0,0.0,0.0,0.0,0.0,0.0,0.0,2.2987,2.3402,2.4106,2.515,2.5499,2.5696,2.5696,2.6091,2.629,2.629,2.638,2.638,2.6364,2.6364,2.5775,2.4751,2.378,2.2958,2.2254,0.0,0.0,0.0,0.0,2.1718,2.2061,2.3039,2.3598,2.3824,2.3337,0.0,0.0,0.0,0.0,0.0,0.0,0.0,2.3885,2.4235,2.5541,2.6778,2.6802,2.7194,2.7477,2.7071,2.5899,2.4381,2.2429,2.1709,2.1025,1.9773,1.9206,0.0,0.0,0.0,2.3044,2.4271,2.5738,2.6669,2.6669,2.6705,2.6544,2.6063,2.6063,2.5897,2.5464,2.5089,2.4509,2.3712,2.2544,2.1177,0.0,0.0,0.0,0.0,0.0,0.0,0.0,0.0,0.0,0.0,0.0,0.0,0.0,0.0,0.0,0.0,0.0,0.0,0.0,0.0,0.0,0.0,0.0,0.0,0.0,0.0,0.0,0.0,1.5583,1.7316,1.7622,1.8693,1.8997,0.0,0.0,0.0,0.0,0.0,0.0,2.3024,2.3286,2.4162,2.5708,2.58,2.621,2.6937,2.7,2.7033,2.7048,2.7161,2.7208,2.7255,2.7364,2.7411,2.7411,2.7226,2.7165,2.7042,2.5629,2.4632,2.4004,2.3585,2.3169,2.2869,2.3751,2.4161,2.4441,2.5948,2.6493,2.6442,2.6061,2.5397,2.4514,2.3379,0.0,0.0,0.0,0.0,2.5361,2.5619,2.6608,2.7558,2.7583,2.8103,2.8424,2.7876,2.7774,2.7191,2.5095,2.4241,2.3437,2.2042,2.1307,0.0,2.1869,2.3188,2.444,2.5338,2.677,2.7708,2.7708,2.7745,2.752,2.6857,2.6822,2.6493,2.5735,2.5676,2.5321,2.4529,2.3932,2.3137,2.2138,0.0,0.0,0.0,0.0,0.0,0.0,0.0,0.0,0.0,0.0,0.0,0.0,0.0,0.0,0.0,0.0,0.0,0.0,0.0,0.0,0.0,0.0,0.0,0.0,0.0,0.0,0.0,0.0,0.0,1.9943,2.1946,0.0,0.0,0.0,0.0,2.2521,2.2759,2.3643,2.5344,2.545,2.6363,2.8338,2.8538,2.8906,2.9614,2.9758,2.9811,2.9811,2.9938,2.999,2.999,3.0161,3.0228,3.0181,2.955,2.9258,2.9104,2.7057,2.5826,2.521,2.5179,2.4874,2.4592,2.5607,2.623,2.6722,2.8085,2.7789,2.6943,2.7941,2.7307,2.6179,2.6109,2.5673,0.0,0.0,2.6623,2.6907,2.787,2.8174,2.8273,2.8326,2.8422,2.8474,2.8456,2.854,2.8173,2.6599,2.6235,2.5965,2.5189,0.0,2.5047,2.5146,2.5356,2.5782,2.66,2.7123,2.7422,2.7422,2.7592,2.7682,2.7644,2.7699,2.7359,2.6496,2.6439,2.61,2.5363,2.5302,2.4548,2.2974,2.113,0.0,0.0,0.0,0.0,0.0,0.0,0.0,0.0,0.0,0.0,0.0,0.0,0.0,0.0,0.0,0.0,0.0,0.0,0.0,0.0,0.0,0.0,0.0,0.0,0.0,0.0,0.0,0.0,2.1556,2.2921,0.0,2.2076,2.3374,2.454,2.5181,2.6069,2.7065,2.8113,2.7764,2.8036,2.9205,2.8867,2.8971,2.9633,2.9741,2.9741,2.9741,2.994,3.0046,3.0099,3.0324,3.0428,3.0412,3.0166,3.0058,3.0012,2.9223,2.8042,2.6657,2.6657,2.6375,2.6065,2.6823,2.7148,2.7219,2.7704,2.7926,2.8127,2.887,2.8781,2.8397,2.8494,2.846,2.8469,2.8918,2.9107,2.9151,2.9058,2.9042,2.8945,2.8452,2.838,2.8458,2.8492,2.8543,2.8406,2.7919,2.7464,2.7096,2.6826,2.6395,2.6069,2.6112,2.674,2.7306,2.7603,2.8315,2.8813,2.8813,2.8881,2.8736,2.8312,2.7823,2.7243,2.6539,2.5967,2.5559,2.5284,2.5339,2.5136,2.4561,2.2921,2.082,0.0,0.0,0.0,0.0,0.0,0.0,0.0,0.0,0.0,0.0,0.0,0.0,0.0,0.0,0.0,0.0,0.0,0.0,0.0,0.0,0.0,0.0,0.0,0.0,0.0,2.1082,2.2775,2.267,2.3971,2.4583,2.3757,2.5243,2.6426,2.6916,2.8203,2.9029,2.921,2.9239,2.9454,2.9873,2.9448,2.9562,3.0238,3.0,3.0,3.0238,3.0513,3.0676,3.0676,3.093,3.1089,3.1074,3.0843,3.0751,3.0735,3.052,2.9627,2.8411,2.8411,2.823,2.7953,2.8202,2.8246,2.816,2.7965,2.8385,2.91,2.9279,2.9403,2.9506,2.9659,2.9758,2.9872,3.0131,3.0269,3.0237,2.9875,2.979,2.9704,2.9186,2.9106,2.9116,2.89,2.9071,2.9206,2.9013,2.8626,2.8361,2.8361,2.8208,2.8049,2.8072,2.8695,2.9045,2.879,2.9388,2.9715,2.9455,2.9494,2.9382,2.899,2.8225,2.75,2.6906,2.6075,2.5485,2.5209,2.5284,2.534,2.5369,2.3796,2.1847,1.956,0.0,0.0,0.0,0.0,0.0,0.0,0.0,0.0,0.0,0.0,0.0,0.0,0.0,0.0,0.0,0.0,0.0,0.0,0.0,0.0,0.0,0.0,0.0,1.9959,2.2331,2.3937,2.3348,2.5315,2.6286,2.517,2.7188,2.8312,2.7689,2.8878,2.931,2.8591,2.9754,3.0465,3.0495,3.045,3.0777,3.1467,3.0837,3.0837,3.1482,3.1826,3.1996,3.1996,3.2247,3.2398,3.2351,3.1705,3.1413,3.1366,3.0735,3.0489,3.0474,3.0443,3.0428,3.0351,2.9689,2.9608,2.975,2.9074,2.9312,2.977,2.9265,2.9332,2.9575,2.9575,2.9575,2.9644,2.9974,3.0071,3.0149,3.0457,3.0547,3.0499,3.0511,3.0606,3.0474,2.9697,3.0202,3.0582,2.9855,2.9809,2.9888,2.9922,3.0576,3.1111,3.119,3.1217,0.0,3.0141,3.0197,2.9986,2.9215,2.9277,2.9457,2.966,2.8919,2.8206,2.7604,2.681,2.602,2.5268,2.5214,2.5239,2.5311,2.3726,2.2073,2.0386,0.0,0.0,0.0,0.0,0.0,0.0,0.0,0.0,0.0,0.0,0.0,0.0,0.0,0.0,0.0,0.0,0.0,0.0,0.0,0.0,0.0,2.2175,2.3921,2.423,2.4836,2.5709,2.6956,2.7258,2.7223,2.6895,2.7902,2.8457,2.8292,2.9061,2.9448,2.9251,2.908,2.9288,2.9752,2.9268,2.9594,3.0777,3.0584,3.0837,3.1482,3.1727,3.1841,3.1841,3.2038,3.2135,3.2231,3.2048,3.2011,3.2105,3.1921,3.1859,3.1751,3.0797,3.0428,3.0397,3.0212,3.0151,3.0293,3.0513,3.0652,3.079,3.1079,3.1164,3.1162,3.1162,3.127,3.1394,3.1498,3.1584,3.1579,3.1243,3.1164,3.1053,3.0606,3.0529,3.0505,3.0402,3.0557,3.0675,3.0528,3.0998,3.1271,3.0767,3.0912,3.1111,3.1111,3.1164,3.1125,3.0907,3.0392,2.9984,2.9765,2.9287,2.9056,2.9256,2.7994,2.7232,2.7311,2.601,2.5487,2.6053,2.5504,2.5206,2.5222,2.3659,2.2595,0.0,0.0,0.0,0.0,0.0,0.0,0.0,0.0,0.0,0.0,0.0,0.0,0.0,0.0,0.0,0.0,0.0,0.0,0.0,0.0,0.0,0.0,2.4535,2.615,2.7302,2.6942,2.6861,2.7722,2.744,2.7305,2.755,2.8126,2.8367,2.8116,2.8934,2.9254,2.8698,2.8839,2.8967,2.9079,2.8725,2.9156,3.0524,3.0208,3.0584,3.1482,3.1727,3.1799,3.1799,3.1996,3.215,3.2191,3.2247,3.2342,3.2398,3.2398,3.2398,3.2321,0.0,0.0,0.0,0.0,3.0658,3.0464,3.0927,3.1214,3.1404,3.1869,3.2244,3.2522,3.2522,3.2469,3.2433,3.2543,3.237,3.2161,3.1857,3.185,3.1792,3.1475,3.1431,3.1421,3.1178,3.1374,3.1548,3.1278,3.187,0.0,3.1957,3.1942,3.2045,3.2073,3.2083,3.1983,3.1656,3.1228,3.0792,3.0446,2.9701,2.9308,2.9513,2.8058,0.0,0.0,0.0,2.5958,2.6346,2.5939,0.0,0.0,0.0,0.0,0.0,0.0,0.0,0.0,2.2692,2.2905,0.0,0.0,0.0,0.0,0.0,0.0,0.0,0.0,0.0,0.0,0.0,0.0,0.0,0.0,0.0,0.0,2.6449,2.744,2.9143,2.8477,2.7561,2.6944,2.683,2.6974,2.7471,2.8039,2.8157,2.7523,2.857,2.8762,2.759,2.8648,0.0,0.0,0.0,2.903,3.0389,2.9827,3.0147,3.1482,3.167,3.1784,3.1784,3.2038,3.2135,3.2191,3.2342,3.2398,3.2398,3.2398,3.2398,3.2398,3.2398,3.2398,3.2321,3.172,3.1136,3.0643,3.0871,0.0,0.0,3.2107,3.2696,3.338,3.3439,3.3225,3.3024,3.3159,3.2819,3.2352,3.2372,3.251,3.2645,3.2623,3.2737,3.2688,3.1974,3.2384,3.2702,3.2031,3.2478,3.3011,3.3073,3.3214,3.3322,3.3382,3.3411,3.314,3.2433,3.2252,3.1926,3.1202,3.0405,0.0,3.0192,2.8865,2.8037,2.8098,2.7604,2.7047,2.6458,2.6574,2.6594,2.6543,2.6603,2.7033,2.7785,2.7884,2.8025,2.8115,2.5118,2.4995,0.0,0.0,0.0,0.0,0.0,0.0,0.0,0.0,0.0,0.0,0.0,0.0,0.0,0.0,0.0,2.5714,2.6823,2.779,2.8579,2.8515,2.8298,2.8177,2.7683,2.7406,2.7523,2.759,2.7656,2.7523,2.7709,2.7776,2.7523,2.7776,2.7842,2.7723,2.7723,2.8338,2.969,2.9566,3.0147,3.1482,3.1539,0.0,3.1597,3.1769,3.1955,3.2053,3.2191,3.2287,3.2398,3.2398,3.2398,3.2398,3.2398,3.2398,3.2382,3.2244,3.2121,3.2013,3.2052,3.216,3.2233,3.2514,3.2618,3.2746,3.2988,3.3229,0.0,3.3424,3.3556,3.3606,3.3134,3.3033,3.2984,3.268,3.2639,3.2669,3.2656,3.2809,3.2862,3.2702,3.2809,3.2948,3.3011,3.3201,3.3292,3.334,3.3382,3.3339,3.3194,3.2596,3.2144,3.1981,3.1238,3.0776,3.0812,2.994,2.9204,2.876,2.8213,2.773,2.7291,2.7805,2.7858,2.738,2.7427,2.7542,2.7727,2.8427,2.9187,2.997,2.8746,2.8431,0.0,0.0,0.0,0.0,0.0,0.0,0.0,0.0,0.0,0.0,0.0,2.2519,2.313,0.0,2.587,2.7069,2.8284,2.8934,2.8556,2.8776,2.8776,2.8105,2.7723,2.7523,2.7523,2.7523,2.7523,2.7523,2.7798,2.7954,2.7954,2.8242,2.8399,2.8399,2.8783,2.9228,2.989,3.0266,3.0797,3.144,3.144,3.1471,3.1539,3.1727,3.1898,3.1996,3.215,3.2302,3.2398,3.2398,3.2398,3.2398,3.2398,3.2398,3.2398,3.2398,3.2398,3.2398,3.2398,3.26,3.2843,3.2946,3.3275,3.3647,3.3789,3.384,3.3845,3.3982,3.3953,3.3757,3.3671,3.3703,3.3731,3.3671,3.3353,3.314,3.3425,3.3105,3.277,3.2884,3.2916,3.2916,3.2948,3.306,3.3152,3.3183,3.3226,3.3256,3.3256,3.2913,3.2661,3.2661,3.1957,3.1516,3.1544,3.083,3.0311,3.01,2.9867,2.9539,2.9168,2.951,2.9618,2.9448,2.9474,2.9713,3.0151,3.0605,3.1109,3.1604,3.1729,3.1644,0.0,0.0,0.0,0.0,0.0,0.0,0.0,0.0,2.1255,2.2776,2.358,2.4349,2.5354,2.628,2.7277,2.8188,2.9195,2.9532,2.8481,2.8776,2.8698,2.7656,2.7523,2.7523,2.7523,2.7523,2.7575,2.7693,2.8124,2.8438,2.8556,2.9013,2.9274,2.9274,2.9867,3.0268,3.0487,3.1135,3.1525,3.178,3.178,3.1838,3.1913,3.1968,3.2095,3.2179,3.2252,3.2287,3.2398,3.2398,3.2398,3.2398,3.2398,3.2398,3.2398,3.2398,3.2398,3.2398,3.2398,3.2742,3.3134,3.324,3.3797,3.4448,3.4546,3.4421,3.4263,3.4543,3.4235,3.3888,3.414,3.4288,3.4415,3.4594,3.416,3.3829,3.4177,3.3661,3.3113,3.3152,3.3241,3.3241,3.2969,3.3073,3.319,3.3091,3.3086,3.3086,3.3086,3.3086,3.3086,3.3086,3.2577,3.2247,3.2288,3.1606,3.1284,3.1485,3.1338,3.1133,3.0951,3.0971,3.1129,3.1459,3.1455,3.183,3.2566,3.28,3.2924,3.2959,3.3955,3.408,1.8414,1.9015,1.9669,2.0345,2.0793,2.1825,0.0,0.0,2.4871,2.6635,2.7039,2.7124,2.7244,2.7412,2.7494,2.7591,2.7736,2.7776,2.7656,2.7656,2.7643,2.7523,2.7523,2.7523,2.7523,2.7523,2.7732,2.8242,2.8347,2.8608,2.9157,2.9248,2.9274,2.9274,2.9416,3.0006,3.1254,3.1387,3.2012,3.3257,3.3257,3.3274,3.326,3.284,3.2687,3.2846,3.2507,3.2398,3.2398,3.2398,3.2398,3.2398,3.2398,3.2398,3.2398,3.2398,3.2398,3.2398,3.2398,3.2453,3.2563,3.3134,3.3346,3.3555,3.4,3.4399,3.4624,3.4655,3.4855,3.4959,3.4635,3.4576,3.4531,3.4397,3.4471,3.4621,3.4765,3.487,3.4724,3.4097,3.449,3.4508,3.3148,3.3491,3.3755,3.3086,3.3055,3.3086,3.3086,3.3086,3.3086,3.3086,3.3014,3.2991,3.2991,3.229,3.1986,3.2183,3.1411,3.1099,3.1404,3.1304,3.1487,3.2012,3.2014,3.2184,3.2495,3.3287,3.3699,3.3786,3.4745,3.4824,2.0492,2.1106,2.1511,2.2439,2.3093,2.3932,2.5441,2.566,2.5862,2.7291,2.7569,2.7565,2.7561,2.786,2.8005,2.755,2.8143,2.839,2.759,2.7842,2.7908,2.7523,2.7824,2.7902,2.7562,2.7523,2.7771,2.8333,2.8712,2.9157,2.9745,3.0085,3.0281,3.0281,3.0679,3.1025,3.1168,3.2055,3.2543,3.2731,3.32,3.3469,3.3484,3.3397,3.3441,3.3691,3.3161,3.2982,3.2952,3.2552,3.2398,3.2398,3.2398,3.2398,3.2398,3.2398,3.2398,3.2398,3.2398,3.2523,3.2757,3.315,3.3398,3.3591,3.4,3.4201,3.4399,3.4643,3.4787,3.4941,3.4913,3.4964,3.503,3.5263,3.499,3.4782,3.5302,3.5153,3.4854,3.4587,3.4921,3.5007,3.4347,3.4526,3.4633,3.4327,3.3931,3.3516,3.3033,3.3391,3.3498,3.3015,3.3011,3.3042,3.3042,3.2798,3.2679,3.2762,3.2415,3.2343,3.2653,3.2619,3.2776,3.3208,3.3368,3.3535,3.3713,3.4244,3.4505,3.456,3.546,3.5745,2.1721,2.2479,2.3093,2.4099,2.4896,2.5555,2.5942,2.6162,2.6527,2.7384,2.7551,2.7523,2.7523,2.7908,2.8105,2.759,2.8325,2.8583,2.7656,2.7908,2.8039,2.759,2.7902,2.8046,2.7785,2.7771,2.8072,2.8804,2.9118,2.9601,3.0333,3.0764,3.1123,3.1334,3.1809,3.2015,3.1882,3.2932,3.3334,3.3111,3.3674,3.3977,3.4038,3.4059,3.4107,3.4118,3.379,3.3525,3.3367,3.2875,3.2567,3.2398,3.2398,3.2398,3.2398,3.2398,3.2398,3.2398,3.2398,3.2578,3.2827,3.3096,3.3346,3.3658,3.3899,3.405,3.4151,3.4448,3.4546,3.4643,3.4944,3.5038,3.5178,3.5705,3.5368,3.5045,3.574,3.5496,3.5194,3.5224,3.5528,3.5669,3.5258,3.5382,3.5471,3.5239,3.4936,3.4436,3.3633,3.3865,3.3794,3.3005,3.2948,3.2979,3.2979,3.3011,3.3024,3.3024,3.3055,3.316,3.3361,3.339,3.3542,3.3854,3.4123,3.4371,3.4542,3.5038,3.5306,3.5344,3.6235,3.6672,0.0,2.2766,2.4204,2.4792,2.5798,2.6621,2.6686,2.7066,2.7484,2.7497,2.751,2.7523,2.7523,2.7523,2.7523,2.7523,2.7523,2.7523,2.7523,2.7523,2.7523,2.7523,2.7549,2.7771,2.8307,2.8347,2.883,2.9993,2.9588,2.9771,3.0895,3.0973,3.1334,3.2015,3.2074,3.2777,3.4177,3.423,3.4677,3.5409,3.5409,3.5459,3.5415,3.4898,3.4423,3.3985,3.4118,3.3897,3.3398,3.3383,3.2982,3.2398,3.2398,3.2398,3.2398,3.2398,3.2398,3.2398,3.2398,3.2398,3.2453,3.2773,3.3096,3.3346,3.3642,3.3899,3.4101,3.4101,3.4101,3.4201,3.4594,3.4691,3.4787,3.5131,3.534,3.5576,3.6002,3.6215,3.6301,3.6106,3.6712,3.6805,3.5454,3.5846,3.6096,3.5328,3.5846,3.6042,3.5239,3.4543,3.3794,3.3005,3.2916,3.2916,3.2916,3.2916,3.2916,3.2916,3.2979,3.3028,3.3011,3.3073,3.3232,3.3514,3.377,3.4062,3.4401,3.5461,3.6039,3.6178,3.7052,3.7451,2.355,2.4504,2.5393,2.5955,2.6674,2.7236,2.7236,2.7392,2.7523,2.7523,2.7523,2.7523,2.7523,2.7523,2.7523,2.7523,2.785,2.8098,2.8098,2.8438,2.8686,2.8686,2.9026,2.9327,2.9523,2.883,2.8869,3.0045,2.9954,3.0176,3.0947,3.0986,3.1123,3.132,3.1408,3.1809,3.2847,3.3353,3.3973,3.4677,3.5279,3.5554,3.5638,3.5555,3.5503,3.5446,3.5201,3.4939,3.4752,3.4291,3.3983,3.3767,3.3767,3.3767,3.3721,3.3229,3.3367,3.3644,3.2721,3.2398,3.2508,3.2973,3.3112,3.315,3.3761,3.3899,3.3848,3.405,3.4101,3.4151,3.425,3.43,3.4399,3.4771,3.4897,3.5068,3.5436,3.5671,3.5788,3.5719,3.6331,3.6724,3.6274,3.6751,3.7095,3.6827,3.6114,3.5703,3.5971,3.5311,3.474,3.4454,3.4436,3.4436,3.4436,3.4436,3.4436,3.4436,3.447,3.447,3.447,3.4485,3.4584,3.4763,3.5006,3.5339,3.5647,3.6199,3.6587,3.6869,3.7761,3.8201,2.487,2.5537,2.6007,2.6791,2.7262,2.7523,2.7523,2.7523,2.7523,2.7523,2.7366,2.7288,2.7497,2.7196,2.7118,2.7732,2.7968,2.8229,2.8634,2.9039,2.9274,2.9274,2.9601,2.9915,3.0111,2.9457,2.9405,3.0372,3.0255,3.0385,3.096,3.0986,3.1123,3.1394,3.1607,3.2112,3.2847,3.3579,3.4218,3.4758,3.5279,3.5554,3.5653,3.5797,3.591,3.6117,3.583,3.5585,3.5445,3.5014,3.4691,3.4475,3.4475,3.4475,3.4414,3.3952,3.4075,3.4306,3.3152,3.2752,3.2807,3.3209,3.3177,3.315,3.3658,3.3848,3.3899,3.405,3.4101,3.4101,3.4101,3.4101,3.4151,3.4448,3.4497,3.4594,3.4961,3.5098,3.5311,3.5654,3.613,3.6563,3.6781,3.7129,3.7392,3.7484,3.654,3.599,3.6363,3.5883,3.542,3.5205,3.5204,3.5204,3.5204,3.5204,3.5204,3.5204,3.5135,3.5135,3.5221,3.5135,3.5187,3.5325,3.557,3.5866,3.6135,3.6749,3.7193,3.7455,3.8432,3.8897,2.5563,2.589,2.6177,2.7262,2.7523,2.7523,2.7523,2.7523,2.7523,2.7497,2.7027,2.6791,2.7301,2.6556,2.6399,2.802,2.7941,2.8046,2.917,2.9353,2.9366,2.9366,2.9366,2.9588,3.0163,3.0228,3.0464,3.1026,3.0542,3.0477,3.1039,3.1078,3.1426,3.2096,3.2705,3.3467,3.439,3.4984,3.5395,3.5549,3.5519,3.5504,3.5504,3.5504,3.5683,3.6037,3.6037,3.5875,3.5537,3.5537,3.5153,3.4568,3.4568,3.4568,3.4568,3.4537,3.4552,3.4475,3.3752,3.349,3.346,3.346,3.3419,3.3403,3.3356,3.3758,3.4149,3.4117,3.4101,3.4101,3.4101,3.4101,3.4101,3.4101,3.4101,3.4201,3.4594,3.4643,3.4913,3.582,3.6054,3.6266,3.6851,3.6987,3.7066,3.7259,3.7105,3.6861,3.6488,3.6291,3.5935,3.5383,3.5294,3.5294,3.5328,3.5294,3.5294,3.5328,3.5137,3.5102,3.5294,3.5102,3.512,3.5294,3.5531,3.576,3.5901,3.7124,3.7821,3.7973,3.9008,3.9483,2.6269,2.6765,2.717,2.7458,2.7523,2.7523,2.7523,2.7523,2.7406,2.6987,2.6438,2.5955,2.568,2.6073,2.6608,2.704,2.8438,2.9575,2.9876,3.0281,3.0555,3.0555,3.0555,3.0777,3.1276,3.1328,3.164,3.2215,3.1731,3.1653,3.2228,3.2254,3.2319,3.2539,3.3133,3.413,3.5603,3.6453,3.6633,3.6237,3.5744,3.5554,3.5638,3.5782,3.5973,3.6148,3.6289,3.6322,3.6245,3.6245,3.6138,3.5984,3.5984,3.5984,3.5922,3.5414,3.5537,3.5876,3.5183,3.4629,3.4257,3.4472,3.4519,3.4453,3.4371,3.4478,3.4539,3.4196,3.4101,3.4101,3.4101,3.4101,3.4101,3.4101,3.4101,3.4151,3.425,3.425,3.4333,3.4561,3.5157,3.583,3.6474,3.6794,3.7027,3.7066,3.6926,3.6856,3.7069,3.6882,3.6773,3.675,3.662,3.664,3.697,3.6843,3.6843,3.6988,3.6934,3.6879,3.6769,3.6732,3.6657,3.6526,3.6769,3.697,3.7234,3.7881,3.8394,3.8711,3.9133,3.9383,2.6896,2.7288,2.7523,2.7523,2.7523,2.7392,2.6896,2.6778,2.6478,2.538,2.4896,2.4504,2.3987,2.4766,2.5798,2.6556,2.819,2.9627,3.0398,3.079,3.0986,3.0986,3.1431,3.1862,3.2189,3.245,3.2842,3.3404,3.2672,3.2463,3.3051,3.3091,3.3195,3.343,3.4018,3.5116,3.6824,3.7404,3.743,3.6881,3.6588,3.6225,3.5688,3.5894,3.6085,3.6211,3.6336,3.6414,3.6492,3.6492,3.6492,3.6492,3.6492,3.6492,3.6445,3.6061,3.6168,3.6445,3.6061,3.5676,3.5367,3.5236,3.5043,3.4888,3.5015,3.5122,3.5203,3.5082,3.5072,3.4991,3.4667,3.4813,3.4975,3.4651,3.4829,3.5072,3.5072,3.4813,3.4574,3.4578,3.5144,3.5776,3.6266,3.6533,3.6731,3.6829,3.6667,3.6667,3.7005,3.6926,3.6965,3.7143,3.7066,3.7087,3.7317,3.7203,3.722,3.7317,3.7241,3.7182,3.7182,3.7066,3.7044,3.6987,3.7105,3.7241,3.7374,3.7913,3.8346,3.8597,3.8998,3.9219,2.7392,2.7523,2.7523,2.7523,2.7523,2.7236,2.6086,2.5759,2.521,2.3459,2.2975,2.2727,2.2284,2.3158,2.4557,2.6282,2.7654,2.9078,3.0751,3.1052,3.1104,3.1104,3.211,3.2842,3.2908,3.347,3.4045,3.458,3.3705,3.3339,3.3796,3.3888,3.4258,3.4879,3.5417,3.6488,3.8183,3.8251,3.8106,3.7878,3.794,3.7315,3.6144,3.6368,3.6389,3.6333,3.6333,3.6428,3.6492,3.6492,3.6492,3.6492,3.6492,3.6492,3.6492,3.6492,3.6492,3.6492,3.6492,3.6492,3.6384,3.5814,3.5437,3.5274,3.5496,3.5745,3.6059,3.6212,3.6303,3.6157,3.5493,3.5817,3.6141,3.5493,3.5833,3.6303,3.6303,3.5785,3.5342,3.5376,3.5648,3.5994,3.6242,3.6311,3.6422,3.662,3.6444,3.6385,3.6602,3.6643,3.6725,3.6948,3.6948,3.693,3.697,3.6987,3.6987,3.6987,3.6846,3.6806,3.6948,3.6806,3.6766,3.6891,3.6948,3.6948,3.6948,3.7542,3.7929,3.8101,3.8646,3.896,2.7497,2.7523,2.7523,2.7523,2.7523,2.7236,2.6086,2.5458,0.0,2.2926,2.1812,2.1118,2.1013,2.2283,2.3942,2.568,2.7745,2.9562,3.0803,3.1392,3.1692,3.1692,3.2725,3.3613,3.4058,3.4646,3.5221,3.577,3.5626,3.5365,3.5012,3.543,3.6273,3.7623,3.7831,3.8725,4.0458,3.9888,3.9809,4.0148,3.9606,3.9152,3.8666,3.8733,3.8188,3.7244,3.7244,3.6999,3.6492,3.6492,3.6492,3.6492,3.6492,3.6492,3.6492,3.6492,3.6492,3.6492,3.6492,3.6492,3.6476,3.6353,3.6642,3.69,3.6348,3.663,3.6961,3.6465,3.6303,3.627,3.6141,3.6206,3.627,3.6141,3.6206,3.6303,3.6303,3.6206,3.6129,3.6088,3.6385,3.6555,3.634,3.6502,3.6659,3.6404,3.6343,3.6301,3.6343,3.636,3.6444,3.6725,3.6527,3.6591,3.6987,3.6846,3.6806,3.6987,3.6987,3.6869,3.6783,3.6702,3.6602,3.6426,3.6626,3.6725,3.6725,3.7243,3.765,3.7946,3.8277,3.8597,2.7523,2.7523,2.7523,2.7523,2.7523,2.7079,2.5328,0.0,0.0,2.1041,2.0374,2.0035,1.9433,2.1211,2.3145,2.4282,2.6164,2.8098,2.9849,3.0594,3.1182,3.1694,3.313,3.4241,3.4816,3.5378,3.5953,3.6528,3.6567,3.6462,3.6201,3.6724,3.7348,3.8149,3.8163,3.9005,4.0755,4.0442,4.0633,4.1188,4.0857,4.0395,3.9788,3.9421,3.8968,3.8539,3.8185,3.7646,3.7015,3.7015,3.6799,3.6492,3.6492,3.6492,3.6492,3.6492,3.6492,3.6492,3.6492,3.6492,3.6492,3.6492,3.6723,3.6951,3.692,3.7102,3.7326,3.7374,3.7388,3.7307,3.6934,3.7112,3.7307,3.6918,3.7112,3.729,3.6918,3.6837,3.6778,3.6584,3.6694,3.6819,3.6885,3.7202,3.7364,3.7188,3.7033,3.6904,3.6904,3.6559,3.636,3.6502,3.6402,3.6385,3.6591,3.6527,3.6527,3.6632,3.665,3.6609,3.6502,3.6502,3.6444,3.6301,3.6444,3.6502,3.6502,3.6935,3.7228,3.7452,3.7995,3.8392,2.7523,2.7523,2.7523,2.7523,2.7432,2.6778,2.4609,2.3459,0.0,1.9447,1.9198,1.9198,1.8414,2.0309,2.2309,0.0,2.4766,2.6634,2.8948,2.998,3.0807,3.1901,3.3629,3.4945,3.5417,3.6042,3.6608,3.7214,3.7295,3.7284,3.7194,3.7639,3.7992,3.8148,3.7992,3.8742,4.0589,4.0418,4.0684,4.1498,4.1667,4.137,4.0572,4.006,3.9811,3.9625,3.9016,3.8338,3.7707,3.7569,3.7184,3.6692,3.6553,3.6492,3.6492,3.6492,3.6492,3.6492,3.6492,3.6492,3.6492,3.6492,3.6554,3.6677,3.7194,3.7417,3.7594,3.8148,3.8335,3.8278,3.7695,3.797,3.8262,3.7679,3.7987,3.8246,3.7679,3.7549,3.7426,3.72,3.7137,3.7209,3.7469,3.7833,3.8072,3.8014,3.7871,3.7732,3.7732,3.7042,3.6559,3.6559,3.6404,3.6301,3.6301,3.6301,3.6301,3.6301,3.6301,3.6301,3.6301,3.6301,3.6301,3.6301,3.6301,3.6301,3.6301,3.6597,3.686,3.6981,3.7649,3.8029,2.7523,2.7523,2.7523,2.7523,2.7131,2.6282,2.4517,0.0,2.1146,1.929,1.8558,1.8375,1.8767,1.9917,2.1577,2.3681,0.0,2.6634,2.8948,3.066,3.1914,3.2542,3.4466,3.5801,3.5867,3.6726,3.7574,3.8195,3.8394,3.8264,3.7821,3.7874,3.8226,3.9046,3.8304,3.8742,4.0589,3.9724,3.9917,4.0983,4.184,4.1974,4.1488,4.182,4.1331,4.0139,3.9588,3.9046,3.8369,3.7754,3.7461,3.7353,3.6738,3.6492,3.6492,3.6492,3.6492,3.6492,3.6492,3.6492,3.6492,3.6492,3.6693,3.6938,3.6999,3.7449,3.7886,3.7943,3.8148,3.8375,3.8327,3.8359,3.8375,3.8327,3.8359,3.8375,3.8311,3.8311,3.8278,3.827,3.8253,3.8137,3.7883,3.8184,3.8354,3.8051,3.83,3.8491,3.8491,3.7836,3.737,3.737,3.6732,3.6301,3.6301,3.6301,3.6301,3.6301,3.6301,3.6301,3.6301,3.6301,3.6301,3.6301,3.6301,3.6301,3.6301,3.6343,3.6557,3.69,3.6978,3.7414,2.734,2.7523,2.7523,2.7523,2.7105,2.6125,2.4047,2.2505,2.0923,1.8845,1.8244,1.8257,1.8806,1.9577,2.078,0.0,2.3446,2.4557,2.687,2.8673,3.0228,3.1509,3.3595,3.5179,3.5801,3.6488,3.7034,3.7383,3.7491,3.7347,3.6815,3.7766,3.833,3.8395,3.833,3.8742,3.9724,3.9637,4.0404,4.1903,4.2452,4.2768,4.2819,4.248,4.1847,4.0999,4.0363,3.9508,3.8492,3.8215,3.7631,3.6861,3.6599,3.6492,3.6492,3.6492,3.6492,3.6492,3.6492,3.6492,3.6492,3.6492,3.6616,3.6739,3.715,3.7329,3.7449,3.8033,3.8148,3.8148,3.8335,3.8391,3.8391,3.8391,3.8391,3.8391,3.8391,3.8391,3.8391,3.8391,3.8391,3.8407,3.8537,3.8685,3.8954,3.934,3.9092,3.8973,3.9204,3.8612,3.8146,3.8146,3.7042,3.6301,3.6301,3.6301,3.6301,3.6301,3.6301,3.6301,3.6301,3.6301,3.6301,3.6301,3.6301,3.6301,3.6301,3.6301,3.6367,3.6516,3.6781,3.732,2.7131,2.7525,2.7669,2.7669,2.704,2.5863,2.3707,2.2204,2.0662,1.8532,1.81,1.8257,1.8806,1.9251,2.01,0.0,2.2297,2.3237,2.572,2.7562,2.9287,3.1026,3.2855,3.4326,3.5504,3.647,3.7016,3.7118,3.7138,3.7061,3.6704,3.7779,3.8238,3.7639,3.7989,3.8312,3.8792,3.9149,4.0073,4.1656,4.1907,4.2416,4.297,4.2282,4.1786,4.1469,4.0762,3.9985,3.9093,3.8893,3.8123,3.7076,3.6861,3.6661,3.6492,3.6492,3.6492,3.6492,3.6492,3.6492,3.6492,3.6492,3.6492,3.6616,3.7134,3.721,3.7285,3.8033,3.8148,3.8075,3.8335,3.8391,3.8391,3.8391,3.8391,3.8391,3.8391,3.8391,3.8391,3.8391,3.8391,3.8504,3.8914,3.9115,3.9435,4.0188,3.9829,3.9569,3.9856,3.9203,3.874,3.874,3.7705,3.6887,3.6663,3.6646,3.6542,3.6318,3.6301,3.6301,3.6301,3.6301,3.6301,3.6301,3.6301,3.6422,3.6646,3.6646,3.6646,3.6663,3.7189,3.7901,2.7013,2.7626,2.8079,2.8079,2.6944,2.5367,2.3616,2.189,2.0227,1.8453,1.81,1.8257,1.8806,1.8911,1.9486,2.1237,2.1995,2.3424,2.6255,2.8164,2.9902,3.1627,3.2722,3.3697,3.4787,3.6716,3.7906,3.7906,3.7978,3.8062,3.8062,3.8075,3.7772,3.6998,3.7011,3.7299,3.79,3.79,3.8485,3.9549,3.9774,4.0555,4.1568,4.1366,4.1224,4.1179,4.0662,4.0524,4.0462,3.9785,3.9108,3.8415,3.7754,3.7076,3.6492,3.6492,3.6492,3.6492,3.6492,3.6492,3.6492,3.6492,3.6492,3.6554,3.6877,3.721,3.7476,3.7828,3.8132,3.8408,3.8391,3.8391,3.8391,3.8391,3.8391,3.8391,3.8391,3.8391,3.8391,3.8391,3.8391,3.8504,3.8914,3.9312,3.9765,4.0238,4.0288,4.0288,4.0288,3.9608,3.9067,3.9067,3.878,3.8267,3.7542,3.7473,3.7129,3.6353,3.6301,3.6301,3.6301,3.6301,3.6301,3.6301,3.6301,3.668,3.7473,3.7473,3.7473,3.7491,3.8215,3.9224,2.4221,2.4616,2.4669,2.4313,2.3861,2.3001,2.1276,2.0466,1.9577,1.7839,1.7486,1.7656,1.8244,1.8349,1.9303,2.2204,2.2831,0.0,2.6857,2.9029,3.0626,3.158,3.39,3.5631,3.6281,3.6892,3.7209,3.6906,3.6927,3.6782,3.6443,3.6443,3.6727,3.723,3.8006,3.8418,3.8269,3.8929,3.9745,4.0444,4.0879,4.1232,4.1589,4.1541,4.1223,4.0677,4.0547,4.0262,3.9816,3.9616,3.8846,3.78,3.7584,3.7092,3.6492,3.6492,3.6492,3.6492,3.6492,3.6492,3.6492,3.6492,3.6492,3.6554,3.6877,3.706,3.721,3.777,3.8132,3.8391,3.8391,3.8391,3.8391,3.8391,3.8391,3.8391,3.8391,3.8391,3.8391,3.8391,3.8391,3.8504,3.8914,3.9131,3.9435,4.0188,4.0305,4.0305,4.0305,4.0329,4.0206,3.9931,4.0065,3.9629,3.8353,3.816,3.7833,3.7163,3.7507,3.7558,3.7129,3.7111,3.7353,3.7853,3.737,3.7473,3.8232,3.8232,3.8232,3.8249,3.9008,3.9745,0.0,2.2892,2.2984,2.2655,2.2325,2.1642,2.0152,1.963,1.9028,1.7512,1.7199,1.7382,1.7996,1.827,1.9284,2.1983,2.2847,2.421,2.7141,2.9238,3.0967,3.2374,3.4585,3.6189,3.6409,3.6774,3.6915,3.6615,3.6628,3.6536,3.6191,3.6191,3.6534,3.7209,3.7826,3.8095,3.7984,3.8725,3.9518,4.0546,4.0625,4.0979,4.1586,4.1324,4.0955,4.0524,4.0524,4.0293,0.0,3.9893,3.9262,3.8262,3.8262,3.7692,3.6876,3.6876,3.6707,3.6492,3.6492,3.6492,3.6492,3.6492,3.6492,3.6554,3.7044,3.7225,3.7389,3.777,3.8132,3.8391,3.8391,3.8391,3.8391,3.8391,3.8391,3.8391,3.8391,3.8391,3.8391,3.8391,3.8391,3.8504,3.8914,3.9023,3.9239,3.9901,3.9918,3.9816,3.9816,4.002,4.0121,3.9969,4.032,4.0237,3.9387,3.9044,3.8608,3.7956,3.8246,3.8298,3.7922,3.7861,3.804,3.8504,3.804,3.8178,3.8917,3.9008,3.9163,3.9457,3.9629,4.0037,0.0,2.2097,2.255,2.251,2.1851,2.0976,1.9865,1.9211,0.0,1.7421,1.7199,1.7408,1.8087,1.8597,1.9495,2.1126,2.2537,2.4495,2.7453,2.9255,3.1191,3.3873,3.5022,3.5598,3.5598,3.6409,3.6978,3.6978,3.7021,3.7049,3.7049,3.7049,3.7049,3.7049,3.6754,3.6905,3.7419,3.7504,3.8379,3.9973,3.9412,3.9951,4.1509,4.0832,4.0524,4.0524,4.0524,4.0524,4.0524,4.0524,4.0124,3.9524,3.9524,3.8723,3.7569,3.7523,3.7107,3.6553,3.6507,3.6492,3.6492,3.6492,3.6492,3.66,3.7178,3.7594,3.7886,3.7943,3.8148,3.8391,3.8391,3.8391,3.8391,3.8391,3.8391,3.8391,3.8391,3.8391,3.8391,3.8391,3.8391,3.8504,3.886,3.8969,3.9115,3.9506,3.9259,3.9023,3.9023,3.9023,3.9115,3.9382,3.9799,4.0171,4.0485,4.001,3.9411,3.8715,3.8687,3.8687,3.8681,3.8545,3.8534,3.8585,3.843,3.8819,3.9598,3.9738,4.0164,4.0853,4.0129,4.0181,1.8149,0.0,1.914,1.8666,1.8708,1.8715,0.0,1.8061,1.8074,0.0,0.0,1.7643,1.9133,1.9331,2.0407,2.3843,2.5311,2.6891,2.9321,3.1894,3.4176,3.6066,3.6529,3.6612,3.6612,3.6894,3.6978,3.6978,3.7428,3.7681,3.7681,3.7681,3.7681,3.7681,3.7214,3.7167,3.778,3.871,3.9334,3.9795,4.0049,4.039,4.077,4.0601,4.0524,4.0524,4.0524,4.0524,4.0524,4.0524,4.0124,3.9524,3.9524,3.9016,3.82,3.7692,3.74,3.7184,3.6676,3.6492,3.6492,3.6492,3.6492,3.6554,3.6984,3.727,3.7594,3.8148,3.8335,3.8391,3.8391,3.8391,3.8391,3.8391,3.8391,3.8391,3.8391,3.8391,3.8391,3.8391,3.8391,3.8448,3.8504,3.8821,3.9023,3.9115,3.9312,3.9365,3.9023,3.9259,3.9365,3.9131,3.947,3.9885,4.0288,4.0234,3.9904,3.9247,3.9648,3.9699,3.923,3.9225,3.9547,4.0147,4.0242,4.0375,4.0548,4.0595,4.0698,4.0888,4.0698,4.0698,1.7133,1.7813,1.8388,1.8061,1.8231,1.8388,1.8048,0.0,0.0,0.0,0.0,0.0,1.9318,2.0274,2.1799,2.4991,2.6734,2.8675,3.15,3.3619,3.5376,3.6838,3.6978,3.6978,3.6978,3.6978,3.7091,3.7386,3.7723,3.8032,3.8327,3.806,3.7906,3.7906,3.7302,3.7147,3.747,3.839,3.8998,3.9298,3.9832,4.0246,4.0524,4.0524,4.0524,4.0524,4.0524,4.0524,4.0524,4.0524,4.0309,3.9985,3.9985,3.957,3.8893,3.8215,3.7769,3.74,3.6722,3.6492,3.6492,3.6492,3.6492,3.6554,3.6877,3.721,3.7535,3.8017,3.8148,3.8205,3.8335,3.8391,3.8391,3.8391,3.8391,3.8391,3.8391,3.8391,3.8391,3.8391,3.8391,3.8391,3.8391,3.856,3.8711,3.8711,3.8914,3.8952,3.8766,3.8898,3.9007,3.8914,3.9098,3.9365,3.9747,3.9935,4.0018,4.0018,4.0263,4.0266,3.9904,3.987,4.0058,4.0436,4.0551,4.0631,4.0728,4.0793,4.084,4.0888,4.0888,4.0888,1.716,1.8275,1.9127,1.8773,1.8891,1.9035,1.8865,0.0,0.0,0.0,0.0,0.0,0.0,2.1618,0.0,2.5814,2.7844,3.028,3.3453,3.4752,3.5714,3.6852,3.6978,3.6978,3.6978,3.6978,3.7245,3.785,3.799,3.8327,3.8974,3.8482,3.8145,3.8046,3.7442,3.7077,3.6978,3.7658,3.8263,3.8782,3.9451,4.0036,4.0524,4.0524,4.0524,4.0524,4.0524,4.0524,4.0524,4.0524,4.0524,4.0524,4.0524,4.017,3.9585,3.8908,3.8231,3.7538,3.6769,3.6492,3.6492,3.6492,3.6492,3.6554,3.6877,3.7165,3.7417,3.777,3.7943,3.8017,3.8335,3.8391,3.8391,3.8391,3.8391,3.8391,3.8391,3.8391,3.8391,3.8391,3.8391,3.8391,3.8391,3.8391,3.8391,3.8391,3.8391,3.8391,3.8391,3.8391,3.8504,3.8694,3.875,3.886,3.9152,3.9382,3.9816,4.0551,4.0485,4.0485,4.0485,4.0387,4.0288,4.0221,4.0337,4.0436,4.0583,4.0697,4.0793,4.0888,4.0888,4.0888,1.7682,1.9318,2.0287,1.8246,1.887,1.9721,0.0,0.0,0.0,0.0,0.0,0.0,0.0,2.4231,2.5855,2.816,3.0359,3.2541,3.4657,3.5545,3.6192,3.6908,3.6978,3.6978,3.6978,3.6978,3.7245,3.785,3.8412,3.8988,3.9606,3.955,3.9255,3.8735,3.8102,3.7512,3.6978,3.8113,3.8708,3.8782,3.9879,4.0385,4.0524,4.0524,4.0524,4.0524,4.0524,4.0524,4.0524,4.0524,4.0524,4.0524,4.0524,4.0462,4.0293,3.9616,3.8939,3.8185,3.6923,3.6492,3.6492,3.6492,3.6492,3.6554,3.6877,3.6999,3.7165,3.7711,3.8075,3.8335,3.8408,3.8391,3.8391,3.8391,3.8391,3.8391,3.8391,3.8391,3.8391,3.8391,3.8391,3.8391,3.8391,3.8391,3.8391,3.8391,3.8391,3.8391,3.8391,3.8391,3.8391,3.8448,3.8448,3.86,3.9023,3.8717,3.8936,3.9935,4.0087,4.0271,4.0485,4.0485,4.0583,4.0776,4.0776,4.084,4.084,4.0888,4.0888,4.0888,4.0888,4.0888,1.7289,1.8842,2.0065,1.9089,2.0373,2.1839,0.0,0.0,0.0,0.0,0.0,0.0,0.0,0.0,2.7813,3.0842,3.2485,3.3803,3.5071,3.5479,3.5686,3.5953,3.629,3.6487,3.6487,3.6796,3.7245,3.785,3.8496,3.9128,3.9746,3.9788,3.9493,3.8889,3.8243,3.7611,3.6993,3.7886,3.8486,3.8782,3.9666,4.0246,4.0524,4.0524,4.0524,4.0524,4.0524,4.0524,4.0524,4.0524,4.0524,4.0524,4.0524,4.0524,4.0447,3.977,3.8862,3.7923,3.7677,3.7338,3.703,3.703,3.703,3.7032,3.7002,3.7105,3.7314,3.777,3.8017,3.8205,3.8335,3.8391,3.8391,3.8391,3.8391,3.8391,3.8391,3.8391,3.8391,3.8391,3.8391,3.8391,3.8391,3.8391,3.8391,3.8391,3.8391,3.8391,3.8391,3.8391,3.8391,3.8391,3.8391,3.8448,3.8655,3.8639,3.8843,3.9487,3.9867,4.0188,4.0288,4.0271,4.032,4.0485,4.0534,4.0631,4.068,4.0745,4.084,4.0888,4.0888,4.0888,1.718,1.8384,1.9625,2.0182,0.0,2.2937,2.3876,0.0,0.0,0.0,0.0,0.0,0.0,2.7575,2.9673,3.2806,3.3845,3.4393,3.4871,3.5142,3.5226,3.5226,3.5648,3.5911,3.6065,3.6501,3.7091,3.7835,3.8369,3.8917,3.9535,3.9564,3.9283,3.8664,3.8319,3.7833,3.7211,3.7658,3.8188,3.8782,3.9379,3.9965,4.0524,4.0524,4.0524,4.0524,4.0524,4.0524,4.0524,4.0524,4.0524,4.0524,4.0524,4.0524,4.0447,3.977,3.8862,3.8,3.82,3.8046,3.7692,3.7369,3.7477,3.7648,3.7141,3.7335,3.7682,3.7876,3.7943,3.8075,3.8335,3.8391,3.8391,3.8391,3.8391,3.8391,3.8391,3.8391,3.8391,3.8391,3.8391,3.8391,3.8391,3.8391,3.8391,3.8391,3.8391,3.8391,3.8391,3.8391,3.8391,3.8391,3.8391,3.8391,3.8278,3.8583,3.8843,3.899,3.9575,3.9952,3.9952,4.007,4.0188,4.0171,4.0288,4.0387,4.0485,4.0648,4.0745,4.0823,4.0888,4.0888,1.8058,1.8836,1.9484,2.0928,0.0,0.0,2.3312,2.3188,0.0,0.0,0.0,0.0,0.0,2.9792,3.1682,3.3087,3.3845,3.4253,3.4295,3.4801,3.5226,3.5226,3.5268,3.5508,3.6023,3.6107,3.6627,3.7807,3.7934,3.8257,3.8903,3.8931,3.8636,3.799,3.846,3.8443,3.781,3.7886,3.8188,3.8782,3.9379,3.9965,4.0524,4.0524,4.0524,4.0524,4.0524,4.0524,4.0524,4.0524,4.0524,4.0524,4.0524,4.0524,4.0447,3.977,3.9462,3.92,3.8,3.7954,3.8231,3.6969,3.7415,3.8265,3.7281,3.7604,3.8299,3.8003,3.8132,3.8391,3.8391,3.8391,3.8391,3.8391,3.8391,3.8391,3.8391,3.8391,3.8391,3.8391,3.8391,3.8391,3.8391,3.8391,3.8391,3.8391,3.8391,3.8391,3.8391,3.8391,3.8391,3.8391,3.8391,3.8262,3.7943,3.8455,3.8678,3.8383,3.9065,3.9437,3.9437,4.0003,4.0337,4.0485,4.0485,4.0485,4.0485,4.0648,4.0697,4.0697,4.084,4.0888,1.7579,1.8851,2.0243,2.1541,0.0,0.0,0.0,0.0,0.0,2.8469,2.9457,0.0,0.0,3.125,3.2328,3.3185,3.3845,3.4167,3.4167,3.4436,3.4436,3.4056,3.4351,3.4674,3.4913,3.5278,3.5686,3.6164,3.6908,3.7442,3.7681,3.844,3.8566,3.792,3.8525,3.852,3.7901,3.8263,3.8782,3.9379,3.9235,3.9595,4.0524,4.0524,4.0524,4.0524,4.0524,4.0524,4.0524,4.0524,4.0524,4.0524,4.0524,4.0524,4.0493,4.0247,3.9878,3.9508,3.9416,3.9277,3.9046,3.8539,3.8431,3.8388,3.8013,3.7834,3.7809,3.8155,3.8278,3.8391,3.8391,3.8391,3.8391,3.8391,3.8391,3.8391,3.8391,3.8391,3.8391,3.8391,3.8391,3.8391,3.8391,3.8391,3.8391,3.8391,3.8391,3.8391,3.8391,3.8391,3.8391,3.8391,3.8391,3.8335,3.8205,3.8246,3.8173,3.8042,3.9098,3.9592,3.9295,4.0003,4.0337,4.0138,4.0436,4.0631,4.0631,4.0745,4.084,4.084,4.0888,4.0888,1.7619,1.8847,2.0385,0.0,0.0,0.0,0.0,0.0,0.0,3.0417,3.1176,3.1612,3.2005,3.2089,3.2384,3.3185,3.3677,3.3958,3.3958,3.3958,3.3789,3.3368,3.3691,3.4028,3.4139,3.4618,3.4941,3.5212,3.5939,3.6487,3.6683,3.7512,3.7943,3.7926,3.8457,3.8699,3.8486,3.8855,3.9379,3.9965,3.9379,3.9595,4.0524,4.0524,4.0524,4.0524,4.0524,4.0524,4.0524,4.0524,4.0524,4.0524,4.0524,4.0524,4.0524,4.0524,4.0232,3.9878,4.0124,4.0047,3.9724,3.9226,3.8912,3.8747,3.8353,3.7998,3.7821,3.827,3.8391,3.8391,3.8391,3.8391,3.8391,3.8391,3.8391,3.8391,3.8391,3.8391,3.8391,3.8391,3.8391,3.8391,3.8391,3.8391,3.8391,3.8391,3.8391,3.8391,3.8391,3.8391,3.8391,3.8391,3.8391,3.8391,3.8391,3.8075,3.7943,3.8075,3.8952,3.9259,3.8936,3.9799,4.0188,3.9901,4.0404,4.0648,4.0648,4.0793,4.084,4.084,4.0888,4.0888,1.8425,1.8941,1.9824,0.0,0.0,0.0,0.0,0.0,0.0,3.0726,3.1485,3.1864,3.3073,3.2328,3.1907,3.3115,3.3326,3.3326,3.3326,3.3326,3.3326,3.3326,3.3326,3.355,3.4169,3.4153,3.4478,3.5156,3.5212,3.5494,3.6023,3.6065,3.6651,3.7857,3.8486,3.909,3.9696,3.9681,3.9965,4.0455,3.9965,3.9965,4.0524,4.0524,4.0524,4.0524,4.0524,4.0524,4.0524,4.0524,4.0524,4.0524,4.0524,4.0524,4.0524,4.0524,4.0524,4.0432,3.9754,3.9955,4.0254,3.8541,3.866,3.9307,3.8229,3.813,3.8423,3.8415,3.8391,3.8391,3.8391,3.8391,3.8391,3.8391,3.8391,3.8391,3.8391,3.8391,3.8391,3.8391,3.8391,3.8391,3.8391,3.8391,3.8391,3.8391,3.8391,3.8391,3.8391,3.8391,3.8391,3.8391,3.8391,3.8391,3.8391,3.8075,3.8075,3.8391,3.8439,3.8463,3.8327,3.9345,3.9901,3.9901,4.0288,4.0485,4.0517,4.0648,4.0697,4.0697,4.084,4.0888,1.7644,1.9461,0.0,0.0,0.0,0.0,0.0,0.0,0.0,0.0,3.1836,3.2117,3.2047,3.244,3.275,3.2693,3.3031,3.3326,3.3326,3.3326,3.3326,3.3326,3.3326,3.3396,3.3578,3.3593,3.3663,3.3845,3.466,3.531,3.5494,3.6248,3.709,3.7886,3.8486,3.8855,3.909,3.9879,4.0176,3.9965,4.0176,4.0316,4.0524,4.0524,4.0524,4.0524,4.0524,4.0524,4.0524,4.0524,4.0524,4.0524,4.0524,4.0524,4.0524,4.0524,4.0524,4.0493,4.0293,4.0168,4.0044,3.9554,3.9107,3.8701,3.8635,3.8355,3.8099,3.8327,3.8391,3.8391,3.8391,3.8391,3.8391,3.8391,3.8391,3.8391,3.8391,3.8391,3.8391,3.8391,3.8391,3.8391,3.8391,3.8391,3.8391,3.8391,3.8391,3.8391,3.8391,3.8391,3.8391,3.8391,3.8391,3.8391,3.8391,3.8335,3.8278,3.8391,3.8432,3.8432,3.8375,3.9206,3.9679,3.9679,4.0121,4.0485,4.0776,4.084,4.084,4.084,4.0888,4.0888,1.8446,0.0,0.0,0.0,0.0,2.7692,2.8802,0.0,0.0,0.0,3.1401,3.1696,3.1836,3.2258,3.2623,3.275,3.3073,3.3326,3.3326,3.3326,3.3326,3.3326,3.3326,3.3326,3.3326,3.3326,3.3326,3.3326,3.4014,3.4646,3.5198,3.5855,3.6779,3.7872,3.8263,3.8634,3.9162,3.9809,4.0106,4.0036,4.0316,4.0524,4.0524,4.0524,4.0524,4.0524,4.0524,4.0524,4.0524,4.0524,4.0524,4.0524,4.0524,4.0524,4.0524,4.0524,4.0524,4.0493,4.0232,4.005,3.9932,3.9515,3.8952,3.8457,3.8606,3.8354,3.7943,3.8335,3.8391,3.8391,3.8391,3.8391,3.8391,3.8391,3.8391,3.8391,3.8391,3.8391,3.8391,3.8391,3.8391,3.8391,3.8391,3.8391,3.8391,3.8391,3.8391,3.8391,3.8391,3.8391,3.8391,3.8391,3.8391,3.8391,3.8391,3.8278,3.8262,3.8391,3.8278,3.8262,3.8391,3.9007,3.9365,3.9365,3.9969,4.0404,4.0631,4.0823,4.0888,4.0888,4.0888,4.0888,2.0119,0.0,0.0,0.0,2.6891,0.0,2.9209,3.0038,3.0445,3.0445,3.0488,3.0881,3.2019,3.1822,3.1878,3.3045,3.3241,3.3255,3.3312,3.3326,3.3326,3.3326,3.3326,3.3326,3.3326,3.3326,3.3326,3.3326,3.3368,3.3888,3.5085,3.5198,3.5985,3.7757,3.78,3.8428,3.961,3.9681,3.9965,4.0455,4.0455,4.0524,4.0524,4.0524,4.0524,4.0524,4.0524,4.0524,4.0524,4.0524,4.0524,4.0524,4.0524,4.0524,4.0524,4.0524,4.0493,4.0355,3.9739,3.9699,3.97,3.8747,3.8412,3.842,3.8415,3.8205,3.8017,3.8335,3.8391,3.8391,3.8391,3.8391,3.8391,3.8391,3.8391,3.8391,3.8391,3.8391,3.8391,3.8391,3.8391,3.8391,3.8391,3.8391,3.8391,3.8391,3.8391,3.8391,3.8391,3.8391,3.8391,3.8391,3.8391,3.8391,3.8391,3.8132,3.8075,3.8391,3.8132,3.8075,3.8408,3.8766,3.8969,3.9023,3.9764,4.0188,4.0305,4.0631,4.0823,4.0888,4.0871,4.0871,0.0,2.1138,0.0,0.0,2.7565,2.9111,2.9518,2.9715,2.9799,2.9799,3.0193,3.06,3.0881,3.1232,3.1738,3.2483,3.2595,3.2778,3.3255,3.3326,3.3326,3.3326,3.3326,3.3326,3.3326,3.3326,3.3326,3.3326,3.3775,3.4155,3.4421,3.4885,3.5787,3.7123,3.7226,3.7754,3.9002,3.9451,3.9753,3.9895,4.0316,4.0524,4.0524,4.0524,4.0524,4.0524,4.0524,4.0524,4.0524,4.0524,4.0524,4.0524,4.0524,4.0524,4.0524,4.0524,4.0185,3.9708,3.957,3.9194,3.8731,3.8478,3.8396,3.8415,3.8383,3.8335,3.8335,3.8391,3.8391,3.8391,3.8391,3.8391,3.8391,3.8391,3.8391,3.8391,3.8391,3.8391,3.8391,3.8391,3.8391,3.8391,3.8391,3.8391,3.8391,3.8391,3.8391,3.8391,3.8391,3.8391,3.8391,3.8391,3.8391,3.8391,3.8391,3.8335,3.8335,3.8408,3.8335,3.8335,3.8391,3.8504,3.8655,3.8969,3.9185,3.9609,4.0305,4.0003,4.0237,4.0871,4.0583,4.0583,0.0,0.0,0.0,2.6145,0.0,2.9237,2.9532,2.9602,2.9602,2.9602,2.9855,3.0178,3.0474,3.0797,3.1232,3.1864,3.1963,3.2188,3.2792,3.289,3.3002,3.3297,3.3326,3.3326,3.3326,3.3326,3.3326,3.3326,3.3621,3.393,3.4139,3.4548,3.5145,3.6122,3.6137,3.6865,3.8296,3.8671,3.9208,4.0106,4.0385,4.0524,4.0524,4.0524,4.0524,4.0524,4.0524,4.0524,4.0524,4.0524,4.0524,4.0524,4.0524,4.0524,4.0493,4.017,3.9816,3.9431,3.8785,3.8447,3.8336,3.8004,3.8147,3.8391,3.8391,3.8391,3.8391,3.8391,3.8391,3.8391,3.8391,3.8391,3.8391,3.8391,3.8391,3.8391,3.8391,3.8391,3.8391,3.8391,3.8391,3.8391,3.8391,3.8391,3.8391,3.8391,3.8391,3.8391,3.8391,3.8391,3.8391,3.8391,3.8391,3.8391,3.8391,3.8391,3.8391,3.8391,3.8391,3.8391,3.8391,3.8391,3.8504,3.8711,3.8914,3.9329,3.9952,3.9952,4.0254,4.0871,4.068,4.068,0.0,0.0,0.0,2.675,2.8071,0.0,2.9336,2.9532,2.9602,2.9602,2.9602,2.9757,3.0263,3.0361,3.0572,3.1218,3.1316,3.1541,3.2159,3.2328,3.2595,3.3101,3.3255,3.3326,3.3326,3.3326,3.3326,3.3326,3.3382,3.3677,3.4185,3.4199,3.4482,3.5102,3.5204,3.5985,3.7603,3.7745,3.8607,4.017,4.017,4.017,4.017,4.017,4.0309,4.0524,4.0524,4.0524,4.0524,4.0524,4.0524,4.0524,4.0401,4.0355,4.0278,3.9585,3.9262,3.9016,3.7892,3.7841,3.8115,3.7591,3.7844,3.8391,3.8391,3.8391,3.8391,3.8391,3.8391,3.8391,3.8391,3.8391,3.8391,3.8391,3.8391,3.8391,3.8391,3.8391,3.8391,3.8391,3.8391,3.8391,3.8391,3.8391,3.8391,3.8391,3.8391,3.8391,3.8391,3.8391,3.8391,3.8391,3.8391,3.8391,3.8391,3.8391,3.8391,3.8391,3.8391,3.8391,3.8391,3.8391,3.8391,3.8391,3.8711,3.9115,3.9506,3.9816,4.0238,4.0776,4.071,4.0776,0.0,0.0,0.0,0.0,2.7425,2.8717,0.0,0.0,2.9602,2.9602,2.9602,2.9631,2.9715,2.9729,2.994,3.0544,3.0656,3.0881,3.1527,3.2075,3.244,3.2511,3.3002,3.3326,3.3326,3.3326,3.3326,3.3326,3.377,3.4059,3.4131,3.4131,3.4364,3.4995,3.5009,3.5664,3.6925,3.7357,3.7978,3.8785,3.8785,3.8785,3.8785,3.8785,3.9416,4.0524,4.0524,4.0524,4.0524,4.0524,4.0524,4.0462,3.9878,3.9647,3.957,3.8893,3.8277,3.7738,3.7569,3.753,3.7543,3.7449,3.7844,3.8391,3.8391,3.8391,3.8391,3.8391,3.8391,3.8391,3.8391,3.8391,3.8391,3.8391,3.8391,3.8391,3.8391,3.8391,3.8391,3.8391,3.8391,3.8391,3.8391,3.8391,3.8391,3.8391,3.8391,3.8391,3.8391,3.8391,3.8391,3.8391,3.8391,3.8391,3.8391,3.8391,3.8391,3.8391,3.8391,3.8391,3.8391,3.8391,3.8391,3.8391,3.8448,3.8655,3.9061,3.8821,3.9239,4.0355,3.9935,4.0187,1.9886,0.0,2.3898,0.0,2.7045,2.8268,2.8605,2.9167,2.9602,2.9602,2.9602,2.9602,2.9602,2.9602,2.9701,2.9968,3.001,3.0235,3.0853,3.1499,3.2019,3.237,3.2946,3.3326,3.3326,3.3326,3.3326,3.3326,3.3825,3.407,3.407,3.407,3.4336,3.4952,3.4625,3.5205,3.6753,3.697,3.7567,3.8508,3.8508,3.8508,3.8508,3.8508,3.8831,3.94,3.94,3.94,3.94,3.94,3.94,3.937,3.9062,3.8954,3.8877,3.82,3.7754,3.7446,3.7076,3.7141,3.7417,3.7417,3.7844,3.8391,3.8391,3.8391,3.8391,3.8391,3.8391,3.8391,3.8391,3.8391,3.8391,3.8391,3.8391,3.8391,3.8391,3.8391,3.8391,3.8391,3.8391,3.8391,3.8391,3.8391,3.8391,3.8391,3.8391,3.8391,3.8391,3.8391,3.8391,3.8391,3.8391,3.8391,3.8391,3.8391,3.8391,3.8391,3.8391,3.8391,3.8391,3.8391,3.8391,3.8391,3.8391,3.8616,3.9023,3.8821,3.9292,4.0305,4.007,4.032,0.0,0.0,2.2423,2.4446,2.602,2.727,0.0,2.8816,2.942,2.9574,2.9602,2.9602,2.9602,2.9602,2.9602,2.9602,2.9602,2.9771,3.0235,3.0839,3.1485,3.2103,3.2707,3.3143,3.3312,3.3326,3.3326,3.3326,3.3825,3.407,3.407,3.4206,3.4476,3.4876,3.461,3.5112,3.6411,3.6557,3.7075,3.8,3.8,3.8,3.8,3.8,3.8,3.8015,3.8354,3.8508,3.8508,3.8508,3.8508,3.8492,3.8323,3.8262,3.8169,3.7492,3.7246,3.7169,3.6661,3.6892,3.7417,3.7417,3.7844,3.8391,3.8391,3.8391,3.8391,3.8391,3.8391,3.8391,3.8391,3.8391,3.8391,3.8391,3.8391,3.8391,3.8391,3.8391,3.8391,3.8391,3.8391,3.8391,3.8391,3.8391,3.8391,3.8391,3.8391,3.8391,3.8391,3.8391,3.8391,3.8391,3.8391,3.8391,3.8391,3.8391,3.8391,3.8391,3.8391,3.8391,3.8391,3.8391,3.8391,3.8391,3.8391,3.856,3.8876,3.8876,3.9292,4.0121,4.0121,4.037,0.0,1.935,0.0,2.1763,2.3758,2.543,2.6638,2.786,2.89,2.949,2.9602,2.9602,2.9602,2.9602,2.9602,2.9602,2.9602,2.9617,2.9645,3.0193,3.0811,3.1471,3.2075,3.2679,3.3255,3.3326,3.3326,3.3326,3.3825,3.407,3.407,3.461,3.4876,3.4876,3.535,3.5638,3.5733,3.6272,3.6553,3.6599,3.6599,3.6599,3.6599,3.6599,3.6599,3.6661,3.7954,3.8508,3.8508,3.8508,3.8508,3.8446,3.78,3.7554,3.7477,3.6799,3.6538,3.6538,3.6507,3.6892,3.7417,3.7417,3.7844,3.8391,3.8391,3.8391,3.8391,3.8391,3.8391,3.8391,3.8391,3.8391,3.8391,3.8391,3.8391,3.8391,3.8391,3.8391,3.8391,3.8391,3.8391,3.8391,3.8391,3.8391,3.8391,3.8391,3.8391,3.8391,3.8391,3.8391,3.8391,3.8391,3.8391,3.8391,3.8391,3.8391,3.8391,3.8391,3.8391,3.8391,3.8391,3.8391,3.8391,3.8391,3.8391,3.8391,3.8448,3.8448,3.886,3.9662,3.9662,4.0087,0.0,0.0,0.0,2.0821,2.3027,2.5093,2.5542,2.6919,2.8169,2.8394,2.8422,2.8549,2.8942,2.935,2.9602,2.9602,2.9602,2.9602,2.9602,3.0136,3.0614,3.0839,3.178,3.2483,3.2707,3.3087,3.3326,3.3326,3.3825,3.407,3.407,3.461,3.5088,3.5415,3.5623,3.5879,3.6226,3.6414,3.6492,3.6492,3.6492,3.6492,3.6492,3.6492,3.6492,3.6522,3.7015,3.7215,3.7215,3.7215,3.7215,3.7184,3.6953,3.6861,3.683,3.6584,3.6492,3.6492,3.6492,3.6892,3.7417,3.7417,3.7844,3.8391,3.8391,3.8391,3.8391,3.8391,3.8391,3.8391,3.8391,3.8391,3.8391,3.8391,3.8391,3.8391,3.8391,3.8391,3.8391,3.8391,3.8391,3.8391,3.8391,3.8391,3.8391,3.8391,3.8391,3.8391,3.8391,3.8391,3.8391,3.8391,3.8391,3.8391,3.8391,3.8391,3.8391,3.8391,3.8391,3.8391,3.8391,3.8391,3.8391,3.8391,3.8391,3.8391,3.8391,3.8391,3.8805,3.961,3.961,4.0087,1.81,0.0,0.0,0.0,2.1763,2.3449,2.4699,2.5936,2.6961,2.7369,2.7621,2.7902,2.831,2.8717,2.9125,2.9532,2.9602,2.9602,2.9602,2.9968,3.0291,3.0502,3.126,3.1935,3.237,3.2595,3.2876,3.3297,3.3448,3.3611,3.3811,3.4491,3.5219,3.5958,3.5958,3.6163,3.6492,3.6492,3.6492,3.6492,3.6492,3.6492,3.6492,3.6492,3.6492,3.6492,3.6492,3.6492,3.6492,3.6492,3.6492,3.6492,3.6492,3.6492,3.6492,3.6492,3.6554,3.6693,3.6693,3.7074,3.7594,3.7594,3.796,3.8391,3.8391,3.8391,3.8391,3.8391,3.8391,3.8391,3.8391,3.8391,3.8391,3.8391,3.8391,3.8391,3.8391,3.8391,3.8391,3.8391,3.8391,3.8391,3.8391,3.8391,3.8391,3.8391,3.8391,3.8391,3.8391,3.8391,3.8391,3.8391,3.8391,3.8391,3.8391,3.8391,3.8391,3.8391,3.8391,3.8391,3.8391,3.8391,3.8391,3.8391,3.8391,3.8391,3.8391,3.8391,3.8805,3.961,3.961,4.0087,0.0,0.0,0.0,0.0,1.988,2.0357,2.4011,2.4868,2.5247,2.6469,2.7228,2.7692,2.7734,2.7748,2.8155,2.9378,2.9574,2.9588,2.9602,2.9602,2.9827,3.0417,3.0516,3.1007,3.223,3.1822,3.1991,3.3185,3.2707,3.2637,3.3241,3.4259,3.532,3.6383,3.6414,3.6492,3.6492,3.6492,3.6492,3.6492,3.6492,3.6492,3.6492,3.6492,3.6492,3.6492,3.6492,3.6492,3.6492,3.6492,3.6492,3.6492,3.6492,3.6492,3.6492,3.6492,3.6693,3.7015,3.6999,3.7389,3.7886,3.7886,3.8148,3.8391,3.8391,3.8391,3.8391,3.8391,3.8391,3.8391,3.8391,3.8391,3.8391,3.8391,3.8391,3.8391,3.8391,3.8391,3.8391,3.8391,3.8391,3.8391,3.8391,3.8391,3.8391,3.8391,3.8391,3.8391,3.8391,3.8391,3.8391,3.8391,3.8391,3.8391,3.8391,3.8391,3.8391,3.8391,3.8391,3.8391,3.8391,3.8391,3.8391,3.8391,3.8391,3.8391,3.8391,3.8391,3.8805,3.961,3.961,4.0087,1.6673,0.0,0.0,0.0,0.0,0.0,2.144,2.2339,2.3308,2.4573,2.4966,2.55,2.6835,2.7074,2.7481,2.8731,2.8942,2.9097,2.9546,2.9602,2.9673,2.9841,3.0249,3.0656,3.1007,3.1316,3.164,3.1963,3.1836,3.1822,3.1991,3.3059,3.3952,3.4648,3.5111,3.5544,3.5894,3.5958,3.6085,3.6492,3.6492,3.6492,3.6492,3.6492,3.6492,3.6492,3.6492,3.6492,3.6492,3.6492,3.6492,3.6492,3.6492,3.6492,3.6554,3.6754,3.6938,3.6999,3.721,3.7535,3.7886,3.7886,3.8148,3.8391,3.8391,3.8391,3.8391,3.8391,3.8391,3.8391,3.8391,3.8391,3.8391,3.8391,3.8391,3.8391,3.8391,3.8391,3.8391,3.8391,3.8391,3.8391,3.8391,3.8391,3.8391,3.8391,3.8391,3.8391,3.8391,3.8391,3.8391,3.8391,3.8391,3.8391,3.8391,3.8391,3.8391,3.8391,3.8391,3.8391,3.8391,3.8391,3.8391,3.8391,3.8391,3.8391,3.8391,3.8391,3.8805,3.961,4.0237,4.0662,1.713,1.7684,0.0,1.8075,0.0,0.0,2.0727,2.1221,2.1868,2.3192,2.3639,2.4146,2.5416,2.5879,2.6371,2.7369,2.7734,2.831,2.9448,2.9602,2.9602,2.9602,2.9926,3.0235,3.0502,3.0642,3.0923,3.1443,3.1246,3.1335,3.1786,3.2652,3.341,3.3982,3.4351,3.4807,3.535,3.5623,3.5879,3.6148,3.6414,3.6492,3.6492,3.6492,3.6492,3.6492,3.6492,3.6492,3.6492,3.6492,3.6492,3.6492,3.6492,3.6492,3.6554,3.6877,3.706,3.721,3.7476,3.7828,3.8132,3.8132,3.8262,3.8391,3.8391,3.8391,3.8391,3.8391,3.8391,3.8391,3.8391,3.8391,3.8391,3.8391,3.8391,3.8391,3.8391,3.8391,3.8391,3.8391,3.8391,3.8391,3.8391,3.8391,3.8391,3.8391,3.8391,3.8391,3.8391,3.8391,3.8391,3.8391,3.8391,3.8391,3.8391,3.8391,3.8391,3.8391,3.8391,3.8391,3.8391,3.8391,3.8391,3.8391,3.8391,3.8391,3.8391,3.8391,3.8805,3.961,4.05,4.0888,1.8132,1.8104,0.0,1.9556,1.9166,0.0,2.0953,2.0927,2.0826,2.2098,2.2705,2.3138,2.378,2.4399,2.4952,2.5486,2.6217,2.7369,2.9251,2.9504,2.9532,2.9602,2.9602,2.9827,3.0375,2.9926,3.0066,3.119,3.074,3.0863,3.1947,3.2514,3.3044,3.3697,3.3834,3.4189,3.4904,3.5374,3.5676,3.5816,3.6289,3.6492,3.6492,3.6492,3.6492,3.6492,3.6492,3.6492,3.6492,3.6492,3.6492,3.6492,3.6492,3.6492,3.6616,3.6938,3.721,3.7476,3.7828,3.8148,3.8391,3.8391,3.8391,3.8391,3.8391,3.8391,3.8391,3.8391,3.8391,3.8391,3.8391,3.8391,3.8391,3.8391,3.8391,3.8391,3.8391,3.8391,3.8391,3.8391,3.8391,3.8391,3.8391,3.8391,3.8391,3.8391,3.8391,3.8391,3.8391,3.8391,3.8391,3.8391,3.8391,3.8391,3.8391,3.8391,3.8391,3.8391,3.8391,3.8391,3.8391,3.8391,3.8391,3.8391,3.8391,3.8391,3.8391,3.8504,3.8898,3.961,4.05,4.0888,1.9717,2.0639,2.1473,1.9937,2.0735,0.0,1.9803,1.9932,2.0499,2.0782,2.0893,2.1316,2.2353,2.3041,2.3505,2.3631,2.5008,2.6722,2.8605,2.8872,2.9055,2.9546,2.9602,2.9659,2.9771,2.9673,2.9715,2.9954,2.9855,2.9904,3.0094,3.1051,3.1618,3.1734,3.262,3.365,3.4748,3.4826,3.5349,3.6352,3.6429,3.6492,3.6492,3.6492,3.6492,3.6492,3.6492,3.6492,3.6492,3.6492,3.6492,3.6492,3.6492,3.6677,3.6938,3.7194,3.7535,3.7828,3.8205,3.8335,3.8391,3.8391,3.8391,3.8391,3.8391,3.8391,3.8391,3.8391,3.8391,3.8391,3.8391,3.8391,3.8391,3.8391,3.8391,3.8391,3.8391,3.8391,3.8391,3.8391,3.8391,3.8391,3.8391,3.8391,3.8391,3.8391,3.8391,3.8391,3.8391,3.8391,3.8391,3.8391,3.8391,3.8391,3.8391,3.8391,3.8391,3.8391,3.8391,3.8391,3.8391,3.8391,3.8391,3.8391,3.8391,3.8391,3.8391,3.9044,3.9454,3.961,4.05,4.0888,2.1421,2.1705,2.2114,2.1139,2.114,0.0,0.0,1.9715,1.985,2.0841,2.0514,2.0472,2.1949,2.2437,2.2634,2.2634,2.4091,2.5615,2.6722,2.765,2.8471,2.8947,2.932,2.9383,2.9153,2.9667,2.996,2.996,2.996,2.996,2.996,3.043,3.0869,3.1185,3.1501,3.2358,3.3776,3.4152,3.4796,3.5597,3.6198,3.6492,3.6492,3.6492,3.6492,3.6492,3.6492,3.6492,3.6492,3.6492,3.6492,3.6492,3.6492,3.6677,3.706,3.7314,3.7578,3.7943,3.8262,3.8391,3.8391,3.8391,3.8391,3.8391,3.8391,3.8391,3.8391,3.8391,3.8391,3.8391,3.8391,3.8391,3.8391,3.8391,3.8391,3.8391,3.8391,3.8391,3.8391,3.8391,3.8391,3.8391,3.8391,3.8391,3.8391,3.8391,3.8391,3.8391,3.8391,3.8391,3.8391,3.8391,3.8391,3.8391,3.8391,3.8391,3.8391,3.8391,3.8391,3.8391,3.8391,3.8391,3.8391,3.8391,3.8391,3.8391,3.8391,3.9206,3.961,3.961,4.05,4.0888,2.3009,2.2674,2.2632,2.236,2.163,2.0971,0.0,0.0,0.0,2.0952,2.0479,2.0171,2.1579,2.1917,2.1914,2.1815,2.3169,2.4253,2.4291,2.5957,2.7371,2.7882,2.857,2.8841,2.8384,2.9021,2.9674,3.0283,2.986,2.9803,3.0297,3.0312,3.0618,3.1308,3.095,3.1392,3.2859,3.3535,3.4188,3.4708,3.5645,3.6168,3.6307,3.6307,3.6307,3.6307,3.643,3.6492,3.6492,3.6492,3.6492,3.6492,3.6492,3.6739,3.7105,3.7314,3.7653,3.8017,3.8335,3.8391,3.8391,3.8391,3.8391,3.8391,3.8391,3.8391,3.8391,3.8391,3.8391,3.8391,3.8391,3.8391,3.8391,3.8391,3.8391,3.8391,3.8391,3.8391,3.8391,3.8391,3.8391,3.8391,3.8391,3.8391,3.8391,3.8391,3.8391,3.8391,3.8391,3.8391,3.8391,3.8391,3.8391,3.8391,3.8391,3.8391,3.8391,3.8391,3.8391,3.8391,3.8391,3.8391,3.8391,3.8391,3.8391,3.8391,3.8391,3.9206,3.961,3.961,4.05,4.0888,2.4287,2.4937,2.5305,2.2915,2.3655,2.4162,2.07,0.0,2.0655,1.9839,0.0,2.0362,2.0583,0.0,0.0,2.0347,2.1758,2.264,2.1924,2.3627,2.5283,2.6087,2.7042,2.7483,2.7074,2.6652,2.7499,3.0079,2.8337,2.8138,3.0165,3.0312,3.0702,3.1599,3.1599,3.1913,3.2735,3.3236,3.3876,3.477,3.4758,3.5014,3.5599,3.5599,3.5599,3.563,3.623,3.6492,3.6492,3.6492,3.6492,3.6492,3.6492,3.6846,3.7358,3.7417,3.7786,3.8335,3.8408,3.8391,3.8391,3.8391,3.8391,3.8391,3.8391,3.8391,3.8391,3.8391,3.8391,3.8391,3.8391,3.8391,3.8391,3.8391,3.8391,3.8391,3.8391,3.8391,3.8391,3.8391,3.8391,3.8391,3.8391,3.8391,3.8391,3.8391,3.8391,3.8391,3.8391,3.8391,3.8391,3.8391,3.8391,3.8391,3.8391,3.8391,3.8391,3.8391,3.8391,3.8391,3.8391,3.8391,3.8391,3.8391,3.8391,3.8391,3.8391,3.9206,3.961,3.961,4.05,4.0888,2.4487,2.4882,2.5074,2.3512,2.3396,2.3182,2.1089,2.0365,2.0215,2.0421,0.0,0.0,0.0,0.0,0.0,0.0,2.1318,2.1975,2.1374,2.2411,2.3659,2.4765,2.5495,2.6174,2.6934,2.6562,2.7164,2.942,2.7512,2.7428,3.0017,2.9957,3.0353,3.1667,3.1437,3.1672,3.2516,3.284,3.3328,3.3966,3.4355,3.4629,3.4906,3.4906,3.4906,3.4937,3.5614,3.5907,3.5938,3.6322,3.6492,3.6492,3.6677,3.7029,3.7417,3.7653,3.8017,3.8391,3.8391,3.8391,3.8391,3.8391,3.8391,3.8391,3.8391,3.8391,3.8391,3.8391,3.8391,3.8391,3.8391,3.8391,3.8391,3.8391,3.8391,3.8391,3.8391,3.8391,3.8391,3.8391,3.8391,3.8391,3.8391,3.8391,3.8391,3.8391,3.8391,3.8391,3.8391,3.8391,3.8391,3.8391,3.8391,3.8391,3.8391,3.8391,3.8391,3.8391,3.8391,3.8391,3.8391,3.8391,3.8391,3.8391,3.8391,3.8391,3.8391,3.9206,3.961,3.961,4.05,4.0629,2.4825,2.5037,2.5137,2.367,2.3092,2.2521,2.1233,2.0571,2.0378,2.1069,2.0959,0.0,0.0,0.0,2.0971,2.0754,0.0,2.1594,2.0931,2.1605,2.247,2.3304,2.3783,2.4736,2.6357,2.5558,2.5981,2.8527,2.6606,2.6673,2.9841,2.9739,3.0219,3.155,3.1332,3.1537,3.2231,3.2463,3.2798,3.3227,3.3679,3.3998,3.4183,3.4183,3.4183,3.4214,3.4906,3.5214,3.5245,3.5737,3.6107,3.6383,3.6703,3.7097,3.7594,3.7828,3.8132,3.8391,3.8391,3.8391,3.8391,3.8391,3.8391,3.8391,3.8391,3.8391,3.8391,3.8391,3.8391,3.8391,3.8391,3.8391,3.8391,3.8391,3.8391,3.8391,3.8391,3.8391,3.8391,3.8391,3.8391,3.8391,3.8391,3.8391,3.8391,3.8391,3.8391,3.8391,3.8391,3.8391,3.8391,3.8391,3.8391,3.8391,3.8391,3.8391,3.8391,3.8391,3.8391,3.8391,3.8391,3.8391,3.8391,3.8391,3.8391,3.8391,3.8391,3.9206,3.961,3.9594,4.0278,4.025,2.5685,2.6287,2.6534,2.3194,2.3277,2.3538,2.0931,2.1316,2.2055,2.1439,2.2801,2.3953,2.3339,2.3,2.2612,0.0,2.1886,0.0,0.0,2.0978,2.1704,2.1333,2.1894,2.295,2.4597,2.2468,2.2863,2.74,2.5267,2.5511,2.9507,2.9885,3.0395,3.1359,3.1561,3.1682,3.1724,3.2191,3.2512,3.2717,3.2527,3.2798,3.3444,3.3444,3.3444,3.3475,3.4198,3.4506,3.4506,3.4596,3.5084,3.5954,3.6306,3.6991,3.7886,3.7886,3.8132,3.8391,3.8391,3.8391,3.8391,3.8391,3.8391,3.8391,3.8391,3.8391,3.8391,3.8391,3.8391,3.8391,3.8391,3.8391,3.8391,3.8391,3.8391,3.8391,3.8391,3.8391,3.8391,3.8391,3.8391,3.8391,3.8391,3.8391,3.8391,3.8391,3.8391,3.8391,3.8391,3.8391,3.8391,3.8391,3.8391,3.8391,3.8391,3.8391,3.8391,3.8391,3.8391,3.8391,3.8391,3.8391,3.8391,3.8391,3.8391,3.8391,3.8391,3.9206,3.961,3.9577,3.9682,3.9715,2.6193,2.6688,2.6903,2.481,2.4302,2.3825,2.2024,2.1963,2.2101,2.146,2.2548,2.3425,2.2748,2.2547,0.0,0.0,0.0,2.1191,0.0,2.0513,2.0767,2.0643,2.1774,2.2679,2.2817,2.2039,2.2963,2.6396,2.467,2.5141,2.9097,2.9666,3.0347,3.1366,3.1879,3.2176,3.2176,3.2342,3.245,3.2497,3.2435,3.2521,3.2736,3.2736,3.2736,3.2782,3.346,3.3767,3.3798,3.4275,3.4775,3.5299,3.6085,3.6419,3.6574,3.7263,3.7858,3.8391,3.8391,3.8391,3.8391,3.8391,3.8391,3.8391,3.8391,3.8391,3.8391,3.8391,3.8391,3.8391,3.8391,3.8391,3.8391,3.8391,3.8391,3.8391,3.8391,3.8391,3.8391,3.8391,3.8391,3.8391,3.8391,3.8391,3.8391,3.8391,3.8391,3.8391,3.8391,3.8391,3.8391,3.8391,3.8391,3.8391,3.8391,3.8391,3.8391,3.8391,3.8391,3.8391,3.8391,3.8391,3.8391,3.8391,3.8391,3.856,3.8821,3.9365,3.9782,4.0037,3.9311,3.8957,2.6603,2.7009,2.7179,2.5803,2.5308,2.4735,2.3165,2.3181,2.3336,2.2654,2.3374,2.4141,2.402,2.3328,2.2616,0.0,0.0,0.0,0.0,2.0304,2.0304,2.0304,2.1262,2.1774,2.1461,2.125,2.2161,2.4675,2.4094,2.5016,2.8071,2.9245,3.0247,3.117,3.1851,3.2315,3.2578,3.2578,3.2578,3.2578,3.2453,3.2398,3.2398,3.2398,3.2398,3.2413,3.2859,3.3044,3.3075,3.3552,3.4146,3.4736,3.5401,3.5761,3.6082,3.6938,3.7614,3.8019,3.8019,3.8181,3.8391,3.8391,3.8391,3.8391,3.8391,3.8391,3.8391,3.8391,3.8391,3.8391,3.8391,3.8391,3.8391,3.8391,3.8391,3.8391,3.8391,3.8391,3.8391,3.8391,3.8391,3.8391,3.8391,3.8391,3.8391,3.8391,3.8391,3.8391,3.8391,3.8391,3.8391,3.8391,3.8391,3.8391,3.8391,3.8391,3.8391,3.8391,3.8391,3.8391,3.8391,3.8391,3.8391,3.8391,3.8391,3.8616,3.9023,3.9401,3.9833,4.0254,3.9118,3.8594]},{"header":{"parameterUnit":"m.s-1","parameterCategory":1,"la1":30.6,"la2":29.2853,"lo1":-89.7004,"lo2":-87.6739,"dy":0.0162,"dx":0.0183,"nx":112,"ny":82,"refTime":"2024-08-13T18:00:00:Z","depth":0,"parameterNumber":3,"parameterNumberName":"V-component_of_WINDS"},"data":[0.0,0.0,0.0,0.0,0.0,0.0,0.0,0.0,0.0,0.0,0.0,0.0,0.0,0.0,0.0,0.0,0.0,0.0,0.0,0.0,0.0,0.0,0.0,0.0,0.0,0.0,0.0,0.0,0.0,0.0,0.0,0.0,0.0,0.0,0.0,0.0,0.0,0.0,0.0,0.0,0.0,0.0,0.0,0.0,0.0,0.0,0.0,0.0,0.0,0.0,0.0,0.0,0.0,0.0,0.0,0.0,0.0,0.0,0.0,0.0,0.0,0.0,0.0,0.0,0.0,0.0,0.0,0.0,0.0,0.0,0.0,0.0,0.0,0.0,0.0,0.0,0.0,0.0,0.0,0.0,0.0,0.0,0.0,0.0,0.0,0.0,0.0,0.0,0.0,0.0,0.1011,0.175,0.2915,0.4064,0.5269,0.5869,0.6095,0.5837,0.0,0.0,0.0,0.0,0.0,0.0,0.0,0.0,0.0,0.0,0.0,0.0,0.0,0.0,0.0,0.0,0.0,0.0,0.0,0.0,0.0,0.0,0.0,0.0,0.0,0.0,0.0,0.0,0.0,0.0,0.0,0.0,0.0,0.0,0.0,0.0,0.0,0.0,0.0,0.0,0.0,0.0,0.0,0.0,0.0,0.0,0.0,0.0,0.0,0.0,0.0,0.0,0.0,0.0,0.0,0.0,0.0,0.0,0.0,0.0,0.0,0.0,0.0,0.0,0.0,0.0,0.0,0.0,0.0,0.0,0.0,0.0,0.0,0.0,0.0,0.0,0.0,0.0,0.0,0.0,0.0,0.0,0.0,0.0,0.0,0.0,0.0,0.0,0.0,0.0,0.0,0.0,0.0,0.0,0.0,0.0,0.0,0.0,0.0,0.0,0.0,0.0,0.0,0.0,0.1185,0.2426,0.3152,0.3904,0.457,0.5167,0.5336,0.5096,0.0,0.0,0.0,0.0,0.0,0.0,0.0,0.0,0.0,0.0,0.0,0.0,0.0,0.0,0.0,0.0,0.0,0.0,0.0,0.0,0.0,0.0,0.0,0.0,0.0,0.0,0.0,0.0,0.0,0.0,0.0,0.0,0.0,0.0,0.0,0.0,0.0,0.0,0.0,0.0,0.0,0.0,0.0,0.0,0.0,0.0,0.0,0.0,0.0,0.0,0.0,0.0,0.0,0.0,0.0,0.0,0.0,0.0,0.0,0.0,0.0,0.0,0.0,0.0,0.0,0.0,0.0,0.0,0.0,0.0,0.0,0.0,0.0,0.0,0.0,0.0,0.0,0.0,0.0,0.0,0.0,0.0,0.0,0.0,0.0,0.0,0.0,0.0,0.0,0.0,0.0,0.0,0.0,0.0,0.0,0.0,0.0,0.0,0.0,0.0,0.0,0.0,0.0,0.0499,0.0978,0.1656,0.2736,0.3574,0.3959,0.4783,0.5079,0.4573,0.5567,0.0,0.0,0.0,0.0,0.0,0.0,0.0,0.0,0.0,0.0,0.0,0.0,0.0,0.0,0.0,0.0,0.0,0.0,0.0,0.0,0.0,0.0,0.0,0.0,0.0,0.0,0.0,0.0,0.0,0.0,0.0,0.0,0.0,0.0,0.0,0.0,0.0,0.0,0.0,0.0,0.0,0.0,0.0,0.0,0.0,0.0,0.0,0.0,0.0,0.0,0.0,0.0,0.0,0.0,0.0,0.0,0.0,0.0,0.0,0.0,0.0,0.0,0.0,0.0,0.0,0.0,0.0,0.0,0.0,0.0,0.0,0.0,0.0,0.0,0.0,0.0,0.0,0.0,0.0,0.0,0.0,0.0,0.0,0.0,0.0,0.0,0.0,0.0,0.0,0.0,0.0,0.0,0.0,0.0,0.0,0.0,0.0,0.0,0.0,0.0,0.0,0.0,0.0241,0.0762,0.1052,0.2233,0.3241,0.3793,0.4551,0.479,0.422,0.4952,0.0,0.0,0.0,0.0,0.0,0.0,0.0,0.0,0.0,0.0,0.0,0.0,0.0,0.0,0.0,0.0,0.0,0.0,0.0,0.0,0.0,0.0,0.0,0.0,0.0,0.0,0.0,0.0,0.0,0.0,0.0,0.0,0.0,0.0,0.0,0.0,0.0,0.0,0.0,0.0,0.0,0.0,0.0,0.0,0.0,0.0,0.0,0.0,0.0,0.0,0.0,0.0,0.0,0.0,0.0,0.0,0.0,0.0,0.0,0.0,0.0,0.0,0.0,0.0,0.0,0.0,0.0,0.0,0.0,0.0,0.0,0.0,0.0,0.0,0.0,0.0,0.0,0.0,0.0,0.0,0.0,0.0,0.0,0.0,0.0,0.0,0.0,0.0,0.0,0.0,0.0,0.0,0.0,0.0,0.0,0.0,0.0,0.0,0.0,0.0,0.0,0.0,0.0,0.075,0.1666,0.2007,0.2788,0.4294,0.4209,0.4104,0.4204,0.4315,0.0,0.0,0.0,0.0,0.0,0.0,0.0,0.0,0.0,0.0,0.0,0.0,0.0,0.0,0.0,0.0,0.0,0.0,0.0,0.0,0.0,0.0,0.0,0.0,0.0,0.0,0.0,0.0,0.0,0.0,0.0,0.0,0.0,0.0,0.0,0.0,0.0,0.0,0.0,0.0,0.0,0.0,0.0,0.0,0.0,0.0,0.0,0.0,0.0,0.0,0.0,0.0,0.0,0.0,0.0,0.0,0.0,0.0,0.0,0.0,0.0,0.0,0.0,0.0,0.0,0.0,0.0,0.0,0.0,0.0,0.0,0.0,0.0,0.0,0.0,0.0,0.0,0.0,0.0,0.0,0.0,0.0,0.0,0.0,0.0,0.0,0.0,0.0,0.0,0.0,0.0,0.0,0.0,0.0,0.0,0.0,0.0,0.0,0.0,0.0,0.0,0.0,-0.0195,0.0421,0.0667,0.2238,0.3193,0.3016,0.371,0.3888,0.3286,0.0,0.0,0.0,0.0,0.0,0.0,0.0,0.0,0.0,0.0,0.0,0.0,0.0,0.0,0.0,0.0,0.0,0.0,0.0,0.0,0.0,0.0,0.0,0.0,0.0,0.0,0.0,0.0,0.0,0.0,0.0,0.0,0.0,0.0,0.0,0.0,0.0,0.0,0.0,0.0,0.0,0.0,0.0,0.0,0.0,0.0,0.0,0.0,0.0,0.0,0.0,0.0,0.0,0.0,0.0,0.0,0.0,0.0,0.0,0.0,0.0,0.0,0.0,0.0,0.0,0.0,0.0,0.0,0.0,0.0,0.0,0.0,0.0,0.0,0.0,0.0,0.0,0.0,0.0,0.0,0.0,0.0,0.0,0.0,0.0,0.0,0.0,0.0,0.0,0.0,0.0,0.0,0.0,0.0,0.0,0.0,0.0,0.0,0.0,0.0,0.0,0.0,-0.169,-0.0589,0.016,0.0,0.1624,0.2747,0.2687,0.3346,0.3502,0.303,0.0,0.0,0.0,0.0,0.0,0.0,0.0,0.0,0.0,0.0,0.0,0.0,0.0,0.0,0.0,0.0,0.0,0.0,0.0,0.0,0.0,0.0,0.0,0.0,0.0,0.0,0.0,0.0,0.0,0.0,0.0,0.0,0.0,0.0,0.0,0.0,0.0,0.0,0.0,0.0,0.0,0.0,0.0,0.0,0.0,0.0,0.0,0.0,0.0,0.0,0.0,0.0,0.0,0.0,0.0,0.0,0.0,0.0,0.0,0.0,0.0,0.0,0.0,0.0,0.0,0.0,0.0,0.0,0.0,0.0,0.0,0.0,0.0,0.0,0.0,0.0,0.0,0.0,0.0,0.0,0.0,0.0,0.0,0.0,0.0,0.0,0.0,0.0,0.0,0.0,0.0,0.0,0.0,0.0,0.0,0.0,0.0,0.0,0.0,0.0,0.0,0.0,-0.2879,-0.1234,-0.0,-0.0,0.0,0.106,0.3755,0.3159,0.2983,0.0,0.0,0.0,0.0,0.0,0.0,0.0,0.0,0.0,0.0,0.0,0.0,0.0,0.0,0.0,0.0,0.0,0.0,0.0,0.0,0.0,0.0,0.0,0.0,0.0,0.0,0.0,0.0,0.0,0.0,0.0,0.0,0.0,0.0,0.0,0.0,0.0,0.0,0.0,0.0,0.0,0.0,0.0,0.0,0.0,0.0,0.0,0.0,0.0,0.0,0.0,0.0,0.0,0.0,0.0,0.0,0.0,0.0,0.0,0.0,0.0,0.0,0.0,0.0,0.0,0.0,0.0,0.0,0.0,0.0,0.0,0.0,0.0,0.0,0.0,0.0,0.0,0.0,0.0,0.0,0.0,0.0,0.0,0.0,0.0,0.0,0.0,0.0,0.0,0.0,0.0,0.0,0.0,0.0,0.0,0.0,0.0,0.0,0.0,0.0,0.0,0.0,0.0,-0.3223,-0.1951,-0.0838,-0.0335,0.0168,0.0616,0.1119,0.1978,0.2168,0.1399,0.0,0.0,0.0,0.0,0.0,0.0,0.0,0.0,0.0,0.0,0.0,0.0,0.0,0.0,0.0,0.0,0.0,0.0,0.0,0.0,0.0,0.0,0.0,0.0,0.0,0.0,0.0,0.0,0.0,0.0,0.0,0.0,0.0,0.0,0.0,0.0,0.0,0.0,0.0,0.0,0.0,0.0,0.0,0.0,0.0,0.0,0.0,0.0,0.0,0.0,0.0,0.0,0.0,0.0,0.0,0.0,0.0,0.0,0.0,0.0,0.0,0.0,0.0,0.0,0.0,0.0,0.0,0.0,0.0,0.0,0.0,0.0,0.0,0.0,0.0,0.0,0.0,0.0,0.0,0.0,0.0,0.0,0.0,0.0,0.0,0.0,0.0,0.0,0.0,0.0,0.0,0.0,0.0,0.0,0.0,0.0,0.0,0.0,0.0,0.0,0.0,0.0,-0.3493,-0.298,-0.2068,-0.0726,-0.0224,-0.0112,-0.0336,0.0728,0.1169,0.0509,0.0,0.0,0.0,0.0,0.0,0.0,0.0,0.0,0.0,0.0,0.0,0.0,0.0,0.0,0.0,0.0,0.0,0.0,0.0,0.0,0.0,0.0,0.0,0.0,0.0,0.0,0.0,0.0,0.0,0.0,0.0,0.0,0.0,0.0,0.0,0.0,0.0,0.0,0.0,0.0,0.0,0.0,0.0,0.0,0.0,0.0,0.0,0.0,0.0,0.0,0.0,0.0,0.0,0.0,0.0,0.0,0.0,0.0,0.0,0.0,0.0,0.0,0.0,0.0,0.0,0.0,0.0,0.0,0.0,0.0,0.0,0.0,0.0,0.0,0.0,0.0,0.0,0.0,0.0,0.0,0.0,0.0,0.0,0.0,0.0,0.0,0.0,0.0,0.0,0.0,0.0,0.0,0.0,0.0,0.0,0.0,0.0,0.0,0.0,0.0,0.0,0.0,-0.3701,-0.3971,-0.3357,-0.134,-0.1061,-0.0951,-0.0897,-0.0393,0.0107,0.053,0.0,0.0,0.0,0.0,0.0,0.0,0.0,0.0,0.0,0.0,0.0,0.0,0.0,0.0,0.0,0.0,0.0,0.0,0.0,0.0,0.0,0.0,0.0,0.0,0.0,0.0,0.0,0.0,0.0,0.0,0.0,0.0,0.0,0.0,0.0,0.0,0.0,0.0,0.0,0.0,0.0,0.0,0.0,0.0,0.0,0.0,0.0,0.0,0.0,0.0,0.0,0.0,0.0,0.0,0.0,0.0,0.0,0.0,0.0,0.0,-1.1957,-1.1031,0.0,0.0,0.0,0.0,0.0,0.0,0.0,0.0,0.0,0.0,0.0,0.0,0.0,0.0,0.0,0.0,0.0,0.0,0.0,0.0,0.0,0.0,0.0,0.0,0.0,0.0,0.0,0.0,0.0,0.0,0.0,0.0,0.0,0.0,0.0,0.0,0.0,0.0,0.0,0.0,-0.3767,-0.3755,-0.3574,-0.3067,-0.2178,-0.1398,-0.0951,-0.0784,-0.0489,0.01,0.0046,0.0,0.0,0.0,0.0,0.0,0.0,0.0,0.0,0.0,0.0,0.0,0.0,0.0,0.0,0.0,0.0,0.0,0.0,0.0,0.0,0.0,0.0,0.0,0.0,0.0,0.0,0.0,0.0,0.0,0.0,0.0,0.0,0.0,0.0,0.0,0.0,0.0,0.0,0.0,0.0,0.0,0.0,0.0,0.0,0.0,0.0,0.0,0.0,0.0,0.0,0.0,0.0,0.0,0.0,0.0,0.0,0.0,0.0,0.0,-1.4074,-1.3116,0.0,0.0,0.0,0.0,0.0,0.0,0.0,0.0,0.0,0.0,0.0,0.0,0.0,0.0,0.0,0.0,0.0,0.0,0.0,0.0,0.0,0.0,0.0,0.0,0.0,0.0,0.0,0.0,0.0,0.0,0.0,0.0,0.0,0.0,0.0,0.0,0.0,0.0,0.0,0.0,-0.3808,-0.3923,-0.3904,-0.3627,-0.3014,-0.24,-0.1842,-0.1564,-0.1149,-0.0363,-0.0241,0.0,0.0,0.0,0.0,0.0,0.0,0.0,0.0,0.0,0.0,0.0,0.0,0.0,0.0,0.0,0.0,0.0,0.0,0.0,0.0,0.0,0.0,0.0,0.0,0.0,0.0,0.0,0.0,0.0,0.0,0.0,0.0,0.0,0.0,0.0,0.0,0.0,0.0,0.0,0.0,0.0,0.0,0.0,0.0,0.0,0.0,0.0,0.0,0.0,0.0,0.0,0.0,0.0,-1.6572,-1.7075,-1.7953,-1.752,-1.747,-1.7615,-1.6197,-1.5383,-1.5061,-1.4211,0.0,0.0,0.0,0.0,0.0,0.0,0.0,0.0,0.0,0.0,0.0,0.0,0.0,0.0,0.0,0.0,0.0,0.0,0.0,0.0,0.0,0.0,-0.8895,-0.8853,-0.9354,-0.9407,-0.7988,0.0,0.0,0.0,0.0,0.0,0.0,0.0,0.0,0.0,0.0,0.0,-0.4128,-0.4369,-0.4405,-0.3904,-0.3738,-0.3458,-0.2959,-0.2512,-0.1929,-0.1125,-0.0906,-0.0705,0.0,0.0,0.0,0.0,0.0,0.0,0.0,0.0,0.0,0.0,0.0,0.0,0.0,0.0,0.0,0.0,0.0,0.0,0.0,0.0,0.0,0.0,0.0,0.0,0.0,0.0,0.0,0.0,0.0,0.0,0.0,0.0,-1.2208,-1.3356,0.0,0.0,0.0,0.0,0.0,0.0,0.0,0.0,0.0,0.0,0.0,0.0,0.0,-1.7774,-1.8542,-1.8931,-1.9191,-1.9263,-1.9756,-2.0057,-2.0189,-2.0117,-2.0117,-2.0141,-1.9869,0.0,-1.642,-1.5867,0.0,0.0,0.0,0.0,0.0,0.0,0.0,0.0,0.0,0.0,0.0,0.0,0.0,0.0,0.0,0.0,0.0,0.0,0.0,0.0,0.0,0.0,-1.0498,-1.0331,-1.0321,-1.0243,-1.0036,-0.8873,-0.7622,-0.6907,-0.668,-0.6517,0.0,0.0,0.0,0.0,0.0,0.0,-0.525,-0.5034,-0.4846,-0.4732,-0.4181,-0.3741,-0.3683,-0.3352,-0.307,-0.2945,-0.262,-0.1951,-0.0886,-0.0729,0.0,0.0,0.0,0.0,0.0,0.0,0.0,0.0,0.0,0.0,0.0,0.0,0.0,0.0,0.0,0.0,0.0,0.0,0.0,0.0,0.0,0.0,0.0,0.0,0.0,0.0,0.0,0.0,0.0,-1.3131,-1.4875,-1.5735,-1.6181,-1.6203,0.0,0.0,0.0,0.0,0.0,0.0,0.0,0.0,0.0,-1.9033,-1.9205,-1.9608,-2.0275,-2.0465,-2.0531,-2.0531,-2.0661,-2.0725,-2.0725,-2.061,-2.061,-2.0598,-2.0598,-1.9957,-1.8821,-1.7838,-1.7143,-1.6617,0.0,0.0,0.0,0.0,-1.3637,-1.2609,-1.2903,-1.2614,-1.2008,-1.1891,0.0,0.0,0.0,0.0,0.0,0.0,0.0,-1.0262,-1.0287,-1.071,-1.1092,-1.1033,-1.1056,-1.1032,-1.0732,-1.0137,-0.9298,-0.8274,-0.7795,-0.7445,-0.7002,-0.6613,0.0,0.0,0.0,-0.5585,-0.5659,-0.5354,-0.5184,-0.5184,-0.4889,-0.468,-0.4596,-0.4362,-0.4044,-0.3635,-0.3359,-0.2792,-0.1918,-0.1231,-0.0786,0.0,0.0,0.0,0.0,0.0,0.0,0.0,0.0,0.0,0.0,0.0,0.0,0.0,0.0,0.0,0.0,0.0,0.0,0.0,0.0,0.0,0.0,0.0,0.0,0.0,0.0,0.0,0.0,-1.538,-1.7016,-1.7622,-1.829,-1.8425,0.0,0.0,0.0,0.0,0.0,0.0,-1.9926,-1.98,-2.0185,-2.1381,-2.1362,-2.151,-2.2009,-2.1962,-2.1891,-2.1903,-2.1701,-2.1642,-2.1583,-2.1476,-2.1416,-2.1416,-2.1272,-2.1223,-2.1127,-1.9666,-1.8815,-1.8253,-1.7772,-1.6989,-1.6237,-1.6476,-1.569,-1.4613,-1.5057,-1.461,-1.3838,-1.3639,-1.301,-1.2289,-1.172,0.0,0.0,0.0,0.0,-1.1225,-1.1073,-1.1295,-1.1556,-1.1496,-1.1569,-1.1556,-1.1192,-1.1081,-1.0642,-0.9508,-0.9003,-0.853,-0.8023,-0.7702,0.0,-0.7211,-0.6924,-0.6663,-0.6553,-0.6119,-0.5763,-0.5763,-0.5582,-0.5412,-0.5342,-0.5214,-0.485,-0.4191,-0.4067,-0.3671,-0.2958,-0.2094,-0.1466,-0.116,0.0,0.0,0.0,0.0,0.0,0.0,0.0,0.0,0.0,0.0,0.0,0.0,0.0,0.0,0.0,0.0,0.0,0.0,0.0,0.0,0.0,0.0,0.0,0.0,0.0,0.0,0.0,0.0,0.0,-1.7957,-1.8993,0.0,0.0,0.0,0.0,-1.8981,-1.9784,-2.0643,-2.136,-2.1355,-2.2121,-2.3778,-2.3629,-2.3828,-2.4412,-2.4205,-2.414,-2.414,-2.392,-2.3855,-2.3855,-2.367,-2.3616,-2.358,-2.3087,-2.2859,-2.2739,-2.1139,-2.0177,-1.9696,-1.9672,-1.9173,-1.8447,-1.8519,-1.8111,-1.752,-1.7042,-1.6125,-1.5166,-1.5013,-1.4291,-1.3411,-1.3375,-1.294,0.0,0.0,-1.2414,-1.2404,-1.2263,-1.2251,-1.222,-1.2097,-1.1919,-1.1794,-1.1787,-1.1531,-1.1027,-1.0277,-1.0136,-0.9967,-0.948,0.0,-0.9302,-0.909,-0.8607,-0.8377,-0.8643,-0.7586,-0.6837,-0.6837,-0.6117,-0.5695,-0.5687,-0.551,-0.5318,-0.515,-0.5139,-0.472,-0.379,-0.3669,-0.3123,-0.206,-0.1849,0.0,0.0,0.0,0.0,0.0,0.0,0.0,0.0,0.0,0.0,0.0,0.0,0.0,0.0,0.0,0.0,0.0,0.0,0.0,0.0,0.0,0.0,0.0,0.0,0.0,0.0,0.0,0.0,-1.9926,-2.0458,0.0,-1.9703,-2.0771,-2.1427,-2.1129,-2.2166,-2.3014,-2.359,-2.4029,-2.4372,-2.4506,-2.4874,-2.4963,-2.4755,-2.4626,-2.4626,-2.4626,-2.4353,-2.4222,-2.4157,-2.3905,-2.3773,-2.3761,-2.3568,-2.3484,-2.3448,-2.2935,-2.1909,-2.0827,-2.0827,-2.033,-1.9641,-2.003,-1.9454,-1.8533,-1.8337,-1.745,-1.6321,-1.5675,-1.5223,-1.4861,-1.4675,-1.4267,-1.3808,-1.3639,-1.3418,-1.3132,-1.2862,-1.2703,-1.2585,-1.2298,-1.212,-1.1934,-1.1802,-1.1677,-1.1549,-1.1138,-1.0749,-1.0401,-1.0231,-0.9935,-0.9747,-0.9633,-0.9207,-0.8872,-0.8969,-0.8387,-0.7923,-0.7923,-0.7671,-0.7298,-0.6732,-0.6423,-0.5977,-0.5339,-0.5106,-0.4853,-0.4515,-0.407,-0.3589,-0.3179,-0.2916,-0.2556,0.0,0.0,0.0,0.0,0.0,0.0,0.0,0.0,0.0,0.0,0.0,0.0,0.0,0.0,0.0,0.0,0.0,0.0,0.0,0.0,0.0,0.0,0.0,0.0,0.0,-1.9919,-2.1053,-2.1988,-2.2549,-2.2724,-2.2349,-2.2929,-2.3482,-2.3813,-2.4088,-2.4684,-2.5729,-2.5755,-2.5717,-2.5741,-2.6168,-2.6039,-2.5372,-2.5623,-2.5623,-2.5372,-2.5041,-2.4841,-2.4841,-2.4493,-2.429,-2.4278,-2.4097,-2.4025,-2.4013,-2.3845,-2.3147,-2.2197,-2.2197,-2.1858,-2.1449,-2.1542,-2.0997,-2.0086,-1.931,-1.8258,-1.7056,-1.623,-1.5882,-1.5689,-1.544,-1.5163,-1.4894,-1.4453,-1.4115,-1.3859,-1.3379,-1.3186,-1.2993,-1.2766,-1.2656,-1.2434,-1.2193,-1.219,-1.2172,-1.187,-1.1421,-1.1029,-1.1029,-1.0828,-1.0697,-1.0636,-1.0302,-1.0072,-0.9913,-0.9478,-0.9156,-0.9005,-0.8807,-0.8356,-0.7565,-0.7168,-0.6602,-0.578,-0.5364,-0.5127,-0.5014,-0.4515,-0.4184,-0.4132,-0.3822,-0.3265,-0.2402,0.0,0.0,0.0,0.0,0.0,0.0,0.0,0.0,0.0,0.0,0.0,0.0,0.0,0.0,0.0,0.0,0.0,0.0,0.0,0.0,0.0,0.0,0.0,-2.0311,-2.1944,-2.3319,-2.4072,-2.5205,-2.5944,-2.5951,-2.5913,-2.6171,-2.6856,-2.5662,-2.5704,-2.761,-2.644,-2.6251,-2.7458,-2.7537,-2.7229,-2.6521,-2.7162,-2.7162,-2.6533,-2.6119,-2.591,-2.591,-2.5535,-2.5312,-2.5276,-2.4771,-2.4542,-2.4506,-2.4013,-2.3821,-2.3809,-2.3785,-2.3773,-2.3713,-2.3195,-2.2822,-2.2215,-2.0076,-1.8584,-1.7536,-1.6811,-1.6175,-1.5725,-1.5725,-1.5725,-1.5596,-1.4863,-1.4667,-1.4461,-1.38,-1.36,-1.3659,-1.3584,-1.3467,-1.333,-1.2913,-1.2976,-1.2981,-1.2443,-1.2195,-1.2,-1.1862,-1.2121,-1.2255,-1.2051,-1.1983,0.0,-1.157,-1.0916,-1.0398,-1.006,-0.9442,-0.8796,-0.8086,-0.7681,-0.7163,-0.65,-0.5944,-0.5531,-0.5313,-0.5187,-0.4963,-0.4691,-0.4558,-0.3942,-0.2865,0.0,0.0,0.0,0.0,0.0,0.0,0.0,0.0,0.0,0.0,0.0,0.0,0.0,0.0,0.0,0.0,0.0,0.0,0.0,0.0,0.0,-2.1601,-2.2602,-2.23,-2.3568,-2.4718,-2.5247,-2.6094,-2.6635,-2.6662,-2.6945,-2.7242,-2.7441,-2.7457,-2.7702,-2.8248,-2.8452,-2.8407,-2.8233,-2.8762,-2.8454,-2.7229,-2.7417,-2.7162,-2.6533,-2.627,-2.6131,-2.6131,-2.5828,-2.5676,-2.5523,-2.5378,-2.5235,-2.5083,-2.4939,-2.4891,-2.4807,-2.4061,-2.3773,-2.3749,-2.3604,-2.3556,-2.3245,-2.1966,-2.0675,-1.9427,-1.8582,-1.7542,-1.6569,-1.6569,-1.6365,-1.6082,-1.5876,-1.5661,-1.5317,-1.4569,-1.4367,-1.4234,-1.3707,-1.3592,-1.3502,-1.3298,-1.3286,-1.3258,-1.2958,-1.2999,-1.2953,-1.2431,-1.2333,-1.2255,-1.2255,-1.2119,-1.1948,-1.1864,-1.1514,-1.1211,-1.1129,-1.0732,-1.0218,-0.9506,-0.9028,-0.8326,-0.719,-0.6606,-0.6119,-0.5657,-0.5421,-0.5128,-0.4846,-0.4599,-0.4341,0.0,0.0,0.0,0.0,0.0,0.0,0.0,0.0,0.0,0.0,0.0,0.0,0.0,0.0,0.0,0.0,0.0,0.0,0.0,0.0,0.0,0.0,-2.3487,-2.4708,-2.4583,-2.5234,-2.6167,-2.7242,-2.7801,-2.8152,-2.8404,-2.8497,-2.8615,-2.8862,-2.8683,-2.8748,-2.9331,-2.9219,-2.9093,-2.8953,-2.9359,-2.8903,-2.7484,-2.7802,-2.7417,-2.6533,-2.627,-2.6213,-2.6213,-2.591,-2.5688,-2.5606,-2.5535,-2.5382,-2.5312,-2.5312,-2.5312,-2.5252,0.0,0.0,0.0,0.0,-2.3953,-2.3694,-2.2989,-2.1958,-2.0885,-2.0205,-1.8993,-1.775,-1.775,-1.7355,-1.6794,-1.6581,-1.6316,-1.586,-1.528,-1.5022,-1.4825,-1.4344,-1.4159,-1.3989,-1.3719,-1.3805,-1.3799,-1.3438,-1.3693,0.0,-1.3237,-1.3068,-1.2866,-1.2796,-1.2719,-1.2598,-1.247,-1.2223,-1.2052,-1.1916,-1.1625,-1.1177,-1.0451,-0.9936,0.0,0.0,0.0,-0.6653,-0.5961,-0.5632,0.0,0.0,0.0,0.0,0.0,0.0,0.0,0.0,-0.1388,-0.05,0.0,0.0,0.0,0.0,0.0,0.0,0.0,0.0,0.0,0.0,0.0,0.0,0.0,0.0,0.0,0.0,-2.4989,-2.6383,-2.694,-2.7023,-2.7681,-2.9405,-2.9667,-2.9958,-3.051,-3.0068,-2.9931,-3.0568,-2.9456,-2.9268,-3.0507,-2.9407,0.0,0.0,0.0,-2.903,-2.7604,-2.8182,-2.7868,-2.6533,-2.6339,-2.6201,-2.6201,-2.5828,-2.5676,-2.5606,-2.5382,-2.5312,-2.5312,-2.5312,-2.5312,-2.5312,-2.5312,-2.5312,-2.5252,-2.4783,-2.4326,-2.3941,-2.3582,0.0,0.0,-2.1555,-2.0431,-1.9175,-1.9112,-1.8417,-1.7559,-1.7261,-1.6813,-1.6395,-1.6052,-1.5681,-1.5396,-1.5213,-1.4919,-1.4554,-1.4236,-1.4418,-1.4474,-1.4011,-1.4206,-1.4353,-1.4209,-1.3928,-1.3717,-1.3572,-1.3499,-1.3389,-1.3104,-1.3031,-1.2899,-1.2606,-1.2284,0.0,-1.1213,-1.0577,-0.9997,-0.9401,-0.8242,-0.7121,-0.6169,-0.6013,-0.5835,-0.5702,-0.5413,-0.5255,-0.5275,-0.5168,-0.4942,-0.4642,-0.1977,-0.0491,0.0,0.0,0.0,0.0,0.0,0.0,0.0,0.0,0.0,0.0,0.0,0.0,0.0,0.0,0.0,-2.5827,-2.7176,-2.8279,-2.8955,-2.9018,-2.9175,-2.9563,-3.0079,-3.0437,-3.0568,-3.0507,-3.0447,-3.0568,-3.0372,-3.0312,-3.0568,-3.0312,-3.0251,-3.0387,-3.0387,-2.9732,-2.8298,-2.8427,-2.7868,-2.6533,-2.6465,0.0,-2.6396,-2.6188,-2.5992,-2.584,-2.5606,-2.5453,-2.5312,-2.5312,-2.5312,-2.5312,-2.5312,-2.5312,-2.53,-2.5192,-2.5095,-2.5011,-2.4929,-2.4015,-2.2886,-2.2451,-2.1386,-2.0165,-1.9919,-1.9281,0.0,-1.8623,-1.822,-1.7587,-1.6883,-1.665,-1.6355,-1.5413,-1.5133,-1.4974,-1.4625,-1.4522,-1.4545,-1.4474,-1.4522,-1.4497,-1.4353,-1.4008,-1.379,-1.3725,-1.3572,-1.347,-1.3411,-1.317,-1.2987,-1.2921,-1.2621,-1.2356,-1.2215,-1.1869,-1.1284,-1.0468,-0.9303,-0.7951,-0.6552,-0.6997,-0.6946,-0.6258,-0.5955,-0.5791,-0.5767,-0.5655,-0.5212,-0.4546,-0.2641,-0.1614,0.0,0.0,0.0,0.0,0.0,0.0,0.0,0.0,0.0,0.0,0.0,-2.3217,-2.3848,0.0,-2.6441,-2.7069,-2.7673,-2.8433,-2.9442,-2.9282,-2.9282,-3.0007,-3.0387,-3.0568,-3.0568,-3.0568,-3.0568,-3.0568,-3.0872,-3.1047,-3.1047,-3.1366,-3.154,-3.154,-3.1137,-3.0665,-3.0021,-2.9613,-2.8718,-2.7451,-2.7451,-2.7118,-2.6465,-2.627,-2.6062,-2.591,-2.5688,-2.5465,-2.5312,-2.5312,-2.5312,-2.5312,-2.5312,-2.5312,-2.5312,-2.5312,-2.5312,-2.5312,-2.5312,-2.4566,-2.3644,-2.35,-2.2444,-2.123,-2.1114,-2.0434,-1.9738,-1.9422,-1.8917,-1.8424,-1.7715,-1.7358,-1.7002,-1.6241,-1.5909,-1.563,-1.5057,-1.4913,-1.4848,-1.4641,-1.4569,-1.4569,-1.4497,-1.4289,-1.4072,-1.4,-1.3848,-1.3775,-1.3775,-1.3633,-1.3528,-1.3528,-1.3237,-1.2974,-1.2905,-1.2535,-1.194,-1.1179,-1.0503,-0.9456,-0.7884,-0.8115,-0.7867,-0.6934,-0.6737,-0.6655,-0.6753,-0.6505,-0.6188,-0.5786,-0.4389,-0.2908,0.0,0.0,0.0,0.0,0.0,0.0,0.0,0.0,-2.2694,-2.2578,-2.4418,-2.6112,-2.637,-2.7214,-2.7879,-2.8188,-2.8193,-2.8519,-2.9623,-2.9282,-2.9331,-3.0447,-3.0568,-3.0568,-3.0568,-3.0568,-3.0626,-3.0756,-3.1235,-3.1584,-3.1714,-3.2222,-3.2513,-3.2513,-3.1889,-3.1481,-3.1296,-3.0596,-2.9656,-2.8365,-2.8365,-2.7798,-2.6779,-2.6469,-2.6223,-2.6058,-2.5654,-2.5453,-2.5312,-2.5312,-2.5312,-2.5312,-2.5312,-2.5312,-2.5312,-2.5312,-2.5312,-2.5312,-2.5312,-2.4897,-2.4406,-2.4261,-2.3446,-2.2478,-2.2327,-2.1613,-2.0791,-2.0246,-1.9766,-1.9271,-1.8536,-1.8136,-1.7725,-1.7154,-1.6753,-1.6317,-1.5575,-1.534,-1.5178,-1.476,-1.48,-1.48,-1.4593,-1.4552,-1.4431,-1.4217,-1.4129,-1.4129,-1.4129,-1.4129,-1.4129,-1.4129,-1.3828,-1.3605,-1.3457,-1.3011,-1.2402,-1.1772,-1.1717,-1.1025,-0.9389,-0.9321,-0.8853,-0.7844,-0.7697,-0.7642,-0.7668,-0.7347,-0.7149,-0.7081,-0.6064,-0.4184,-2.0451,-2.1119,-2.1844,-2.2497,-2.3093,-2.3923,0.0,0.0,-2.5642,-2.6175,-2.6572,-2.7124,-2.8212,-2.851,-2.8972,-3.011,-3.0269,-3.0312,-3.0447,-3.0447,-3.0433,-3.0568,-3.0568,-3.0568,-3.0568,-3.0568,-3.08,-3.1366,-3.1482,-3.1772,-3.2382,-3.2483,-3.2513,-3.2513,-3.2384,-3.1758,-3.0446,-3.031,-2.9591,-2.8154,-2.8154,-2.8044,-2.7908,-2.7192,-2.6825,-2.6599,-2.5742,-2.5312,-2.5312,-2.5312,-2.5312,-2.5312,-2.5312,-2.5312,-2.5312,-2.5312,-2.5312,-2.5312,-2.5312,-2.5241,-2.5099,-2.4406,-2.4116,-2.3824,-2.315,-2.2446,-2.1952,-2.1866,-2.1359,-2.0695,-1.9696,-1.9363,-1.9042,-1.7716,-1.7093,-1.6699,-1.6304,-1.5891,-1.5551,-1.5181,-1.5356,-1.5364,-1.4672,-1.4911,-1.4941,-1.4472,-1.4201,-1.4129,-1.4129,-1.4129,-1.4129,-1.4129,-1.4099,-1.4004,-1.4004,-1.3706,-1.3167,-1.2515,-1.2611,-1.2016,-1.066,-1.1009,-1.0535,-0.9104,-0.8878,-0.8473,-0.7801,-0.7761,-0.7625,-0.7413,-0.6518,-0.536,-2.2759,-2.3441,-2.3891,-2.4921,-2.5647,-2.6231,-2.6693,-2.7158,-2.7612,-2.7893,-2.8549,-2.9174,-2.9686,-2.9487,-2.9511,-3.0464,-2.9917,-2.9656,-3.0507,-3.0251,-3.019,-3.0568,-3.0901,-3.0988,-3.0611,-3.0568,-3.0843,-3.1467,-3.1888,-3.2382,-3.3035,-3.3412,-3.363,-3.363,-3.3188,-3.2837,-3.2701,-3.1777,-3.0882,-2.9992,-2.9502,-2.8839,-2.8097,-2.7653,-2.7322,-2.6919,-2.6142,-2.5769,-2.5745,-2.5432,-2.5312,-2.5312,-2.5312,-2.5312,-2.5312,-2.5312,-2.5312,-2.5312,-2.5312,-2.5182,-2.4909,-2.4418,-2.4043,-2.374,-2.315,-2.2852,-2.2553,-2.2176,-2.1949,-2.1517,-2.0771,-2.0493,-2.0225,-1.9047,-1.8605,-1.8203,-1.7218,-1.6673,-1.6253,-1.5945,-1.5731,-1.5586,-1.5292,-1.5372,-1.5419,-1.5194,-1.493,-1.466,-1.4449,-1.4605,-1.4652,-1.4441,-1.4353,-1.4281,-1.4281,-1.4007,-1.3787,-1.3487,-1.3509,-1.3067,-1.2046,-1.2196,-1.1768,-1.055,-0.9963,-0.9458,-0.9033,-0.8459,-0.8125,-0.7979,-0.7618,-0.711,-2.4123,-2.4965,-2.5647,-2.6765,-2.765,-2.8134,-2.7698,-2.8426,-2.9204,-2.9237,-2.9935,-3.0568,-3.0568,-3.019,-3.0007,-3.0507,-2.9718,-2.947,-3.0447,-3.019,-3.0068,-3.0507,-3.0988,-3.1148,-3.0858,-3.0843,-3.1177,-3.199,-3.2338,-3.2875,-3.3688,-3.4167,-3.4264,-3.4045,-3.352,-3.3297,-3.3451,-3.2362,-3.1495,-3.0876,-3.032,-2.9535,-2.8561,-2.8201,-2.7742,-2.7261,-2.6638,-2.6311,-2.6069,-2.5685,-2.5444,-2.5312,-2.5312,-2.5312,-2.5312,-2.5312,-2.5312,-2.5312,-2.5312,-2.5111,-2.4849,-2.449,-2.4116,-2.3677,-2.3298,-2.3075,-2.2927,-2.2478,-2.2327,-2.2176,-2.1624,-2.1471,-2.1242,-2.0304,-1.9908,-1.9526,-1.8309,-1.7795,-1.7261,-1.6613,-1.6285,-1.6068,-1.579,-1.5753,-1.5793,-1.569,-1.5554,-1.5332,-1.4975,-1.5078,-1.5046,-1.4609,-1.4497,-1.4425,-1.4425,-1.4353,-1.4274,-1.4274,-1.4201,-1.3905,-1.331,-1.3237,-1.2792,-1.1822,-1.1087,-1.0426,-0.9986,-0.9143,-0.8639,-0.8567,-0.8532,-0.8466,0.0,-2.5284,-2.6881,-2.7534,-2.8652,-2.9566,-2.9508,-3.006,-3.0524,-3.0539,-3.0553,-3.0568,-3.0568,-3.0568,-3.0568,-3.0568,-3.0568,-3.0568,-3.0568,-3.0568,-3.0568,-3.0568,-3.0597,-3.0843,-3.1438,-3.1482,-3.2019,-3.3311,-3.2861,-3.3064,-3.4312,-3.4399,-3.4045,-3.3297,-3.3213,-3.2492,-3.1044,-3.0957,-3.0545,-2.9844,-2.9844,-2.9754,-2.9716,-2.9024,-2.825,-2.752,-2.7261,-2.6723,-2.6093,-2.6081,-2.5769,-2.5312,-2.5312,-2.5312,-2.5312,-2.5312,-2.5312,-2.5312,-2.5312,-2.5312,-2.5241,-2.4921,-2.449,-2.4116,-2.3666,-2.3298,-2.3001,-2.3001,-2.3001,-2.2852,-2.2252,-2.2101,-2.1949,-2.1318,-2.0817,-2.0333,-1.965,-1.9256,-1.8497,-1.7125,-1.7119,-1.6967,-1.5878,-1.596,-1.6071,-1.5729,-1.596,-1.6047,-1.569,-1.538,-1.5046,-1.4609,-1.4569,-1.4569,-1.4569,-1.4569,-1.4569,-1.4569,-1.4425,-1.4361,-1.4353,-1.4209,-1.368,-1.2865,-1.2291,-1.1397,-1.019,-0.9751,-0.9404,-0.902,-0.8981,-0.8991,-2.6155,-2.7215,-2.8202,-2.8826,-2.9624,-3.0248,-3.0248,-3.0422,-3.0568,-3.0568,-3.0568,-3.0568,-3.0568,-3.0568,-3.0568,-3.0568,-3.093,-3.1206,-3.1206,-3.1584,-3.1859,-3.1859,-3.2237,-3.2571,-3.2788,-3.2019,-3.2063,-3.3369,-3.3267,-3.3514,-3.437,-3.4414,-3.4264,-3.4031,-3.3977,-3.352,-3.242,-3.1928,-3.1267,-3.0545,-2.9998,-2.9702,-2.9509,-2.918,-2.875,-2.8322,-2.775,-2.742,-2.7152,-2.6791,-2.655,-2.6382,-2.6382,-2.6382,-2.6346,-2.5961,-2.6069,-2.6286,-2.5564,-2.5312,-2.517,-2.4622,-2.4502,-2.4418,-2.353,-2.3298,-2.3372,-2.3075,-2.3001,-2.2927,-2.2777,-2.2703,-2.2553,-2.1939,-2.17,-2.1385,-2.0769,-2.0285,-1.9837,-1.9394,-1.8611,-1.7912,-1.7497,-1.6943,-1.6516,-1.6397,-1.6079,-1.5896,-1.6015,-1.5721,-1.5467,-1.534,-1.5332,-1.5332,-1.5332,-1.5332,-1.5332,-1.5332,-1.5257,-1.5257,-1.5257,-1.5174,-1.4948,-1.4577,-1.3877,-1.295,-1.2014,-1.1327,-1.0578,-0.9707,-0.9766,-0.9702,-2.7621,-2.8361,-2.8884,-2.9755,-3.0277,-3.0568,-3.0568,-3.0568,-3.0568,-3.0568,-3.0393,-3.0306,-3.0539,-3.0205,-3.0118,-3.08,-3.1061,-3.1351,-3.1801,-3.2251,-3.2513,-3.2513,-3.2875,-3.3224,-3.3441,-3.2716,-3.2658,-3.3732,-3.3601,-3.3746,-3.4385,-3.4414,-3.4264,-3.3962,-3.4192,-3.3691,-3.242,-3.2144,-3.1492,-3.0482,-2.9998,-2.9702,-2.9521,-2.9378,-2.9209,-2.8858,-2.8373,-2.8053,-2.7693,-2.7356,-2.7103,-2.6935,-2.6935,-2.6935,-2.6887,-2.6526,-2.6622,-2.6803,-2.5901,-2.5588,-2.5517,-2.5025,-2.4774,-2.4418,-2.3677,-2.3372,-2.3298,-2.3075,-2.3001,-2.3001,-2.3001,-2.3001,-2.2927,-2.2478,-2.2402,-2.2252,-2.1634,-2.1298,-2.0904,-2.0275,-1.9413,-1.863,-1.8238,-1.761,-1.7139,-1.6984,-1.6748,-1.6401,-1.619,-1.6164,-1.6049,-1.5766,-1.5674,-1.5674,-1.5674,-1.5674,-1.5674,-1.5674,-1.5827,-1.5827,-1.5682,-1.5827,-1.5758,-1.5543,-1.4824,-1.4038,-1.3331,-1.2475,-1.1549,-1.074,-1.0658,-1.0513,-2.839,-2.8753,-2.9073,-3.0277,-3.0568,-3.0568,-3.0568,-3.0568,-3.0568,-3.0539,-3.0016,-2.9755,-3.0321,-2.9493,-2.9319,-3.1119,-3.1032,-3.1148,-3.2396,-3.26,-3.2614,-3.2614,-3.2614,-3.2861,-3.3499,-3.3572,-3.3833,-3.4457,-3.392,-3.3848,-3.4472,-3.4516,-3.4146,-3.3382,-3.4015,-3.3321,-3.1101,-3.1638,-3.1177,-2.9829,-2.9804,-2.9792,-2.9792,-2.9792,-2.9546,-2.9052,-2.9052,-2.8536,-2.7765,-2.7765,-2.7464,-2.7007,-2.7007,-2.7007,-2.7007,-2.6983,-2.6995,-2.6935,-2.637,-2.6166,-2.6142,-2.6142,-2.5297,-2.4269,-2.4235,-2.3638,-2.3034,-2.3012,-2.3001,-2.3001,-2.3001,-2.3001,-2.3001,-2.3001,-2.3001,-2.2852,-2.2252,-2.2176,-2.1711,-2.006,-1.9678,-1.9283,-1.8273,-1.804,-1.7878,-1.7473,-1.7797,-1.7582,-1.6437,-1.6635,-1.6661,-1.5846,-1.5806,-1.5806,-1.5729,-1.5806,-1.5806,-1.5729,-1.6106,-1.6182,-1.5806,-1.6182,-1.619,-1.5806,-1.5265,-1.4721,-1.4323,-1.3238,-1.2471,-1.2064,-1.1555,-1.1322,-2.9174,-2.9726,-3.0176,-3.0495,-3.0568,-3.0568,-3.0568,-3.0568,-3.0437,-2.9972,-2.9363,-2.8826,-2.8521,-2.8956,-2.9552,-3.0031,-3.1584,-3.2846,-3.318,-3.363,-3.3935,-3.3935,-3.3935,-3.4182,-3.4889,-3.4947,-3.514,-3.5778,-3.5241,-3.5154,-3.5793,-3.5822,-3.5737,-3.551,-3.6158,-3.5653,-3.3786,-3.2251,-3.1149,-3.0407,-2.9993,-2.9702,-2.9509,-2.9365,-2.9131,-2.8882,-2.8736,-2.8505,-2.8318,-2.8318,-2.8234,-2.8114,-2.8114,-2.8114,-2.8065,-2.7669,-2.7765,-2.8029,-2.7488,-2.7055,-2.6644,-2.6332,-2.6012,-2.5611,-2.463,-2.4142,-2.3849,-2.3174,-2.3001,-2.3001,-2.3001,-2.3001,-2.3001,-2.3001,-2.3001,-2.2927,-2.2777,-2.2777,-2.2617,-2.2231,-2.1125,-1.9963,-1.8886,-1.8345,-1.7959,-1.7878,-1.821,-1.8175,-1.7187,-1.7493,-1.754,-1.7039,-1.7271,-1.7183,-1.646,-1.679,-1.679,-1.6468,-1.6541,-1.671,-1.6951,-1.7031,-1.7191,-1.7422,-1.6951,-1.646,-1.5805,-1.4731,-1.369,-1.2765,-1.2151,-1.1666,-2.9871,-3.0306,-3.0568,-3.0568,-3.0568,-3.0422,-2.9871,-2.974,-2.9406,-2.8187,-2.765,-2.7215,-2.6524,-2.7505,-2.8652,-2.9493,-3.1308,-3.2904,-3.3761,-3.4196,-3.4414,-3.4414,-3.4907,-3.5386,-3.5749,-3.604,-3.6475,-3.7099,-3.6286,-3.6054,-3.6707,-3.6751,-3.6867,-3.7128,-3.7781,-3.7329,-3.556,-3.3679,-3.211,-3.0947,-3.0566,-2.9995,-2.9419,-2.9197,-2.8961,-2.8803,-2.8645,-2.8578,-2.851,-2.851,-2.851,-2.851,-2.851,-2.851,-2.8474,-2.8174,-2.8258,-2.8474,-2.8174,-2.7873,-2.7507,-2.7038,-2.6647,-2.6171,-2.5207,-2.4822,-2.4535,-2.3886,-2.3656,-2.3602,-2.3383,-2.3482,-2.3591,-2.3372,-2.3493,-2.3656,-2.3656,-2.3482,-2.3102,-2.2348,-2.1221,-2.0138,-1.9283,-1.8816,-1.8514,-1.8362,-1.8683,-1.8683,-1.8049,-1.821,-1.8129,-1.7716,-1.7878,-1.7789,-1.7302,-1.7546,-1.7554,-1.7302,-1.7465,-1.7635,-1.7635,-1.7878,-1.7968,-1.804,-1.7797,-1.7465,-1.7131,-1.5801,-1.472,-1.4048,-1.2954,-1.2272,-3.0422,-3.0568,-3.0568,-3.0568,-3.0568,-3.0248,-2.8971,-2.8608,-2.7998,-2.6054,-2.5517,-2.5241,-2.4641,-2.572,-2.7273,-2.9189,-3.0713,-3.2295,-3.4153,-3.4486,-3.4545,-3.4545,-3.5662,-3.6475,-3.6548,-3.7172,-3.781,-3.8405,-3.7433,-3.7027,-3.7535,-3.7636,-3.7881,-3.8399,-3.8991,-3.845,-3.6712,-3.5359,-3.3713,-3.1642,-3.1415,-3.076,-2.9663,-2.945,-2.9206,-2.8901,-2.8901,-2.8718,-2.851,-2.851,-2.851,-2.851,-2.851,-2.851,-2.851,-2.851,-2.851,-2.851,-2.851,-2.851,-2.8426,-2.7981,-2.7192,-2.634,-2.5908,-2.5496,-2.5015,-2.4656,-2.4486,-2.4388,-2.394,-2.4159,-2.4377,-2.394,-2.417,-2.4486,-2.4486,-2.4137,-2.3393,-2.1891,-2.1103,-2.0468,-1.9781,-1.9613,-1.9366,-1.886,-1.9073,-1.9143,-1.8851,-1.8772,-1.8612,-1.8121,-1.8121,-1.8112,-1.8031,-1.804,-1.804,-1.804,-1.8371,-1.8451,-1.8121,-1.8451,-1.8531,-1.8193,-1.8121,-1.8121,-1.8121,-1.6617,-1.5711,-1.5394,-1.3971,-1.313,-3.0539,-3.0568,-3.0568,-3.0568,-3.0568,-3.0248,-2.8971,-2.8274,0.0,-2.535,-2.4119,-2.3351,-2.3235,-2.4747,-2.6591,-2.8521,-3.0814,-3.2832,-3.4211,-3.4864,-3.5198,-3.5198,-3.6344,-3.7331,-3.7825,-3.8478,-3.9117,-3.9726,-3.9567,-3.9276,-3.8884,-3.9349,-3.9585,-3.9473,-3.9518,-3.8725,-3.6911,-3.6232,-3.4912,-3.3096,-3.2649,-3.1846,-3.0894,-3.081,-3.024,-2.9229,-2.9229,-2.8907,-2.851,-2.851,-2.851,-2.851,-2.851,-2.851,-2.851,-2.851,-2.851,-2.851,-2.851,-2.851,-2.8498,-2.8402,-2.7738,-2.6933,-2.653,-2.5768,-2.5048,-2.4596,-2.4486,-2.4465,-2.4377,-2.4421,-2.4465,-2.4377,-2.4421,-2.4486,-2.4486,-2.4421,-2.4255,-2.4,-2.3403,-2.2621,-2.162,-2.1074,-2.032,-1.9356,-1.9222,-1.9301,-1.9222,-1.9231,-1.9073,-1.8612,-1.8913,-1.8745,-1.804,-1.8371,-1.8451,-1.804,-1.804,-1.8282,-1.854,-1.87,-1.8851,-1.9063,-1.8763,-1.8612,-1.8612,-1.7367,-1.637,-1.5621,-1.4789,-1.4048,-3.0568,-3.0568,-3.0568,-3.0568,-3.0568,-3.0074,-2.8129,0.0,0.0,-2.3368,-2.2628,-2.2251,-2.1583,-2.3557,-2.5705,-2.6968,-2.9058,-3.1206,-3.3151,-3.3978,-3.4632,-3.5354,-3.6794,-3.8028,-3.8667,-3.9291,-3.9929,-4.0568,-4.0612,-4.0495,-4.0205,-4.0786,-4.1117,-4.091,-4.0924,-4.004,-3.8172,-3.7878,-3.6426,-3.3953,-3.368,-3.2857,-3.1648,-3.1357,-3.0858,-3.011,-2.9833,-2.9412,-2.8919,-2.8919,-2.8751,-2.851,-2.851,-2.851,-2.851,-2.851,-2.851,-2.851,-2.851,-2.851,-2.851,-2.851,-2.8179,-2.7718,-2.7071,-2.6587,-2.6136,-2.5447,-2.5218,-2.5164,-2.4912,-2.5033,-2.5164,-2.4902,-2.5033,-2.5153,-2.4902,-2.4847,-2.469,-2.41,-2.3716,-2.3231,-2.2382,-2.1696,-2.114,-2.0614,-2.0003,-1.9622,-1.9622,-1.9439,-1.9231,-1.9002,-1.9152,-1.9143,-1.8745,-1.8913,-1.8913,-1.8665,-1.8674,-1.8754,-1.9002,-1.9002,-1.9073,-1.9301,-1.9073,-1.9002,-1.9002,-1.8014,-1.7261,-1.6675,-1.5448,-1.4545,-3.0568,-3.0568,-3.0568,-3.0568,-3.0466,-2.974,-2.7331,-2.6054,0.0,-2.1598,-2.1322,-2.1322,-2.0451,-2.2556,-2.4776,0.0,-2.7505,-2.9581,-3.215,-3.3296,-3.4365,-3.543,-3.7185,-3.8471,-3.8991,-3.9506,-4.0126,-4.079,-4.1059,-4.1227,-4.1308,-4.1802,-4.2009,-4.1814,-4.2009,-4.1184,-3.9197,-3.9373,-3.8105,-3.5287,-3.5118,-3.4255,-3.2855,-3.2152,-3.1525,-3.1098,-3.0482,-2.9953,-2.946,-2.9352,-2.9051,-2.8667,-2.8558,-2.851,-2.851,-2.851,-2.851,-2.851,-2.851,-2.851,-2.851,-2.851,-2.8431,-2.8271,-2.7522,-2.7185,-2.694,-2.6218,-2.5979,-2.5819,-2.5426,-2.5611,-2.5808,-2.5415,-2.5622,-2.5797,-2.5415,-2.5327,-2.5126,-2.4158,-2.4002,-2.3819,-2.3074,-2.2396,-2.187,-2.1617,-2.0669,-2.0063,-2.0063,-1.9696,-1.9439,-1.9439,-1.9356,-1.9301,-1.9301,-1.9301,-1.9301,-1.9301,-1.9301,-1.9301,-1.9301,-1.9301,-1.9301,-1.9301,-1.9301,-1.9301,-1.9301,-1.8647,-1.8078,-1.7738,-1.6273,-1.5365,-3.0568,-3.0568,-3.0568,-3.0568,-3.0132,-2.9189,-2.7229,0.0,-2.3484,-2.1423,-2.0611,-2.0407,-2.0843,-2.212,-2.3858,-2.63,0.0,-2.9581,-3.215,-3.4051,-3.5444,-3.6141,-3.7613,-3.856,-3.8631,-3.8871,-3.925,-3.9899,-4.0814,-4.1576,-4.2005,-4.2063,-4.1717,-4.0788,-4.1619,-4.1184,-3.9197,-4.0073,-3.9743,-3.8385,-3.7508,-3.6649,-3.5749,-3.4168,-3.2876,-3.1928,-3.1209,-3.0506,-2.9977,-2.9496,-2.9268,-2.9184,-2.8703,-2.851,-2.851,-2.851,-2.851,-2.851,-2.851,-2.851,-2.851,-2.851,-2.8283,-2.7962,-2.7881,-2.7208,-2.6528,-2.6445,-2.6218,-2.5884,-2.5852,-2.5874,-2.5884,-2.5852,-2.5874,-2.5884,-2.5841,-2.5841,-2.5819,-2.5692,-2.5681,-2.5362,-2.4251,-2.3514,-2.2705,-2.1748,-2.0903,-2.0466,-2.0466,-2.0118,-1.987,-1.987,-1.9531,-1.9301,-1.9301,-1.9301,-1.9301,-1.9301,-1.9301,-1.9301,-1.9301,-1.9301,-1.9301,-1.9301,-1.9301,-1.9301,-1.9301,-1.9222,-1.8727,-1.7997,-1.7836,-1.6854,-3.0364,-3.0568,-3.0568,-3.0568,-3.0103,-2.9015,-2.6707,-2.4994,-2.3238,-2.093,-2.0262,-2.0277,-2.0886,-2.1743,-2.3078,0.0,-2.6039,-2.7273,-2.9842,-3.1845,-3.3572,-3.4994,-3.6503,-3.7725,-3.856,-3.845,-3.8686,-3.9566,-4.0028,-4.0402,-4.0887,-4.1396,-4.1647,-4.1535,-4.1647,-4.1184,-4.0073,-4.0159,-3.936,-3.773,-3.723,-3.6206,-3.4829,-3.3942,-3.3138,-3.2321,-3.1677,-3.0867,-3.0074,-2.9857,-2.94,-2.8799,-2.8595,-2.851,-2.851,-2.851,-2.851,-2.851,-2.851,-2.851,-2.851,-2.851,-2.8351,-2.8191,-2.7615,-2.7371,-2.7208,-2.6385,-2.6218,-2.6218,-2.5979,-2.5895,-2.5895,-2.5895,-2.5895,-2.5895,-2.5895,-2.5895,-2.5895,-2.5895,-2.5895,-2.5663,-2.4788,-2.4409,-2.3754,-2.2485,-2.1892,-2.1381,-2.0955,-2.053,-2.0283,-2.0283,-1.9696,-1.9301,-1.9301,-1.9301,-1.9301,-1.9301,-1.9301,-1.9301,-1.9301,-1.9301,-1.9301,-1.9301,-1.9301,-1.9301,-1.9301,-1.9301,-1.9134,-1.8807,-1.8238,-1.7801,-2.9869,-3.0303,-3.0462,-3.0462,-2.9899,-2.8724,-2.6329,-2.466,-2.2947,-2.0582,-2.0103,-2.0277,-2.0886,-2.138,-2.2323,0.0,-2.4655,-2.5807,-2.8565,-3.0611,-3.2527,-3.4457,-3.5698,-3.681,-3.7741,-3.7601,-3.7833,-3.8605,-3.8965,-3.9226,-3.9533,-4.016,-4.0827,-4.1802,-4.1457,-4.1265,-4.1057,-4.0717,-3.9724,-3.8003,-3.7404,-3.6227,-3.4642,-3.3783,-3.3089,-3.2545,-3.199,-3.124,-3.0543,-3.0386,-2.9785,-2.8967,-2.8799,-2.8643,-2.851,-2.851,-2.851,-2.851,-2.851,-2.851,-2.851,-2.851,-2.851,-2.8351,-2.7603,-2.7534,-2.7464,-2.6385,-2.6218,-2.629,-2.5979,-2.5895,-2.5895,-2.5895,-2.5895,-2.5895,-2.5895,-2.5895,-2.5895,-2.5895,-2.5895,-2.5728,-2.5031,-2.468,-2.4166,-2.2969,-2.2534,-2.216,-2.164,-2.1286,-2.1034,-2.1034,-2.0154,-1.9613,-1.9494,-1.9485,-1.943,-1.9311,-1.9301,-1.9301,-1.9301,-1.9301,-1.9301,-1.9301,-1.9301,-1.9366,-1.9485,-1.9485,-1.9485,-1.9494,-1.8949,-1.8794,-2.8968,-2.9625,-3.0111,-3.0111,-2.9405,-2.8173,-2.6228,-2.4312,-2.2366,-2.0494,-2.0103,-2.0277,-2.0886,-2.1003,-2.1641,-2.3586,-2.4428,-2.5901,-2.916,-3.1279,-3.3209,-3.5125,-3.5554,-3.5821,-3.6023,-3.6397,-3.6605,-3.6605,-3.7648,-3.8228,-3.8228,-3.8242,-3.9114,-4.1091,-4.1105,-4.1424,-4.2092,-4.2092,-4.1451,-4.0246,-3.8746,-3.7325,-3.6134,-3.3798,-3.2791,-3.2755,-3.2055,-3.1661,-3.1613,-3.1084,-3.0555,-3.0013,-2.9496,-2.8967,-2.851,-2.851,-2.851,-2.851,-2.851,-2.851,-2.851,-2.851,-2.851,-2.8431,-2.8042,-2.7534,-2.7103,-2.661,-2.6207,-2.5906,-2.5895,-2.5895,-2.5895,-2.5895,-2.5895,-2.5895,-2.5895,-2.5895,-2.5895,-2.5895,-2.5895,-2.5728,-2.5031,-2.4327,-2.3541,-2.2882,-2.2794,-2.2794,-2.2794,-2.2409,-2.2215,-2.2215,-2.1165,-2.0347,-1.9962,-1.9925,-1.9742,-1.9329,-1.9301,-1.9301,-1.9301,-1.9301,-1.9301,-1.9301,-1.9301,-1.9503,-1.9925,-1.9925,-1.9925,-1.9934,-2.0319,-2.0202,-2.6549,-2.6982,-2.7039,-2.665,-2.6269,-2.5546,-2.363,-2.273,-2.1743,-1.9812,-1.942,-1.9609,-2.0262,-2.0378,-2.1438,-2.466,-2.5357,0.0,-2.9827,-3.168,-3.313,-3.4163,-3.5413,-3.61,-3.5809,-3.5939,-3.6089,-3.6426,-3.6766,-3.7104,-3.741,-3.741,-3.8032,-3.9577,-3.9702,-3.9957,-4.0503,-3.9787,-3.8888,-3.8046,-3.6326,-3.4906,-3.3678,-3.2895,-3.2352,-3.2067,-3.1821,-3.1456,-3.1108,-3.0951,-3.035,-2.9532,-2.9364,-2.8979,-2.851,-2.851,-2.851,-2.851,-2.851,-2.851,-2.851,-2.851,-2.851,-2.8431,-2.8042,-2.78,-2.7534,-2.6693,-2.6207,-2.5895,-2.5895,-2.5895,-2.5895,-2.5895,-2.5895,-2.5895,-2.5895,-2.5895,-2.5895,-2.5895,-2.5895,-2.5728,-2.5031,-2.469,-2.4166,-2.2969,-2.2803,-2.2803,-2.2803,-2.224,-2.2058,-2.2592,-2.1867,-2.1071,-2.0393,-2.0504,-2.0329,-1.976,-2.0153,-2.0181,-1.9742,-1.9732,-1.9861,-2.0127,-1.987,-1.9925,-2.0328,-2.0328,-2.0328,-2.0338,-2.0741,-2.047,0.0,-2.5091,-2.5192,-2.4832,-2.4577,-2.4036,-2.2381,-2.1801,-2.1133,-1.9449,-1.9101,-1.9304,-1.9986,-2.0291,-2.1323,-2.4096,-2.5264,-2.677,-2.9489,-3.1354,-3.2919,-3.4115,-3.5348,-3.5874,-3.5623,-3.5668,-3.5804,-3.6138,-3.6152,-3.6218,-3.6508,-3.6508,-3.6855,-3.7699,-3.8324,-3.8936,-3.9506,-3.8725,-3.7831,-3.6668,-3.5314,-3.3931,-3.2491,-3.2286,-3.1997,-3.1661,-3.1661,-3.148,0.0,-3.1168,-3.0675,-2.9893,-2.9893,-2.9448,-2.8811,-2.8811,-2.8679,-2.851,-2.851,-2.851,-2.851,-2.851,-2.851,-2.8431,-2.7788,-2.7545,-2.729,-2.6693,-2.6207,-2.5895,-2.5895,-2.5895,-2.5895,-2.5895,-2.5895,-2.5895,-2.5895,-2.5895,-2.5895,-2.5895,-2.5895,-2.5728,-2.5031,-2.4861,-2.4519,-2.3387,-2.3396,-2.357,-2.357,-2.3222,-2.3047,-2.3309,-2.2696,-2.1961,-2.1274,-2.1089,-2.0745,-2.0182,-2.0551,-2.0578,-2.0163,-2.0237,-2.044,-2.0689,-2.044,-2.0514,-2.0911,-2.0741,-2.0824,-2.0979,-2.1071,-2.0842,0.0,-2.3592,-2.4077,-2.4034,-2.3846,-2.3296,-2.2062,-2.1336,0.0,-1.9348,-1.9101,-1.9333,-2.0088,-2.0654,-2.1369,-2.2655,-2.4595,-2.6615,-2.8552,-3.0694,-3.2868,-3.4924,-3.5329,-3.5443,-3.5443,-3.5623,-3.571,-3.571,-3.575,-3.5778,-3.5778,-3.5778,-3.5778,-3.5778,-3.7077,-3.805,-3.8749,-3.8667,-3.7715,-3.5992,-3.5331,-3.4121,-3.243,-3.1901,-3.1661,-3.1661,-3.1661,-3.1661,-3.1661,-3.1661,-3.1348,-3.0879,-3.0879,-3.0254,-2.9352,-2.9316,-2.8991,-2.8558,-2.8522,-2.851,-2.851,-2.851,-2.851,-2.8339,-2.751,-2.694,-2.6528,-2.6445,-2.6218,-2.5895,-2.5895,-2.5895,-2.5895,-2.5895,-2.5895,-2.5895,-2.5895,-2.5895,-2.5895,-2.5895,-2.5895,-2.5728,-2.5115,-2.4946,-2.468,-2.3973,-2.4413,-2.4861,-2.4861,-2.4861,-2.468,-2.4251,-2.356,-2.296,-2.2441,-2.1724,-2.1065,-2.0585,-2.0679,-2.0679,-2.0567,-2.082,-2.0922,-2.095,-2.1193,-2.1297,-2.15,-2.124,-2.1355,-2.1722,-2.1337,-2.1365,-1.998,0.0,-2.0979,-2.046,-2.0686,-2.0785,0.0,-2.0059,-2.0074,0.0,0.0,-1.9595,-2.1249,-2.1096,-2.1883,-2.5569,-2.6789,-2.809,-3.0495,-3.2598,-3.4325,-3.5442,-3.5585,-3.5666,-3.5666,-3.5628,-3.571,-3.571,-3.6144,-3.6388,-3.6388,-3.6388,-3.6388,-3.6388,-3.6252,-3.6524,-3.7126,-3.6098,-3.5417,-3.4899,-3.3308,-3.2272,-3.1853,-3.1721,-3.1661,-3.1661,-3.1661,-3.1661,-3.1661,-3.1661,-3.1348,-3.0879,-3.0879,-3.0482,-2.9845,-2.9448,-2.922,-2.9051,-2.8655,-2.851,-2.851,-2.851,-2.851,-2.8431,-2.7869,-2.7452,-2.694,-2.6218,-2.5979,-2.5895,-2.5895,-2.5895,-2.5895,-2.5895,-2.5895,-2.5895,-2.5895,-2.5895,-2.5895,-2.5895,-2.5895,-2.5812,-2.5728,-2.5211,-2.4861,-2.468,-2.4327,-2.4241,-2.4861,-2.4413,-2.4241,-2.469,-2.4069,-2.3377,-2.2794,-2.2532,-2.2119,-2.1532,-2.1977,-2.2006,-2.1522,-2.1409,-2.1472,-2.1798,-2.1623,-2.1581,-2.1673,-2.1585,-2.164,-2.1741,-2.164,-2.164,-1.9029,-1.9783,-2.0422,-2.0059,-2.0248,-2.0422,-2.0045,0.0,0.0,0.0,0.0,0.0,-2.1081,-2.1552,-2.2771,-2.5879,-2.7563,-2.9435,-3.2054,-3.3473,-3.4612,-3.5574,-3.571,-3.571,-3.571,-3.571,-3.5818,-3.6103,-3.6429,-3.6727,-3.7012,-3.6754,-3.6605,-3.6605,-3.6022,-3.5873,-3.6185,-3.5178,-3.4503,-3.4161,-3.2835,-3.2013,-3.1661,-3.1661,-3.1661,-3.1661,-3.1661,-3.1661,-3.1661,-3.1661,-3.1492,-3.124,-3.124,-3.0915,-3.0386,-2.9857,-2.9508,-2.922,-2.8691,-2.851,-2.851,-2.851,-2.851,-2.8431,-2.8042,-2.7534,-2.7021,-2.6373,-2.6218,-2.6135,-2.5979,-2.5895,-2.5895,-2.5895,-2.5895,-2.5895,-2.5895,-2.5895,-2.5895,-2.5895,-2.5895,-2.5895,-2.5895,-2.5644,-2.538,-2.538,-2.5031,-2.4935,-2.5295,-2.502,-2.485,-2.5031,-2.4669,-2.4241,-2.3647,-2.3406,-2.2872,-2.1954,-2.2318,-2.2435,-2.2119,-2.21,-2.2205,-2.253,-2.2362,-2.2176,-2.1998,-2.1919,-2.183,-2.1741,-2.1741,-2.1741,-1.9058,-2.0208,-2.115,-2.0758,-2.0889,-2.1048,-2.086,0.0,0.0,0.0,0.0,0.0,0.0,-2.2484,0.0,-2.5589,-2.8088,-3.0679,-3.3307,-3.3854,-3.4489,-3.5588,-3.571,-3.571,-3.571,-3.571,-3.5967,-3.6551,-3.6687,-3.7012,-3.7636,-3.7161,-3.6836,-3.6741,-3.6157,-3.5805,-3.571,-3.4964,-3.4301,-3.3713,-3.2957,-3.2276,-3.1661,-3.1661,-3.1661,-3.1661,-3.1661,-3.1661,-3.1661,-3.1661,-3.1661,-3.1661,-3.1661,-3.1384,-3.0927,-3.0398,-2.9869,-2.9328,-2.8727,-2.851,-2.851,-2.851,-2.851,-2.8431,-2.8042,-2.7626,-2.7185,-2.6693,-2.6445,-2.6373,-2.5979,-2.5895,-2.5895,-2.5895,-2.5895,-2.5895,-2.5895,-2.5895,-2.5895,-2.5895,-2.5895,-2.5895,-2.5895,-2.5895,-2.5895,-2.5895,-2.5895,-2.5895,-2.5895,-2.5895,-2.5728,-2.5369,-2.5285,-2.5115,-2.4584,-2.4251,-2.357,-2.2362,-2.2441,-2.2441,-2.2441,-2.2618,-2.2794,-2.2872,-2.2706,-2.253,-2.2264,-2.2097,-2.1919,-2.1741,-2.1741,-2.1741,-1.9638,-2.1081,-2.1755,-1.9652,-2.0325,-2.1241,0.0,0.0,0.0,0.0,0.0,0.0,0.0,-2.4766,-2.5742,-2.816,-2.9964,-3.17,-3.3615,-3.4326,-3.495,-3.5642,-3.571,-3.571,-3.571,-3.571,-3.5967,-3.6551,-3.7094,-3.765,-3.8247,-3.8193,-3.7908,-3.7406,-3.6795,-3.6225,-3.571,-3.4468,-3.3797,-3.3713,-3.2438,-3.1837,-3.1661,-3.1661,-3.1661,-3.1661,-3.1661,-3.1661,-3.1661,-3.1661,-3.1661,-3.1661,-3.1661,-3.1613,-3.148,-3.0951,-3.0422,-2.9833,-2.8847,-2.851,-2.851,-2.851,-2.851,-2.8431,-2.8042,-2.7881,-2.7626,-2.6775,-2.629,-2.5979,-2.5906,-2.5895,-2.5895,-2.5895,-2.5895,-2.5895,-2.5895,-2.5895,-2.5895,-2.5895,-2.5895,-2.5895,-2.5895,-2.5895,-2.5895,-2.5895,-2.5895,-2.5895,-2.5895,-2.5895,-2.5895,-2.5812,-2.5812,-2.5549,-2.4861,-2.5263,-2.4925,-2.3406,-2.3144,-2.2784,-2.2441,-2.2441,-2.2264,-2.1909,-2.1909,-2.183,-2.183,-2.1741,-2.1741,-2.1741,-2.1741,-2.1741,-1.8622,-2.003,-2.1052,-1.9768,-2.1189,-2.2814,0.0,0.0,0.0,0.0,0.0,0.0,0.0,0.0,-2.7094,-3.0309,-3.1646,-3.2643,-3.372,-3.4113,-3.4461,-3.4719,-3.5045,-3.5235,-3.5235,-3.5533,-3.5967,-3.6551,-3.7175,-3.7786,-3.8383,-3.8423,-3.8138,-3.7555,-3.6931,-3.632,-3.5723,-3.4716,-3.405,-3.3713,-3.2698,-3.2013,-3.1661,-3.1661,-3.1661,-3.1661,-3.1661,-3.1661,-3.1661,-3.1661,-3.1661,-3.1661,-3.1661,-3.1661,-3.1601,-3.1072,-3.0362,-2.9629,-2.9436,-2.9172,-2.8931,-2.8931,-2.8931,-2.8802,-2.8137,-2.7708,-2.736,-2.6693,-2.6373,-2.6135,-2.5979,-2.5895,-2.5895,-2.5895,-2.5895,-2.5895,-2.5895,-2.5895,-2.5895,-2.5895,-2.5895,-2.5895,-2.5895,-2.5895,-2.5895,-2.5895,-2.5895,-2.5895,-2.5895,-2.5895,-2.5895,-2.5895,-2.5895,-2.5812,-2.5464,-2.5454,-2.5105,-2.4079,-2.3484,-2.2969,-2.2794,-2.2784,-2.2696,-2.2441,-2.2353,-2.2176,-2.2087,-2.2008,-2.183,-2.1741,-2.1741,-2.1741,-1.7946,-1.9037,-2.0146,-2.0448,0.0,-2.3546,-2.4403,0.0,0.0,0.0,0.0,0.0,0.0,-2.6862,-2.8655,-3.168,-3.2684,-3.3213,-3.3675,-3.3788,-3.3869,-3.3869,-3.4275,-3.4679,-3.4828,-3.5248,-3.5818,-3.6537,-3.7053,-3.7582,-3.8179,-3.8206,-3.7935,-3.7338,-3.6683,-3.606,-3.5467,-3.4964,-3.4384,-3.3713,-3.3043,-3.2363,-3.1661,-3.1661,-3.1661,-3.1661,-3.1661,-3.1661,-3.1661,-3.1661,-3.1661,-3.1661,-3.1661,-3.1661,-3.1601,-3.1072,-3.0362,-2.9689,-2.9845,-2.9725,-2.9448,-2.9196,-2.928,-2.9282,-2.8243,-2.7627,-2.7252,-2.6644,-2.6445,-2.629,-2.5979,-2.5895,-2.5895,-2.5895,-2.5895,-2.5895,-2.5895,-2.5895,-2.5895,-2.5895,-2.5895,-2.5895,-2.5895,-2.5895,-2.5895,-2.5895,-2.5895,-2.5895,-2.5895,-2.5895,-2.5895,-2.5895,-2.5895,-2.5895,-2.6063,-2.5538,-2.5105,-2.484,-2.3897,-2.3299,-2.3299,-2.3135,-2.2969,-2.296,-2.2794,-2.2618,-2.2441,-2.2185,-2.2008,-2.182,-2.1741,-2.1741,-1.8863,-1.9251,-1.9655,-2.1577,0.0,0.0,-2.3312,-2.3188,0.0,0.0,0.0,0.0,0.0,-2.9149,-3.0595,-3.1951,-3.2684,-3.3078,-3.3118,-3.3607,-3.3869,-3.3869,-3.391,-3.414,-3.4787,-3.4869,-3.5371,-3.651,-3.6632,-3.6944,-3.7568,-3.7596,-3.7311,-3.6687,-3.6022,-3.5381,-3.4799,-3.4716,-3.4384,-3.3713,-3.3043,-3.2363,-3.1661,-3.1661,-3.1661,-3.1661,-3.1661,-3.1661,-3.1661,-3.1661,-3.1661,-3.1661,-3.1661,-3.1661,-3.1601,-3.1072,-3.0831,-3.0627,-2.9689,-2.9653,-2.9869,-2.8883,-2.9232,-2.9762,-2.8349,-2.7953,-2.7698,-2.6734,-2.6207,-2.5895,-2.5895,-2.5895,-2.5895,-2.5895,-2.5895,-2.5895,-2.5895,-2.5895,-2.5895,-2.5895,-2.5895,-2.5895,-2.5895,-2.5895,-2.5895,-2.5895,-2.5895,-2.5895,-2.5895,-2.5895,-2.5895,-2.5895,-2.5895,-2.6052,-2.6445,-2.5695,-2.5359,-2.5768,-2.4648,-2.4049,-2.4049,-2.3212,-2.2706,-2.2441,-2.2441,-2.2441,-2.2441,-2.2185,-2.2097,-2.2097,-2.183,-2.1741,-1.7967,-1.8769,-1.9806,-2.1354,0.0,0.0,0.0,0.0,0.0,-2.8098,-2.8821,0.0,0.0,-3.031,-3.1219,-3.2046,-3.2684,-3.3139,-3.3139,-3.3254,-3.3254,-3.2888,-3.3173,-3.3485,-3.3715,-3.4068,-3.4461,-3.4923,-3.5642,-3.6157,-3.6388,-3.7121,-3.7243,-3.6619,-3.5925,-3.5297,-3.4729,-3.4301,-3.3713,-3.3043,-3.3215,-3.2785,-3.1661,-3.1661,-3.1661,-3.1661,-3.1661,-3.1661,-3.1661,-3.1661,-3.1661,-3.1661,-3.1661,-3.1661,-3.1637,-3.1444,-3.1156,-3.0867,-3.0795,-3.0687,-3.0506,-3.011,-3.0025,-2.9858,-2.8385,-2.7741,-2.7344,-2.6346,-2.6063,-2.5895,-2.5895,-2.5895,-2.5895,-2.5895,-2.5895,-2.5895,-2.5895,-2.5895,-2.5895,-2.5895,-2.5895,-2.5895,-2.5895,-2.5895,-2.5895,-2.5895,-2.5895,-2.5895,-2.5895,-2.5895,-2.5895,-2.5895,-2.5895,-2.5979,-2.6135,-2.6041,-2.6113,-2.6268,-2.4669,-2.3907,-2.4317,-2.3212,-2.2706,-2.3057,-2.253,-2.2176,-2.2176,-2.2008,-2.183,-2.183,-2.1741,-2.1741,-1.7543,-1.844,-1.9772,0.0,0.0,0.0,0.0,0.0,0.0,-2.9374,-3.0106,-3.0527,-3.0907,-3.0988,-3.1273,-3.2046,-3.2521,-3.2793,-3.2793,-3.2793,-3.263,-3.2223,-3.2535,-3.2861,-3.3111,-3.343,-3.3742,-3.3856,-3.4706,-3.5235,-3.5425,-3.6225,-3.6482,-3.5991,-3.5394,-3.4692,-3.405,-3.3628,-3.3043,-3.2363,-3.3043,-3.2785,-3.1661,-3.1661,-3.1661,-3.1661,-3.1661,-3.1661,-3.1661,-3.1661,-3.1661,-3.1661,-3.1661,-3.1661,-3.1661,-3.1661,-3.1432,-3.1156,-3.1348,-3.1288,-3.1036,-3.0372,-3.0265,-3.0001,-2.8122,-2.7481,-2.7227,-2.6179,-2.5895,-2.5895,-2.5895,-2.5895,-2.5895,-2.5895,-2.5895,-2.5895,-2.5895,-2.5895,-2.5895,-2.5895,-2.5895,-2.5895,-2.5895,-2.5895,-2.5895,-2.5895,-2.5895,-2.5895,-2.5895,-2.5895,-2.5895,-2.5895,-2.5895,-2.5895,-2.5895,-2.629,-2.6445,-2.629,-2.4935,-2.4413,-2.4925,-2.356,-2.2969,-2.3503,-2.2627,-2.2185,-2.2185,-2.1919,-2.183,-2.183,-2.1741,-2.1741,-1.7949,-1.8371,-1.9312,0.0,0.0,0.0,0.0,0.0,0.0,-2.9672,-3.0405,-3.0771,-3.1938,-3.1219,-3.0812,-3.1979,-3.2182,-3.2182,-3.2182,-3.2182,-3.2182,-3.2182,-3.2182,-3.2399,-3.2996,-3.3125,-3.3295,-3.3801,-3.3856,-3.4126,-3.4787,-3.4828,-3.4781,-3.469,-3.405,-3.3386,-3.2723,-3.2711,-3.2363,-3.1749,-3.2363,-3.2363,-3.1661,-3.1661,-3.1661,-3.1661,-3.1661,-3.1661,-3.1661,-3.1661,-3.1661,-3.1661,-3.1661,-3.1661,-3.1661,-3.1661,-3.1661,-3.1589,-3.106,-3.1216,-3.1309,-2.9307,-2.9665,-3.0298,-2.7395,-2.7198,-2.7661,-2.6278,-2.5895,-2.5895,-2.5895,-2.5895,-2.5895,-2.5895,-2.5895,-2.5895,-2.5895,-2.5895,-2.5895,-2.5895,-2.5895,-2.5895,-2.5895,-2.5895,-2.5895,-2.5895,-2.5895,-2.5895,-2.5895,-2.5895,-2.5895,-2.5895,-2.5895,-2.5895,-2.5895,-2.629,-2.629,-2.5895,-2.5684,-2.5579,-2.5852,-2.4348,-2.3503,-2.3503,-2.2794,-2.2441,-2.2344,-2.2185,-2.2097,-2.2097,-2.183,-2.1741,-1.749,-1.9041,0.0,0.0,0.0,0.0,0.0,0.0,0.0,0.0,-3.0744,-3.1015,-3.0948,-3.1327,-3.1626,-3.1572,-3.1897,-3.2182,-3.2182,-3.2182,-3.2182,-3.2182,-3.2182,-3.225,-3.2426,-3.244,-3.2508,-3.2684,-3.3471,-3.395,-3.4126,-3.5004,-3.5197,-3.4716,-3.405,-3.3628,-3.3386,-3.2438,-3.2101,-3.2363,-3.2101,-3.1925,-3.1661,-3.1661,-3.1661,-3.1661,-3.1661,-3.1661,-3.1661,-3.1661,-3.1661,-3.1661,-3.1661,-3.1661,-3.1661,-3.1661,-3.1661,-3.1637,-3.148,-3.1101,-3.0589,-2.9942,-2.9335,-2.8637,-2.7431,-2.6981,-2.6801,-2.6096,-2.5895,-2.5895,-2.5895,-2.5895,-2.5895,-2.5895,-2.5895,-2.5895,-2.5895,-2.5895,-2.5895,-2.5895,-2.5895,-2.5895,-2.5895,-2.5895,-2.5895,-2.5895,-2.5895,-2.5895,-2.5895,-2.5895,-2.5895,-2.5895,-2.5895,-2.5895,-2.5895,-2.5979,-2.6063,-2.5895,-2.5801,-2.5801,-2.5884,-2.4498,-2.3724,-2.3724,-2.3047,-2.2441,-2.1909,-2.183,-2.183,-2.183,-2.1741,-2.1741,-1.8206,0.0,0.0,0.0,0.0,-2.6742,-2.7813,0.0,0.0,0.0,-3.0323,-3.0608,-3.0744,-3.1151,-3.1504,-3.1626,-3.1938,-3.2182,-3.2182,-3.2182,-3.2182,-3.2182,-3.2182,-3.2182,-3.2182,-3.2182,-3.2182,-3.2182,-3.2847,-3.3457,-3.3842,-3.4624,-3.4902,-3.4703,-3.4301,-3.3882,-3.33,-3.2525,-3.2189,-3.2276,-3.1925,-3.1661,-3.1661,-3.1661,-3.1661,-3.1661,-3.1661,-3.1661,-3.1661,-3.1661,-3.1661,-3.1661,-3.1661,-3.1661,-3.1661,-3.1661,-3.1661,-3.1637,-3.1432,-3.087,-3.0091,-2.9507,-2.8692,-2.7813,-2.7032,-2.6607,-2.6445,-2.5979,-2.5895,-2.5895,-2.5895,-2.5895,-2.5895,-2.5895,-2.5895,-2.5895,-2.5895,-2.5895,-2.5895,-2.5895,-2.5895,-2.5895,-2.5895,-2.5895,-2.5895,-2.5895,-2.5895,-2.5895,-2.5895,-2.5895,-2.5895,-2.5895,-2.5895,-2.5895,-2.5895,-2.6063,-2.6052,-2.5895,-2.6063,-2.6052,-2.5895,-2.485,-2.4241,-2.4241,-2.3309,-2.2627,-2.2176,-2.182,-2.1741,-2.1741,-2.1741,-2.1741,-1.9429,0.0,0.0,0.0,-2.5968,0.0,-2.8207,-2.9007,-2.9401,-2.9401,-2.9442,-2.9821,-3.092,-3.073,-3.0785,-3.1911,-3.2101,-3.2114,-3.2169,-3.2182,-3.2182,-3.2182,-3.2182,-3.2182,-3.2182,-3.2182,-3.2182,-3.2182,-3.2223,-3.2725,-3.3734,-3.3842,-3.4149,-3.4598,-3.4637,-3.3998,-3.2797,-3.2711,-3.2363,-3.1749,-3.1749,-3.1661,-3.1661,-3.1661,-3.1661,-3.1661,-3.1661,-3.1661,-3.1661,-3.1661,-3.1661,-3.1661,-3.1661,-3.1661,-3.1661,-3.1661,-3.1637,-3.1529,-3.1048,-3.0462,-2.9781,-2.8411,-2.7908,-2.7531,-2.6278,-2.6135,-2.6373,-2.5979,-2.5895,-2.5895,-2.5895,-2.5895,-2.5895,-2.5895,-2.5895,-2.5895,-2.5895,-2.5895,-2.5895,-2.5895,-2.5895,-2.5895,-2.5895,-2.5895,-2.5895,-2.5895,-2.5895,-2.5895,-2.5895,-2.5895,-2.5895,-2.5895,-2.5895,-2.5895,-2.5895,-2.6207,-2.629,-2.5895,-2.6207,-2.629,-2.5906,-2.5295,-2.4946,-2.4861,-2.3657,-2.2969,-2.2803,-2.2176,-2.182,-2.1741,-2.1731,-2.1731,0.0,-2.0059,0.0,0.0,-2.6619,-2.8112,-2.8505,-2.8695,-2.8777,-2.8777,-2.9157,-2.955,-2.9821,-3.0161,-3.0649,-3.1368,-3.1477,-3.1653,-3.2114,-3.2182,-3.2182,-3.2182,-3.2182,-3.2182,-3.2182,-3.2182,-3.2182,-3.2182,-3.2616,-3.2983,-3.324,-3.3688,-3.3961,-3.4017,-3.3962,-3.3845,-3.3458,-3.2957,-3.2624,-3.245,-3.1925,-3.1661,-3.1661,-3.1661,-3.1661,-3.1661,-3.1661,-3.1661,-3.1661,-3.1661,-3.1661,-3.1661,-3.1661,-3.1661,-3.1661,-3.1661,-3.1396,-3.1023,-3.0915,-2.9804,-2.8399,-2.8084,-2.7261,-2.6278,-2.6012,-2.5979,-2.5979,-2.5895,-2.5895,-2.5895,-2.5895,-2.5895,-2.5895,-2.5895,-2.5895,-2.5895,-2.5895,-2.5895,-2.5895,-2.5895,-2.5895,-2.5895,-2.5895,-2.5895,-2.5895,-2.5895,-2.5895,-2.5895,-2.5895,-2.5895,-2.5895,-2.5895,-2.5895,-2.5895,-2.5895,-2.5979,-2.5979,-2.5906,-2.5979,-2.5979,-2.5895,-2.5728,-2.5464,-2.4946,-2.4605,-2.3917,-2.2803,-2.3212,-2.2765,-2.1731,-2.2264,-2.2264,0.0,0.0,0.0,-2.5138,0.0,-2.8234,-2.8519,-2.8587,-2.8587,-2.8587,-2.8831,-2.9143,-2.9428,-2.974,-3.0161,-3.0771,-3.0866,-3.1083,-3.1667,-3.1762,-3.187,-3.2155,-3.2182,-3.2182,-3.2182,-3.2182,-3.2182,-3.2182,-3.2467,-3.2766,-3.3111,-3.3363,-3.3644,-3.3832,-3.3846,-3.3633,-3.329,-3.2883,-3.2609,-3.2189,-3.1837,-3.1661,-3.1661,-3.1661,-3.1661,-3.1661,-3.1661,-3.1661,-3.1661,-3.1661,-3.1661,-3.1661,-3.1661,-3.1661,-3.1637,-3.1384,-3.1108,-3.0807,-3.0302,-2.9236,-2.798,-2.7739,-2.6835,-2.5895,-2.5895,-2.5895,-2.5895,-2.5895,-2.5895,-2.5895,-2.5895,-2.5895,-2.5895,-2.5895,-2.5895,-2.5895,-2.5895,-2.5895,-2.5895,-2.5895,-2.5895,-2.5895,-2.5895,-2.5895,-2.5895,-2.5895,-2.5895,-2.5895,-2.5895,-2.5895,-2.5895,-2.5895,-2.5895,-2.5895,-2.5895,-2.5895,-2.5895,-2.5895,-2.5895,-2.5895,-2.5895,-2.5895,-2.5728,-2.538,-2.5031,-2.4337,-2.3299,-2.3299,-2.2775,-2.1731,-2.2087,-2.2087,0.0,0.0,0.0,-2.5833,-2.7108,0.0,-2.8329,-2.8519,-2.8587,-2.8587,-2.8587,-2.8736,-2.9224,-2.9319,-2.9523,-3.0147,-3.0242,-3.0459,-3.1056,-3.1219,-3.1477,-3.1965,-3.2114,-3.2182,-3.2182,-3.2182,-3.2182,-3.2182,-3.2096,-3.2239,-3.2725,-3.2739,-3.3009,-3.3603,-3.3553,-3.3264,-3.2688,-3.2523,-3.2109,-3.1384,-3.1384,-3.1384,-3.1384,-3.1384,-3.1492,-3.1661,-3.1661,-3.1661,-3.1661,-3.1661,-3.1661,-3.1661,-3.1565,-3.1529,-3.1468,-3.0927,-3.0675,-3.0482,-2.9605,-2.8645,-2.7819,-2.7311,-2.6622,-2.5895,-2.5895,-2.5895,-2.5895,-2.5895,-2.5895,-2.5895,-2.5895,-2.5895,-2.5895,-2.5895,-2.5895,-2.5895,-2.5895,-2.5895,-2.5895,-2.5895,-2.5895,-2.5895,-2.5895,-2.5895,-2.5895,-2.5895,-2.5895,-2.5895,-2.5895,-2.5895,-2.5895,-2.5895,-2.5895,-2.5895,-2.5895,-2.5895,-2.5895,-2.5895,-2.5895,-2.5895,-2.5895,-2.5895,-2.5895,-2.5895,-2.538,-2.468,-2.3973,-2.357,-2.2882,-2.1909,-2.1989,-2.1909,0.0,0.0,0.0,0.0,-2.6484,-2.7732,0.0,0.0,-2.8587,-2.8587,-2.8587,-2.8614,-2.8695,-2.8709,-2.8912,-2.9496,-2.9604,-2.9821,-3.0446,-3.0975,-3.1327,-3.1395,-3.187,-3.2182,-3.2182,-3.2182,-3.2182,-3.2182,-3.1629,-3.1347,-3.1413,-3.1413,-3.1766,-3.2349,-3.2362,-3.2254,-3.2098,-3.1625,-3.103,-3.0302,-3.0302,-3.0302,-3.0302,-3.0302,-3.0795,-3.1661,-3.1661,-3.1661,-3.1661,-3.1661,-3.1661,-3.1613,-3.1156,-3.0975,-3.0915,-3.0386,-2.9905,-2.9484,-2.9352,-2.841,-2.7277,-2.7208,-2.6622,-2.5895,-2.5895,-2.5895,-2.5895,-2.5895,-2.5895,-2.5895,-2.5895,-2.5895,-2.5895,-2.5895,-2.5895,-2.5895,-2.5895,-2.5895,-2.5895,-2.5895,-2.5895,-2.5895,-2.5895,-2.5895,-2.5895,-2.5895,-2.5895,-2.5895,-2.5895,-2.5895,-2.5895,-2.5895,-2.5895,-2.5895,-2.5895,-2.5895,-2.5895,-2.5895,-2.5895,-2.5895,-2.5895,-2.5895,-2.5895,-2.5895,-2.5812,-2.5464,-2.4765,-2.5211,-2.4519,-2.2715,-2.329,-2.2853,-1.8625,0.0,-2.3078,0.0,-2.6117,-2.7298,-2.7623,-2.8166,-2.8587,-2.8587,-2.8587,-2.8587,-2.8587,-2.8587,-2.8682,-2.894,-2.898,-2.9197,-2.9794,-3.0418,-3.092,-3.126,-3.1816,-3.2182,-3.2182,-3.2182,-3.2182,-3.2182,-3.1542,-3.122,-3.122,-3.122,-3.1189,-3.1059,-3.1451,-3.1421,-3.0977,-3.0748,-3.0421,-3.0086,-3.0086,-3.0086,-3.0086,-3.0086,-3.0338,-3.0783,-3.0783,-3.0783,-3.0783,-3.0783,-3.0783,-3.0759,-3.0518,-3.0434,-3.0374,-2.9845,-2.9496,-2.9256,-2.8967,-2.8115,-2.7185,-2.7185,-2.6622,-2.5895,-2.5895,-2.5895,-2.5895,-2.5895,-2.5895,-2.5895,-2.5895,-2.5895,-2.5895,-2.5895,-2.5895,-2.5895,-2.5895,-2.5895,-2.5895,-2.5895,-2.5895,-2.5895,-2.5895,-2.5895,-2.5895,-2.5895,-2.5895,-2.5895,-2.5895,-2.5895,-2.5895,-2.5895,-2.5895,-2.5895,-2.5895,-2.5895,-2.5895,-2.5895,-2.5895,-2.5895,-2.5895,-2.5895,-2.5895,-2.5895,-2.5895,-2.5559,-2.4861,-2.5211,-2.4433,-2.2803,-2.3135,-2.2696,0.0,0.0,-2.1654,-2.3607,-2.5127,-2.6335,0.0,-2.7827,-2.841,-2.856,-2.8587,-2.8587,-2.8587,-2.8587,-2.8587,-2.8587,-2.8587,-2.875,-2.9197,-2.9781,-3.0405,-3.1002,-3.1585,-3.2006,-3.2169,-3.2182,-3.2182,-3.2182,-3.1542,-3.122,-3.122,-3.1071,-3.0771,-3.0317,-3.062,-3.0522,-3.0015,-2.9868,-2.9756,-2.9689,-2.9689,-2.9689,-2.9689,-2.9689,-2.9689,-2.9701,-2.9965,-3.0086,-3.0086,-3.0086,-3.0086,-3.0074,-2.9941,-2.9893,-2.9821,-2.9292,-2.91,-2.9039,-2.8643,-2.7926,-2.7185,-2.7185,-2.6622,-2.5895,-2.5895,-2.5895,-2.5895,-2.5895,-2.5895,-2.5895,-2.5895,-2.5895,-2.5895,-2.5895,-2.5895,-2.5895,-2.5895,-2.5895,-2.5895,-2.5895,-2.5895,-2.5895,-2.5895,-2.5895,-2.5895,-2.5895,-2.5895,-2.5895,-2.5895,-2.5895,-2.5895,-2.5895,-2.5895,-2.5895,-2.5895,-2.5895,-2.5895,-2.5895,-2.5895,-2.5895,-2.5895,-2.5895,-2.5895,-2.5895,-2.5895,-2.5644,-2.5126,-2.5126,-2.4433,-2.3047,-2.3047,-2.2608,0.0,-1.8283,0.0,-2.1016,-2.2943,-2.4557,-2.5724,-2.6904,-2.7908,-2.8478,-2.8587,-2.8587,-2.8587,-2.8587,-2.8587,-2.8587,-2.8587,-2.86,-2.8627,-2.9157,-2.9754,-3.0391,-3.0975,-3.1558,-3.2114,-3.2182,-3.2182,-3.2182,-3.1542,-3.122,-3.122,-3.062,-3.0317,-3.0317,-2.9793,-2.9509,-2.9456,-2.8852,-2.8558,-2.8595,-2.8595,-2.8595,-2.8595,-2.8595,-2.8595,-2.8643,-2.9653,-3.0086,-3.0086,-3.0086,-3.0086,-3.0037,-2.9532,-2.934,-2.928,-2.8751,-2.8546,-2.8546,-2.8522,-2.7926,-2.7185,-2.7185,-2.6622,-2.5895,-2.5895,-2.5895,-2.5895,-2.5895,-2.5895,-2.5895,-2.5895,-2.5895,-2.5895,-2.5895,-2.5895,-2.5895,-2.5895,-2.5895,-2.5895,-2.5895,-2.5895,-2.5895,-2.5895,-2.5895,-2.5895,-2.5895,-2.5895,-2.5895,-2.5895,-2.5895,-2.5895,-2.5895,-2.5895,-2.5895,-2.5895,-2.5895,-2.5895,-2.5895,-2.5895,-2.5895,-2.5895,-2.5895,-2.5895,-2.5895,-2.5895,-2.5895,-2.5812,-2.5812,-2.5115,-2.3714,-2.3714,-2.3028,0.0,0.0,0.0,-2.0107,-2.2237,-2.4232,-2.4666,-2.5995,-2.7203,-2.742,-2.7447,-2.7569,-2.7949,-2.8343,-2.8587,-2.8587,-2.8587,-2.8587,-2.8587,-2.9102,-2.9564,-2.9781,-3.069,-3.1368,-3.1585,-3.1951,-3.2182,-3.2182,-3.1542,-3.122,-3.122,-3.062,-3.0101,-2.9716,-2.9496,-2.9184,-2.8816,-2.8578,-2.851,-2.851,-2.851,-2.851,-2.851,-2.851,-2.851,-2.8534,-2.8919,-2.9076,-2.9076,-2.9076,-2.9076,-2.9051,-2.8871,-2.8799,-2.8775,-2.8582,-2.851,-2.851,-2.851,-2.7926,-2.7185,-2.7185,-2.6622,-2.5895,-2.5895,-2.5895,-2.5895,-2.5895,-2.5895,-2.5895,-2.5895,-2.5895,-2.5895,-2.5895,-2.5895,-2.5895,-2.5895,-2.5895,-2.5895,-2.5895,-2.5895,-2.5895,-2.5895,-2.5895,-2.5895,-2.5895,-2.5895,-2.5895,-2.5895,-2.5895,-2.5895,-2.5895,-2.5895,-2.5895,-2.5895,-2.5895,-2.5895,-2.5895,-2.5895,-2.5895,-2.5895,-2.5895,-2.5895,-2.5895,-2.5895,-2.5895,-2.5895,-2.5895,-2.52,-2.38,-2.38,-2.3028,-1.6297,0.0,0.0,0.0,-2.1016,-2.2644,-2.3852,-2.5046,-2.6036,-2.643,-2.6674,-2.6945,-2.7339,-2.7732,-2.8125,-2.8519,-2.8587,-2.8587,-2.8587,-2.894,-2.9252,-2.9455,-3.0188,-3.0839,-3.126,-3.1477,-3.1748,-3.2155,-3.1602,-3.1343,-3.1529,-3.0784,-2.9947,-2.9118,-2.9118,-2.8895,-2.851,-2.851,-2.851,-2.851,-2.851,-2.851,-2.851,-2.851,-2.851,-2.851,-2.851,-2.851,-2.851,-2.851,-2.851,-2.851,-2.851,-2.851,-2.851,-2.851,-2.8431,-2.8283,-2.8283,-2.7684,-2.694,-2.694,-2.6456,-2.5895,-2.5895,-2.5895,-2.5895,-2.5895,-2.5895,-2.5895,-2.5895,-2.5895,-2.5895,-2.5895,-2.5895,-2.5895,-2.5895,-2.5895,-2.5895,-2.5895,-2.5895,-2.5895,-2.5895,-2.5895,-2.5895,-2.5895,-2.5895,-2.5895,-2.5895,-2.5895,-2.5895,-2.5895,-2.5895,-2.5895,-2.5895,-2.5895,-2.5895,-2.5895,-2.5895,-2.5895,-2.5895,-2.5895,-2.5895,-2.5895,-2.5895,-2.5895,-2.5895,-2.5895,-2.52,-2.38,-2.38,-2.3028,0.0,0.0,0.0,0.0,-1.9198,-1.9744,-2.3187,-2.4015,-2.4381,-2.5561,-2.6294,-2.6742,-2.6782,-2.6796,-2.7189,-2.837,-2.856,-2.8573,-2.8587,-2.8587,-2.8804,-2.9374,-2.9469,-2.9944,-3.1124,-3.073,-3.0893,-3.2046,-3.1585,-3.1517,-3.2101,-3.0983,-2.9768,-2.8554,-2.8578,-2.851,-2.851,-2.851,-2.851,-2.851,-2.851,-2.851,-2.851,-2.851,-2.851,-2.851,-2.851,-2.851,-2.851,-2.851,-2.851,-2.851,-2.851,-2.851,-2.851,-2.851,-2.8283,-2.7893,-2.7881,-2.729,-2.6528,-2.6528,-2.6218,-2.5895,-2.5895,-2.5895,-2.5895,-2.5895,-2.5895,-2.5895,-2.5895,-2.5895,-2.5895,-2.5895,-2.5895,-2.5895,-2.5895,-2.5895,-2.5895,-2.5895,-2.5895,-2.5895,-2.5895,-2.5895,-2.5895,-2.5895,-2.5895,-2.5895,-2.5895,-2.5895,-2.5895,-2.5895,-2.5895,-2.5895,-2.5895,-2.5895,-2.5895,-2.5895,-2.5895,-2.5895,-2.5895,-2.5895,-2.5895,-2.5895,-2.5895,-2.5895,-2.5895,-2.5895,-2.52,-2.38,-2.38,-2.3028,-1.443,0.0,0.0,0.0,0.0,0.0,-2.0704,-2.1572,-2.2509,-2.373,-2.4109,-2.4625,-2.5914,-2.6145,-2.6538,-2.7746,-2.7949,-2.8098,-2.8532,-2.8587,-2.8655,-2.8817,-2.9211,-2.9604,-2.9944,-3.0242,-3.0554,-3.0866,-3.0744,-3.073,-3.0893,-3.0559,-3.0038,-2.9202,-2.9592,-2.9561,-2.9197,-2.9118,-2.8961,-2.851,-2.851,-2.851,-2.851,-2.851,-2.851,-2.851,-2.851,-2.851,-2.851,-2.851,-2.851,-2.851,-2.851,-2.851,-2.8431,-2.8203,-2.7962,-2.7881,-2.7534,-2.7021,-2.6528,-2.6528,-2.6218,-2.5895,-2.5895,-2.5895,-2.5895,-2.5895,-2.5895,-2.5895,-2.5895,-2.5895,-2.5895,-2.5895,-2.5895,-2.5895,-2.5895,-2.5895,-2.5895,-2.5895,-2.5895,-2.5895,-2.5895,-2.5895,-2.5895,-2.5895,-2.5895,-2.5895,-2.5895,-2.5895,-2.5895,-2.5895,-2.5895,-2.5895,-2.5895,-2.5895,-2.5895,-2.5895,-2.5895,-2.5895,-2.5895,-2.5895,-2.5895,-2.5895,-2.5895,-2.5895,-2.5895,-2.5895,-2.52,-2.38,-2.2765,-2.2078,-1.4437,-1.5441,0.0,-1.693,0.0,0.0,-1.9584,-2.0226,-2.0934,-2.2008,-2.2531,-2.3216,-2.4544,-2.4991,-2.5466,-2.643,-2.6782,-2.7339,-2.8438,-2.8587,-2.8587,-2.8587,-2.8899,-2.9197,-2.9455,-2.9591,-2.9862,-3.0364,-3.0174,-2.9997,-3.0033,-2.9789,-2.9559,-2.941,-2.973,-2.9859,-2.9793,-2.9496,-2.9184,-2.8882,-2.8578,-2.851,-2.851,-2.851,-2.851,-2.851,-2.851,-2.851,-2.851,-2.851,-2.851,-2.851,-2.851,-2.851,-2.8431,-2.8042,-2.78,-2.7534,-2.7103,-2.661,-2.6207,-2.6207,-2.6052,-2.5895,-2.5895,-2.5895,-2.5895,-2.5895,-2.5895,-2.5895,-2.5895,-2.5895,-2.5895,-2.5895,-2.5895,-2.5895,-2.5895,-2.5895,-2.5895,-2.5895,-2.5895,-2.5895,-2.5895,-2.5895,-2.5895,-2.5895,-2.5895,-2.5895,-2.5895,-2.5895,-2.5895,-2.5895,-2.5895,-2.5895,-2.5895,-2.5895,-2.5895,-2.5895,-2.5895,-2.5895,-2.5895,-2.5895,-2.5895,-2.5895,-2.5895,-2.5895,-2.5895,-2.5895,-2.52,-2.38,-2.2334,-2.1741,-1.4881,-1.5191,0.0,-1.7686,-1.7563,0.0,-1.9284,-1.96,-1.9763,-2.0606,-2.1358,-2.215,-2.2864,-2.3459,-2.4096,-2.4611,-2.5317,-2.643,-2.8248,-2.8492,-2.8519,-2.8587,-2.8587,-2.8804,-2.9333,-2.8899,-2.9034,-3.012,-2.9686,-2.9417,-2.9402,-2.8892,-2.8852,-2.9292,-2.9282,-2.9589,-3.0075,-2.9551,-2.9279,-2.9263,-2.8736,-2.851,-2.851,-2.851,-2.851,-2.851,-2.851,-2.851,-2.851,-2.851,-2.851,-2.851,-2.851,-2.851,-2.8351,-2.7962,-2.7534,-2.7103,-2.661,-2.6218,-2.5895,-2.5895,-2.5895,-2.5895,-2.5895,-2.5895,-2.5895,-2.5895,-2.5895,-2.5895,-2.5895,-2.5895,-2.5895,-2.5895,-2.5895,-2.5895,-2.5895,-2.5895,-2.5895,-2.5895,-2.5895,-2.5895,-2.5895,-2.5895,-2.5895,-2.5895,-2.5895,-2.5895,-2.5895,-2.5895,-2.5895,-2.5895,-2.5895,-2.5895,-2.5895,-2.5895,-2.5895,-2.5895,-2.5895,-2.5895,-2.5895,-2.5895,-2.5895,-2.5895,-2.5895,-2.5895,-2.5895,-2.5728,-2.502,-2.38,-2.2334,-2.1741,-1.5967,-1.6938,-1.7859,-1.7255,-1.8507,0.0,-1.8226,-1.8832,-1.971,-1.9894,-2.0089,-2.0495,-2.1586,-2.2251,-2.2698,-2.2821,-2.415,-2.5805,-2.7623,-2.7881,-2.8058,-2.8532,-2.8587,-2.8641,-2.875,-2.8655,-2.8695,-2.8926,-2.8831,-2.8752,-2.8808,-2.8703,-2.872,-2.8825,-2.886,-2.8867,-2.89,-2.8836,-2.8753,-2.8657,-2.859,-2.851,-2.851,-2.851,-2.851,-2.851,-2.851,-2.851,-2.851,-2.851,-2.851,-2.851,-2.851,-2.8271,-2.7962,-2.7522,-2.7021,-2.661,-2.6135,-2.5979,-2.5895,-2.5895,-2.5895,-2.5895,-2.5895,-2.5895,-2.5895,-2.5895,-2.5895,-2.5895,-2.5895,-2.5895,-2.5895,-2.5895,-2.5895,-2.5895,-2.5895,-2.5895,-2.5895,-2.5895,-2.5895,-2.5895,-2.5895,-2.5895,-2.5895,-2.5895,-2.5895,-2.5895,-2.5895,-2.5895,-2.5895,-2.5895,-2.5895,-2.5895,-2.5895,-2.5895,-2.5895,-2.5895,-2.5895,-2.5895,-2.5895,-2.5895,-2.5895,-2.5895,-2.5895,-2.5895,-2.5895,-2.4754,-2.4059,-2.38,-2.2334,-2.1741,-1.6963,-1.7577,-1.8311,-1.8134,-1.8786,0.0,0.0,-1.8465,-1.8919,-1.9691,-1.9467,-1.9597,-2.1104,-2.1667,-2.1857,-2.1857,-2.2962,-2.4307,-2.5693,-2.6701,-2.7255,-2.735,-2.7581,-2.7884,-2.8153,-2.8153,-2.8183,-2.8183,-2.8183,-2.8183,-2.8183,-2.8253,-2.841,-2.8701,-2.8992,-2.9008,-2.872,-2.8911,-2.8811,-2.857,-2.8536,-2.851,-2.851,-2.851,-2.851,-2.851,-2.851,-2.851,-2.851,-2.851,-2.851,-2.851,-2.851,-2.8271,-2.78,-2.736,-2.6928,-2.6445,-2.6052,-2.5895,-2.5895,-2.5895,-2.5895,-2.5895,-2.5895,-2.5895,-2.5895,-2.5895,-2.5895,-2.5895,-2.5895,-2.5895,-2.5895,-2.5895,-2.5895,-2.5895,-2.5895,-2.5895,-2.5895,-2.5895,-2.5895,-2.5895,-2.5895,-2.5895,-2.5895,-2.5895,-2.5895,-2.5895,-2.5895,-2.5895,-2.5895,-2.5895,-2.5895,-2.5895,-2.5895,-2.5895,-2.5895,-2.5895,-2.5895,-2.5895,-2.5895,-2.5895,-2.5895,-2.5895,-2.5895,-2.5895,-2.5895,-2.4498,-2.38,-2.38,-2.2334,-2.1741,-1.7977,-1.8117,-1.8573,-1.8929,-1.8969,-1.88,0.0,0.0,0.0,-1.9199,-1.8848,-1.8892,-2.0388,-2.0798,-2.0887,-2.0792,-2.1605,-2.2419,-2.295,-2.4741,-2.5975,-2.5887,-2.6294,-2.6777,-2.729,-2.73,-2.743,-2.7749,-2.7603,-2.755,-2.7762,-2.7776,-2.7933,-2.819,-2.861,-2.8765,-2.8439,-2.8642,-2.8687,-2.8611,-2.8354,-2.8258,-2.8366,-2.8366,-2.8366,-2.8366,-2.8462,-2.851,-2.851,-2.851,-2.851,-2.851,-2.851,-2.8191,-2.7708,-2.736,-2.6857,-2.6373,-2.5979,-2.5895,-2.5895,-2.5895,-2.5895,-2.5895,-2.5895,-2.5895,-2.5895,-2.5895,-2.5895,-2.5895,-2.5895,-2.5895,-2.5895,-2.5895,-2.5895,-2.5895,-2.5895,-2.5895,-2.5895,-2.5895,-2.5895,-2.5895,-2.5895,-2.5895,-2.5895,-2.5895,-2.5895,-2.5895,-2.5895,-2.5895,-2.5895,-2.5895,-2.5895,-2.5895,-2.5895,-2.5895,-2.5895,-2.5895,-2.5895,-2.5895,-2.5895,-2.5895,-2.5895,-2.5895,-2.5895,-2.5895,-2.5895,-2.4498,-2.38,-2.38,-2.2334,-2.1741,-1.8975,-1.957,-1.986,-1.8065,-1.9327,-2.0185,-1.7293,0.0,-1.8274,-1.7398,0.0,-1.7779,-1.7971,0.0,0.0,-1.8645,-1.9938,-2.0565,-1.9227,-2.1367,-2.3577,-2.4973,-2.5328,-2.5628,-2.6031,-2.5625,-2.5982,-2.7683,-2.6773,-2.6585,-2.7762,-2.7776,-2.7403,-2.6515,-2.6515,-2.6779,-2.7105,-2.6675,-2.7188,-2.8535,-2.7524,-2.7356,-2.7813,-2.7813,-2.7813,-2.7837,-2.8306,-2.851,-2.851,-2.851,-2.851,-2.851,-2.851,-2.8018,-2.7267,-2.7185,-2.6704,-2.5979,-2.5906,-2.5895,-2.5895,-2.5895,-2.5895,-2.5895,-2.5895,-2.5895,-2.5895,-2.5895,-2.5895,-2.5895,-2.5895,-2.5895,-2.5895,-2.5895,-2.5895,-2.5895,-2.5895,-2.5895,-2.5895,-2.5895,-2.5895,-2.5895,-2.5895,-2.5895,-2.5895,-2.5895,-2.5895,-2.5895,-2.5895,-2.5895,-2.5895,-2.5895,-2.5895,-2.5895,-2.5895,-2.5895,-2.5895,-2.5895,-2.5895,-2.5895,-2.5895,-2.5895,-2.5895,-2.5895,-2.5895,-2.5895,-2.5895,-2.4498,-2.38,-2.38,-2.2334,-2.1741,-1.9131,-1.9703,-2.0214,-1.9039,-1.9458,-1.9712,-1.8012,-1.7626,-1.765,-1.783,0.0,0.0,0.0,0.0,0.0,0.0,-1.8613,-1.9019,-1.858,-1.9141,-2.0386,-2.2495,-2.326,-2.3879,-2.4465,-2.4553,-2.511,-2.6258,-2.5768,-2.5801,-2.6791,-2.7092,-2.6972,-2.622,-2.6496,-2.6458,-2.5981,-2.6357,-2.6748,-2.7139,-2.6962,-2.7055,-2.7272,-2.7272,-2.7272,-2.7296,-2.7825,-2.8053,-2.8077,-2.8378,-2.851,-2.851,-2.8271,-2.7777,-2.7185,-2.6857,-2.6373,-2.5895,-2.5895,-2.5895,-2.5895,-2.5895,-2.5895,-2.5895,-2.5895,-2.5895,-2.5895,-2.5895,-2.5895,-2.5895,-2.5895,-2.5895,-2.5895,-2.5895,-2.5895,-2.5895,-2.5895,-2.5895,-2.5895,-2.5895,-2.5895,-2.5895,-2.5895,-2.5895,-2.5895,-2.5895,-2.5895,-2.5895,-2.5895,-2.5895,-2.5895,-2.5895,-2.5895,-2.5895,-2.5895,-2.5895,-2.5895,-2.5895,-2.5895,-2.5895,-2.5895,-2.5895,-2.5895,-2.5895,-2.5895,-2.5895,-2.5895,-2.4498,-2.38,-2.38,-2.2334,-2.1603,-1.9396,-1.9916,-2.0446,-1.9339,-1.912,-1.8981,-1.8055,-1.7415,-1.7251,-1.7915,-1.7743,0.0,0.0,0.0,-1.7911,-1.7804,0.0,-1.7959,-1.7956,-1.7731,-1.8277,-2.0169,-2.1134,-2.1885,-2.2611,-2.2812,-2.3393,-2.458,-2.4274,-2.4548,-2.5599,-2.6311,-2.6385,-2.5778,-2.6408,-2.6346,-2.5523,-2.6171,-2.6441,-2.6311,-2.6431,-2.6562,-2.6707,-2.6707,-2.6707,-2.6731,-2.7272,-2.7512,-2.7536,-2.7921,-2.8083,-2.8044,-2.7658,-2.7325,-2.694,-2.661,-2.6207,-2.5895,-2.5895,-2.5895,-2.5895,-2.5895,-2.5895,-2.5895,-2.5895,-2.5895,-2.5895,-2.5895,-2.5895,-2.5895,-2.5895,-2.5895,-2.5895,-2.5895,-2.5895,-2.5895,-2.5895,-2.5895,-2.5895,-2.5895,-2.5895,-2.5895,-2.5895,-2.5895,-2.5895,-2.5895,-2.5895,-2.5895,-2.5895,-2.5895,-2.5895,-2.5895,-2.5895,-2.5895,-2.5895,-2.5895,-2.5895,-2.5895,-2.5895,-2.5895,-2.5895,-2.5895,-2.5895,-2.5895,-2.5895,-2.5895,-2.5895,-2.4498,-2.38,-2.379,-2.2211,-2.1401,-1.9977,-2.0538,-2.073,-1.8121,-1.8268,-1.8473,-1.6353,-1.6654,-1.7231,-1.675,-1.7894,-1.8799,-1.8316,-1.846,-1.8474,0.0,-1.7881,0.0,0.0,-1.7293,-1.8131,-1.8626,-1.9201,-1.9862,-2.0548,-1.9791,-2.0317,-2.289,-2.2257,-2.257,-2.4541,-2.5637,-2.5731,-2.4611,-2.5672,-2.6233,-2.6151,-2.5606,-2.5861,-2.685,-2.5873,-2.5624,-2.6129,-2.6129,-2.6129,-2.6154,-2.6719,-2.6959,-2.6959,-2.6908,-2.7043,-2.7093,-2.662,-2.6507,-2.6528,-2.6528,-2.6207,-2.5895,-2.5895,-2.5895,-2.5895,-2.5895,-2.5895,-2.5895,-2.5895,-2.5895,-2.5895,-2.5895,-2.5895,-2.5895,-2.5895,-2.5895,-2.5895,-2.5895,-2.5895,-2.5895,-2.5895,-2.5895,-2.5895,-2.5895,-2.5895,-2.5895,-2.5895,-2.5895,-2.5895,-2.5895,-2.5895,-2.5895,-2.5895,-2.5895,-2.5895,-2.5895,-2.5895,-2.5895,-2.5895,-2.5895,-2.5895,-2.5895,-2.5895,-2.5895,-2.5895,-2.5895,-2.5895,-2.5895,-2.5895,-2.5895,-2.5895,-2.4498,-2.38,-2.378,-2.1996,-2.1117,-2.0373,-2.0851,-2.1019,-1.9384,-1.8987,-1.8614,-1.7207,-1.7159,-1.7267,-1.6691,-1.7616,-1.8301,-1.7772,-1.7775,0.0,0.0,0.0,-1.6781,0.0,-1.6317,-1.6593,-1.6716,-1.8109,-1.8945,-1.8809,-1.8493,-1.9183,-2.1375,-2.0977,-2.1568,-2.3563,-2.4564,-2.4905,-2.4506,-2.5244,-2.5594,-2.5594,-2.5382,-2.5467,-2.5849,-2.5455,-2.5408,-2.5576,-2.5576,-2.5576,-2.5612,-2.6142,-2.6382,-2.6406,-2.6779,-2.6804,-2.66,-2.6459,-2.6098,-2.5609,-2.561,-2.5777,-2.5895,-2.5895,-2.5895,-2.5895,-2.5895,-2.5895,-2.5895,-2.5895,-2.5895,-2.5895,-2.5895,-2.5895,-2.5895,-2.5895,-2.5895,-2.5895,-2.5895,-2.5895,-2.5895,-2.5895,-2.5895,-2.5895,-2.5895,-2.5895,-2.5895,-2.5895,-2.5895,-2.5895,-2.5895,-2.5895,-2.5895,-2.5895,-2.5895,-2.5895,-2.5895,-2.5895,-2.5895,-2.5895,-2.5895,-2.5895,-2.5895,-2.5895,-2.5895,-2.5895,-2.5895,-2.5895,-2.5895,-2.5895,-2.5644,-2.5211,-2.4241,-2.3551,-2.3115,-2.1455,-2.0714,-2.0321,-2.0819,-2.095,-1.9889,-1.9507,-1.9066,-1.7775,-1.7787,-1.7906,-1.7383,-1.8017,-1.8524,-1.8265,-1.782,-1.7432,0.0,0.0,0.0,0.0,-1.5792,-1.5792,-1.5792,-1.6912,-1.7554,-1.707,-1.7208,-1.7945,-1.9365,-1.9685,-2.0439,-2.203,-2.3159,-2.3845,-2.4026,-2.4551,-2.4908,-2.5111,-2.5111,-2.5111,-2.5111,-2.5241,-2.5312,-2.5312,-2.5312,-2.5312,-2.5324,-2.5673,-2.5817,-2.5841,-2.6214,-2.6083,-2.582,-2.5839,-2.5508,-2.4914,-2.515,-2.5371,-2.5644,-2.5644,-2.5753,-2.5895,-2.5895,-2.5895,-2.5895,-2.5895,-2.5895,-2.5895,-2.5895,-2.5895,-2.5895,-2.5895,-2.5895,-2.5895,-2.5895,-2.5895,-2.5895,-2.5895,-2.5895,-2.5895,-2.5895,-2.5895,-2.5895,-2.5895,-2.5895,-2.5895,-2.5895,-2.5895,-2.5895,-2.5895,-2.5895,-2.5895,-2.5895,-2.5895,-2.5895,-2.5895,-2.5895,-2.5895,-2.5895,-2.5895,-2.5895,-2.5895,-2.5895,-2.5895,-2.5895,-2.5895,-2.5559,-2.4861,-2.4145,-2.3464,-2.2775,-2.1239,-2.0521]}]]